[[{"header":{"parameterUnit":"m.s-1","parameterCategory":1,"la1":31.0,"la2":29.5877,"lo1":-88.7671,"lo2":-86.6584,"dy":0.0162,"dx":0.0185,"nx":115,"ny":88,"refTime":"2023-05-25T12:00:00:Z","depth":0,"parameterNumber":2,"parameterNumberName":"U-component_of_WINDS"},"data":[0.0,0.0,0.0,0.0,0.0,0.0,0.0,0.0,0.0,0.0,0.0,0.0,0.0,0.0,0.0,0.0,0.0,0.0,0.0,0.0,0.0,0.0,0.0,0.0,0.0,0.0,0.0,0.0,0.0,0.0,0.0,0.0,0.0,0.0,0.0,0.0,0.0,0.0,0.0,0.0,0.0,0.0,0.0,0.0,0.0,0.0,0.0,0.0,0.0,0.0,0.0,0.0,0.0,0.0,0.0,0.0,0.0,0.0,0.0,0.0,0.0,0.0,0.0,0.0,0.0,0.0,0.0,0.0,0.0,0.0,0.0,0.0,0.0,0.0,0.0,0.0,0.0,0.0,0.0,0.0,0.0,0.0,0.0,0.0,0.0,0.0,0.0,0.0,0.0,0.0,0.0,0.0,0.0,0.0,0.0,0.0,0.0,0.0,0.0,0.0,0.0,0.0,0.0,0.0,0.0,0.0,0.0,0.0,0.0,0.0,0.0,0.0,0.0,0.0,0.0,0.0,0.0,0.0,0.0,0.0,0.0,0.0,0.0,0.0,0.0,0.0,0.0,0.0,0.0,0.0,0.0,0.0,0.0,0.0,0.0,0.0,0.0,0.0,0.0,0.0,0.0,0.0,0.0,0.0,0.0,0.0,0.0,0.0,0.0,0.0,0.0,0.0,0.0,0.0,0.0,0.0,0.0,0.0,0.0,0.0,0.0,0.0,0.0,0.0,0.0,0.0,0.0,0.0,0.0,0.0,0.0,0.0,0.0,0.0,0.0,0.0,0.0,0.0,0.0,0.0,0.0,0.0,0.0,0.0,0.0,0.0,0.0,0.0,0.0,0.0,0.0,0.0,0.0,0.0,0.0,0.0,0.0,0.0,0.0,0.0,0.0,0.0,0.0,0.0,0.0,0.0,0.0,0.0,0.0,0.0,0.0,0.0,0.0,0.0,0.0,0.0,0.0,0.0,0.0,0.0,0.0,0.0,0.0,0.0,0.0,0.0,0.0,0.0,0.0,0.0,0.0,0.0,0.0,0.0,0.0,0.0,0.0,0.0,0.0,0.0,0.0,0.0,0.0,0.0,0.0,0.0,0.0,0.0,0.0,0.0,0.0,0.0,0.0,0.0,0.0,0.0,0.0,0.0,0.0,0.0,0.0,0.0,0.0,0.0,0.0,0.0,0.0,0.0,0.0,0.0,0.0,0.0,0.0,0.0,0.0,0.0,0.0,0.0,0.0,0.0,0.0,0.0,0.0,0.0,0.0,0.0,0.0,0.0,0.0,0.0,0.0,0.0,0.0,0.0,0.0,0.0,0.0,0.0,0.0,0.0,0.0,0.0,0.0,0.0,0.0,0.0,0.0,0.0,0.0,0.0,0.0,0.0,0.0,0.0,0.0,0.0,0.0,0.0,0.0,0.0,0.0,0.0,0.0,0.0,0.0,0.0,0.0,0.0,0.0,0.0,0.0,0.0,0.0,0.0,0.0,0.0,0.0,0.0,0.0,0.0,0.0,0.0,0.0,0.0,0.0,0.0,0.0,0.0,0.0,0.0,0.0,0.0,0.0,0.0,0.0,0.0,0.0,0.0,0.0,0.0,0.0,0.0,0.0,0.0,0.0,0.0,0.0,0.0,0.0,0.0,0.0,0.0,0.0,0.0,0.0,0.0,0.0,0.0,0.0,0.0,0.0,0.0,0.0,0.0,0.0,0.0,0.0,0.0,0.0,0.0,0.0,0.0,0.0,0.0,0.0,0.0,0.0,0.0,0.0,0.0,0.0,0.0,0.0,0.0,0.0,0.0,0.0,0.0,0.0,0.0,0.0,0.0,0.0,0.0,0.0,0.0,0.0,0.0,0.0,0.0,0.0,0.0,0.0,0.0,0.0,0.0,0.0,0.0,0.0,0.0,0.0,0.0,0.0,0.0,0.0,0.0,0.0,0.0,0.0,0.0,0.0,0.0,0.0,0.0,0.0,0.0,0.0,0.0,0.0,0.0,0.0,0.0,0.0,0.0,0.0,0.0,0.0,0.0,0.0,0.0,0.0,0.0,0.0,0.0,0.0,0.0,0.0,0.0,0.0,0.0,0.0,0.0,0.0,0.0,0.0,0.0,0.0,0.0,0.0,0.0,0.0,0.0,0.0,0.0,0.0,0.0,0.0,0.0,0.0,0.0,0.0,0.0,0.0,0.0,0.0,0.0,0.0,0.0,0.0,0.0,0.0,0.0,0.0,0.0,0.0,0.0,0.0,0.0,0.0,0.0,0.0,0.0,0.0,0.0,0.0,0.0,0.0,0.0,0.0,0.0,0.0,0.0,0.0,0.0,0.0,0.0,0.0,0.0,0.0,0.0,0.0,0.0,0.0,0.0,0.0,0.0,0.0,0.0,0.0,0.0,0.0,0.0,0.0,0.0,0.0,0.0,0.0,0.0,0.0,0.0,0.0,0.0,0.0,0.0,0.0,0.0,0.0,0.0,0.0,0.0,0.0,0.0,0.0,0.0,0.0,0.0,0.0,0.0,0.0,0.0,0.0,0.0,0.0,0.0,0.0,0.0,0.0,0.0,0.0,0.0,0.0,0.0,0.0,0.0,0.0,0.0,0.0,0.0,0.0,0.0,0.0,0.0,0.0,0.0,0.0,0.0,0.0,0.0,0.0,0.0,0.0,0.0,0.0,0.0,0.0,0.0,0.0,0.0,0.0,0.0,0.0,0.0,0.0,0.0,0.0,0.0,0.0,0.0,0.0,0.0,0.0,0.0,0.0,0.0,0.0,0.0,0.0,0.0,0.0,0.0,0.0,0.0,0.0,0.0,0.0,0.0,0.0,0.0,0.0,0.0,0.0,0.0,0.0,0.0,0.0,0.0,0.0,0.0,0.0,0.0,0.0,0.0,0.0,0.0,0.0,0.0,0.0,0.0,0.0,0.0,0.0,0.0,0.0,0.0,0.0,0.0,0.0,0.0,0.0,0.0,0.0,0.0,0.0,0.0,0.0,0.0,0.0,0.0,0.0,0.0,0.0,0.0,0.0,0.0,0.0,0.0,0.0,0.0,0.0,0.0,0.0,0.0,0.0,0.0,0.0,0.0,0.0,0.0,0.0,0.0,0.0,0.0,0.0,0.0,0.0,0.0,0.0,0.0,0.0,0.0,0.0,0.0,0.0,0.0,0.0,0.0,0.0,0.0,0.0,0.0,0.0,0.0,0.0,0.0,0.0,0.0,0.0,0.0,0.0,0.0,0.0,0.0,0.0,0.0,0.0,0.0,0.0,0.0,0.0,0.0,0.0,0.0,0.0,0.0,0.0,0.0,0.0,0.0,0.0,0.0,0.0,0.0,0.0,0.0,0.0,0.0,0.0,0.0,0.0,0.0,0.0,0.0,0.0,0.0,0.0,0.0,0.0,0.0,0.0,0.0,0.0,0.0,0.0,0.0,0.0,0.0,0.0,0.0,0.0,0.0,0.0,0.0,0.0,0.0,0.0,0.0,0.0,0.0,0.0,0.0,0.0,0.0,0.0,0.0,0.0,0.0,0.0,0.0,0.0,0.0,0.0,0.0,0.0,0.0,0.0,0.0,0.0,0.0,0.0,0.0,0.0,0.0,0.0,0.0,0.0,0.0,0.0,0.0,0.0,0.0,0.0,0.0,0.0,0.0,0.0,0.0,0.0,0.0,0.0,0.0,0.0,0.0,0.0,0.0,0.0,0.0,0.0,0.0,0.0,0.0,0.0,0.0,0.0,0.0,0.0,0.0,0.0,0.0,0.0,0.0,0.0,0.0,0.0,0.0,0.0,0.0,0.0,0.0,0.0,0.0,0.0,0.0,0.0,0.0,0.0,0.0,0.0,0.0,0.0,0.0,0.0,0.0,0.0,0.0,0.0,0.0,0.0,0.0,0.0,0.0,0.0,0.0,0.0,0.0,0.0,0.0,0.0,0.0,0.0,0.0,0.0,0.0,0.0,0.0,0.0,0.0,0.0,0.0,0.0,0.0,0.0,0.0,0.0,0.0,0.0,0.0,0.0,0.0,0.0,0.0,0.0,0.0,0.0,0.0,0.0,0.0,0.0,0.0,0.0,0.0,0.0,0.0,0.0,0.0,0.0,0.0,0.0,0.0,0.0,0.0,0.0,0.0,0.0,0.0,0.0,0.0,0.0,0.0,0.0,0.0,0.0,0.0,0.0,0.0,0.0,0.0,0.0,0.0,0.0,0.0,0.0,0.0,0.0,0.0,0.0,0.0,0.0,0.0,0.0,0.0,0.0,0.0,0.0,0.0,0.0,0.0,1.9419,0.0,0.0,0.0,0.0,0.0,0.0,0.0,0.0,0.0,0.0,0.0,0.0,0.0,0.0,0.0,0.0,0.0,0.0,0.0,0.0,0.0,0.0,0.0,0.0,0.0,0.0,0.0,0.0,0.0,0.0,0.0,0.0,0.0,0.0,0.0,0.0,0.0,0.0,0.0,0.0,0.0,0.0,0.0,0.0,0.0,0.0,0.0,0.0,0.0,0.0,0.0,0.0,0.0,0.0,0.0,0.0,0.0,0.0,0.0,0.0,0.0,0.0,0.0,0.0,0.0,0.0,0.0,0.0,0.0,0.0,0.0,0.0,0.0,0.0,0.0,0.0,0.0,0.0,0.0,0.0,0.0,0.0,0.0,0.0,0.0,0.0,0.0,0.0,0.0,0.0,0.0,0.0,0.0,0.0,0.0,0.0,0.0,0.0,0.0,0.0,0.0,0.0,0.0,0.0,0.0,0.0,0.0,0.0,0.0,0.0,2.0974,2.0645,2.0137,1.9696,1.9315,0.0,0.0,0.0,0.0,0.0,0.0,0.0,0.0,0.0,0.0,0.0,0.0,0.0,0.0,0.0,0.0,0.0,0.0,0.0,0.0,0.0,0.0,0.0,0.0,0.0,0.0,0.0,0.0,0.0,0.0,0.0,0.0,0.0,0.0,0.0,0.0,0.0,0.0,0.0,0.0,0.0,0.0,0.0,0.0,0.0,0.0,0.0,0.0,0.0,0.0,0.0,0.0,0.0,0.0,0.0,0.0,0.0,0.0,0.0,0.0,0.0,0.0,0.0,0.0,0.0,0.0,0.0,0.0,0.0,0.0,0.0,0.0,0.0,0.0,0.0,0.0,0.0,0.0,0.0,0.0,0.0,0.0,0.0,0.0,0.0,0.0,0.0,0.0,0.0,0.0,0.0,0.0,0.0,0.0,0.0,0.0,0.0,0.0,0.0,0.0,0.0,0.0,0.0,0.0,0.0,0.0,0.0,0.0,0.0,0.0,0.0,0.0,2.0508,1.9927,1.9266,0.0,0.0,0.0,0.0,0.0,0.0,0.0,0.0,0.0,0.0,0.0,0.0,0.0,0.0,0.0,0.0,0.0,0.0,0.0,0.0,0.0,0.0,0.0,0.0,0.0,0.0,0.0,0.0,0.0,0.0,0.0,0.0,0.0,0.0,0.0,0.0,0.0,0.0,0.0,0.0,0.0,0.0,0.0,0.0,0.0,0.0,0.0,0.0,0.0,0.0,0.0,0.0,0.0,0.0,0.0,0.0,0.0,0.0,0.0,0.0,0.0,0.0,0.0,0.0,0.0,0.0,0.0,0.0,0.0,0.0,0.0,0.0,0.0,0.0,0.0,0.0,0.0,0.0,0.0,0.0,0.0,0.0,0.0,0.0,0.0,0.0,0.0,0.0,0.0,0.0,0.0,0.0,0.0,0.0,0.0,0.0,0.0,0.0,0.0,0.0,0.0,0.0,0.0,0.0,0.0,0.0,0.0,0.0,0.0,0.0,2.2,2.2403,2.1892,0.0,1.9484,0.0,0.0,0.0,0.0,0.0,0.0,0.0,0.0,0.0,0.0,0.0,0.0,0.0,0.0,0.0,0.0,0.0,0.0,0.0,0.0,0.0,0.0,0.0,0.0,0.0,0.0,0.0,0.0,0.0,0.0,0.0,0.0,0.0,0.0,0.0,0.0,0.0,0.0,0.0,0.0,0.0,0.0,0.0,0.0,0.0,0.0,0.0,0.0,0.0,0.0,0.0,0.0,0.0,0.0,0.0,0.0,0.0,0.0,0.0,0.0,0.0,0.0,0.0,0.0,0.0,0.0,0.0,0.0,0.0,0.0,0.0,0.0,0.0,0.0,0.0,0.0,0.0,0.0,0.0,0.0,0.0,0.0,0.0,0.0,0.0,0.0,0.0,0.0,0.0,0.0,0.0,0.0,0.0,0.0,0.0,0.0,0.0,0.0,0.0,0.0,0.0,0.0,0.0,0.0,0.0,0.0,0.0,0.0,0.0,0.0,2.2306,2.2305,2.1585,2.08,0.0,0.0,0.0,0.0,0.0,0.0,0.0,0.0,0.0,0.0,0.0,0.0,0.0,0.0,0.0,0.0,0.0,0.0,0.0,0.0,0.0,0.0,0.0,0.0,0.0,0.0,0.0,0.0,0.0,0.0,0.0,0.0,0.0,0.0,0.0,0.0,0.0,0.0,0.0,0.0,0.0,0.0,0.0,0.0,0.0,0.0,0.0,0.0,0.0,0.0,0.0,0.0,0.0,0.0,0.0,0.0,0.0,0.0,0.0,0.0,0.0,0.0,0.0,0.0,0.0,0.0,0.0,0.0,0.0,0.0,0.0,0.0,0.0,0.0,0.0,0.0,0.0,0.0,0.0,0.0,0.0,0.0,0.0,0.0,0.0,0.0,0.0,0.0,0.0,0.0,0.0,0.0,0.0,0.0,0.0,0.0,0.0,0.0,0.0,0.0,0.0,0.0,0.0,0.0,0.0,0.0,0.0,0.0,0.0,0.0,2.2671,2.2723,2.2425,2.1689,2.1037,2.0455,0.0,0.0,0.0,0.0,0.0,0.0,0.0,0.0,0.0,0.0,0.0,0.0,0.0,0.0,0.0,0.0,0.0,0.0,0.0,0.0,0.0,0.0,0.0,0.0,0.0,0.0,0.0,0.0,0.0,0.0,0.0,0.0,0.0,0.0,0.0,0.0,0.0,0.0,0.0,0.0,0.0,0.0,0.0,0.0,0.0,0.0,0.0,0.0,0.0,0.0,0.0,0.0,0.0,0.0,0.0,0.0,0.0,0.0,0.0,0.0,0.0,0.0,0.0,0.0,0.0,0.0,0.0,0.0,0.0,0.0,0.0,0.0,0.0,0.0,0.0,0.0,0.0,0.0,0.0,0.0,0.0,0.0,0.0,0.0,0.0,0.0,0.0,0.0,0.0,0.0,0.0,0.0,0.0,0.0,0.0,0.0,0.0,0.0,0.0,0.0,0.0,0.0,0.0,0.0,0.0,0.0,0.0,0.0,2.2871,2.3327,2.3457,2.32,2.2778,2.2062,0.0,0.0,0.0,0.0,0.0,0.0,0.0,0.0,0.0,0.0,0.0,0.0,0.0,0.0,0.0,0.0,0.0,0.0,0.0,0.0,0.0,0.0,0.0,0.0,0.0,0.0,0.0,0.0,0.0,0.0,0.0,0.0,0.0,0.0,0.0,0.0,0.0,0.0,0.0,0.0,0.0,0.0,0.0,0.0,0.0,0.0,0.0,0.0,0.0,0.0,0.0,0.0,0.0,0.0,0.0,0.0,0.0,0.0,0.0,0.0,0.0,0.0,0.0,0.0,0.0,0.0,0.0,0.0,0.0,0.0,0.0,0.0,0.0,0.0,0.0,0.0,0.0,0.0,0.0,0.0,0.0,0.0,0.0,0.0,0.0,0.0,0.0,0.0,0.0,0.0,0.0,0.0,0.0,0.0,0.0,0.0,0.0,0.0,0.0,0.0,0.0,0.0,0.0,0.0,0.0,0.0,0.0,0.0,0.0,2.3362,2.3437,2.3298,2.292,2.254,2.2081,0.0,0.0,0.0,0.0,0.0,0.0,0.0,0.0,0.0,0.0,0.0,0.0,0.0,0.0,0.0,0.0,0.0,0.0,0.0,0.0,0.0,0.0,0.0,0.0,0.0,0.0,0.0,0.0,0.0,0.0,0.0,0.0,0.0,0.0,0.0,0.0,0.0,0.0,0.0,0.0,0.0,0.0,0.0,0.0,0.0,0.0,0.0,0.0,0.0,0.0,0.0,0.0,0.0,0.0,0.0,0.0,0.0,0.0,0.0,0.0,0.0,0.0,0.0,0.0,0.0,0.0,0.0,0.0,0.0,0.0,0.0,0.0,0.0,0.0,0.0,0.0,0.0,0.0,0.0,0.0,0.0,0.0,0.0,0.0,0.0,0.0,0.0,0.0,0.0,0.0,0.0,0.0,0.0,0.0,0.0,0.0,0.0,0.0,0.0,0.0,0.0,0.0,0.0,0.0,0.0,0.0,0.0,0.0,0.0,2.4048,0.0,2.3666,2.2965,2.2621,2.2229,0.0,0.0,0.0,0.0,0.0,0.0,0.0,0.0,0.0,0.0,0.0,0.0,0.0,0.0,0.0,0.0,0.0,0.0,0.0,0.0,0.0,0.0,0.0,0.0,0.0,0.0,0.0,0.0,0.0,0.0,0.0,0.0,0.0,0.0,0.0,0.0,0.0,0.0,0.0,0.0,0.0,0.0,0.0,0.0,0.0,0.0,0.0,0.0,0.0,0.0,0.0,0.0,0.0,0.0,0.0,0.0,0.0,0.0,0.0,0.0,0.0,0.0,0.0,0.0,0.0,0.0,0.0,0.0,0.0,0.0,0.0,0.0,0.0,0.0,0.0,0.0,0.0,0.0,0.0,0.0,0.0,0.0,0.0,0.0,0.0,0.0,0.0,0.0,0.0,0.0,0.0,0.0,0.0,0.0,0.0,0.0,0.0,0.0,0.0,0.0,0.0,0.0,0.0,0.0,0.0,0.0,0.0,0.0,2.4273,2.4857,2.504,2.4555,2.3524,2.3069,2.2462,0.0,0.0,0.0,0.0,0.0,0.0,0.0,0.0,0.0,0.0,0.0,0.0,0.0,0.0,0.0,0.0,0.0,0.0,0.0,0.0,0.0,0.0,0.0,0.0,0.0,0.0,0.0,0.0,0.0,0.0,0.0,0.0,0.0,0.0,0.0,0.0,0.0,0.0,0.0,0.0,0.0,0.0,0.0,0.0,0.0,0.0,0.0,0.0,0.0,0.0,0.0,0.0,0.0,0.0,0.0,0.0,0.0,0.0,0.0,0.0,0.0,0.0,0.0,0.0,0.0,0.0,0.0,0.0,0.0,0.0,0.0,0.0,0.0,0.0,0.0,0.0,0.0,0.0,0.0,0.0,0.0,0.0,0.0,0.0,0.0,0.0,0.0,0.0,0.0,0.0,0.0,0.0,0.0,0.0,0.0,0.0,0.0,0.0,0.0,0.0,0.0,0.0,0.0,0.0,0.0,0.0,0.0,0.0,0.0,2.5117,2.4805,2.439,2.3819,2.2951,2.2424,0.0,0.0,0.0,0.0,0.0,0.0,0.0,0.0,0.0,0.0,0.0,0.0,0.0,0.0,0.0,0.0,0.0,0.0,0.0,0.0,0.0,0.0,0.0,0.0,0.0,0.0,0.0,0.0,0.0,0.0,0.0,0.0,0.0,0.0,0.0,0.0,0.0,0.0,0.0,0.0,0.0,0.0,0.0,0.0,0.0,0.0,0.0,0.0,0.0,0.0,0.0,0.0,0.0,0.0,0.0,0.0,0.0,0.0,0.0,0.0,0.0,0.0,0.0,0.0,0.0,0.0,0.0,0.0,0.0,0.0,0.0,0.0,0.0,0.0,0.0,0.0,0.0,0.0,0.0,0.0,0.0,0.0,0.0,0.0,0.0,0.0,0.0,0.0,0.0,0.0,0.0,0.0,0.0,0.0,0.0,0.0,0.0,0.0,0.0,0.0,0.0,0.0,0.0,0.0,0.0,0.0,0.0,0.0,0.0,2.6142,2.5786,2.523,2.4467,2.3631,2.2931,2.2343,0.0,0.0,0.0,0.0,0.0,0.0,0.0,0.0,0.0,0.0,0.0,0.0,0.0,0.0,0.0,0.0,0.0,0.0,0.0,0.0,0.0,0.0,0.0,0.0,0.0,0.0,0.0,0.0,0.0,0.0,0.0,0.0,0.0,0.0,0.0,0.0,0.0,0.0,0.0,0.0,0.0,0.0,0.0,0.0,0.0,0.0,0.0,0.0,0.0,0.0,0.0,0.0,0.0,0.0,0.0,0.0,0.0,0.0,0.0,0.0,0.0,0.0,0.0,0.0,0.0,0.0,0.0,0.0,0.0,0.0,0.0,0.0,0.0,0.0,0.0,0.0,0.0,0.0,0.0,0.0,0.0,0.0,0.0,0.0,0.0,0.0,0.0,0.0,0.0,0.0,0.0,0.0,0.0,0.0,0.0,0.0,0.0,0.0,0.0,0.0,0.0,0.0,0.0,0.0,0.0,0.0,0.0,0.0,2.7731,2.7799,2.6994,2.5311,2.4878,2.389,0.0,0.0,0.0,0.0,0.0,0.0,0.0,0.0,0.0,0.0,0.0,0.0,0.0,0.0,0.0,0.0,0.0,0.0,0.0,0.0,0.0,0.0,0.0,0.0,0.0,0.0,0.0,0.0,0.0,0.0,0.0,0.0,0.0,0.0,0.0,0.0,0.0,0.0,0.0,0.0,0.0,0.0,0.0,0.0,0.0,0.0,0.0,0.0,0.0,0.0,0.0,0.0,0.0,0.0,0.0,0.0,0.0,0.0,0.0,0.0,0.0,0.0,0.0,0.0,0.0,0.0,0.0,0.0,0.0,0.0,0.0,0.0,0.0,0.0,0.0,0.0,0.0,0.0,0.0,0.0,0.0,0.0,0.0,0.0,0.0,0.0,0.0,0.0,0.0,0.0,0.0,0.0,0.0,0.0,0.0,0.0,0.0,0.0,0.0,0.0,0.0,0.0,0.0,0.0,0.0,0.0,0.0,0.0,0.0,2.8436,2.8969,2.8276,2.6211,2.5033,2.4067,0.0,0.0,0.0,0.0,0.0,0.0,0.0,0.0,0.0,0.0,0.0,0.0,0.0,0.0,0.0,0.0,0.0,0.0,0.0,0.0,0.0,0.0,0.0,0.0,0.0,0.0,0.0,0.0,0.0,0.0,0.0,0.0,0.0,0.0,0.0,0.0,0.0,0.0,0.0,0.0,0.0,0.0,0.0,0.0,0.0,0.0,0.0,0.0,0.0,0.0,0.0,0.0,0.0,0.0,0.0,0.0,0.0,0.0,0.0,0.0,0.0,0.0,0.0,0.0,0.0,0.0,0.0,0.0,0.0,0.0,0.0,0.0,0.0,0.0,0.0,0.0,0.0,0.0,0.0,0.0,0.0,0.0,0.0,0.0,0.0,0.0,0.0,0.0,0.0,0.0,0.0,0.0,0.0,0.0,0.0,0.0,0.0,0.0,0.0,0.0,0.0,0.0,0.0,0.0,0.0,0.0,0.0,0.0,2.8616,2.9279,2.9455,2.8905,2.7584,2.6012,2.4659,0.0,0.0,0.0,0.0,0.0,0.0,0.0,0.0,0.0,0.0,0.0,0.0,0.0,0.0,0.0,0.0,0.0,0.0,0.0,0.0,0.0,0.0,0.0,0.0,0.0,0.0,0.0,0.0,0.0,0.0,0.0,0.0,0.0,0.0,0.0,0.0,0.0,0.0,0.0,0.0,0.0,0.0,0.0,0.0,0.0,0.0,0.0,0.0,0.0,0.0,0.0,0.0,0.0,0.0,0.0,0.0,0.0,0.0,0.0,0.0,0.0,0.0,0.0,0.0,0.0,0.0,0.0,0.0,0.0,0.0,0.0,0.0,0.0,0.0,0.0,0.0,0.0,0.0,0.0,0.0,0.0,0.0,0.0,0.0,0.0,0.0,0.0,0.0,0.0,0.0,0.0,0.0,0.0,0.0,0.0,0.0,0.0,0.0,0.0,0.0,0.0,0.0,0.0,0.0,0.0,0.0,0.0,0.0,2.9492,3.0163,2.9715,2.934,2.9091,2.7412,2.5527,0.0,0.0,0.0,0.0,0.0,0.0,0.0,0.0,0.0,0.0,0.0,0.0,0.0,0.0,0.0,0.0,0.0,0.0,0.0,0.0,0.0,0.0,0.0,0.0,0.0,0.0,0.0,0.0,0.0,0.0,0.0,0.0,0.0,0.0,0.0,0.0,0.0,0.0,0.0,0.0,0.0,0.0,0.0,0.0,0.0,0.0,0.0,0.0,0.0,0.0,0.0,0.0,0.0,0.0,0.0,0.0,0.0,0.0,0.0,0.0,0.0,0.0,0.0,0.0,0.0,0.0,0.0,0.0,0.0,0.0,0.0,0.0,0.0,0.0,0.0,0.0,0.0,0.0,0.0,0.0,0.0,0.0,0.0,0.0,0.0,0.0,0.0,0.0,0.0,0.0,0.0,0.0,0.0,0.0,0.0,0.0,0.0,0.0,0.0,0.0,0.0,0.0,0.0,0.0,0.0,0.0,0.0,0.0,3.0242,3.0711,3.0913,3.0636,2.9865,2.8039,2.6411,0.0,0.0,0.0,0.0,0.0,0.0,0.0,0.0,0.0,0.0,0.0,0.0,0.0,0.0,0.0,0.0,0.0,0.0,0.0,0.0,0.0,0.0,0.0,0.0,0.0,0.0,0.0,0.0,0.0,0.0,0.0,0.0,0.0,0.0,0.0,0.0,0.0,0.0,0.0,0.0,0.0,0.0,0.0,0.0,0.0,0.0,0.0,0.0,2.5908,0.0,0.0,0.0,0.0,0.0,0.0,0.0,0.0,0.0,0.0,0.0,0.0,0.0,0.0,0.0,0.0,0.0,0.0,0.0,0.0,0.0,0.0,0.0,0.0,0.0,0.0,0.0,0.0,0.0,0.0,0.0,0.0,0.0,0.0,0.0,0.0,0.0,0.0,0.0,0.0,0.0,0.0,0.0,0.0,0.0,0.0,0.0,0.0,0.0,0.0,0.0,0.0,0.0,0.0,0.0,0.0,0.0,0.0,0.0,3.0724,3.1308,3.1255,3.0982,3.0437,2.8704,2.7028,0.0,0.0,0.0,0.0,0.0,0.0,0.0,0.0,0.0,0.0,0.0,0.0,0.0,0.0,0.0,0.0,0.0,0.0,0.0,0.0,0.0,0.0,0.0,0.0,0.0,0.0,0.0,0.0,0.0,0.0,0.0,0.0,0.0,0.0,0.0,0.0,0.0,0.0,0.0,0.0,0.0,0.0,0.0,0.0,0.0,0.0,0.0,0.0,0.0,0.0,0.0,0.0,0.0,0.0,0.0,0.0,0.0,0.0,0.0,0.0,0.0,0.0,0.0,0.0,0.0,0.0,0.0,0.0,0.0,0.0,0.0,0.0,0.0,0.0,0.0,0.0,0.0,0.0,0.0,0.0,0.0,0.0,0.0,0.0,0.0,0.0,0.0,0.0,0.0,0.0,0.0,0.0,0.0,0.0,0.0,0.0,0.0,0.0,0.0,0.0,0.0,0.0,0.0,0.0,0.0,0.0,0.0,3.044,3.1137,3.1779,3.1303,3.1026,3.0967,2.927,2.7424,2.5524,0.0,0.0,0.0,0.0,0.0,0.0,0.0,0.0,0.0,0.0,0.0,0.0,0.0,0.0,0.0,0.0,0.0,0.0,0.0,0.0,0.0,0.0,0.0,0.0,0.0,0.0,0.0,0.0,0.0,0.0,0.0,0.0,0.0,0.0,0.0,0.0,0.0,0.0,2.4281,2.4751,0.0,0.0,0.0,0.0,0.0,0.0,0.0,0.0,2.5844,0.0,0.0,0.0,0.0,0.0,0.0,0.0,0.0,0.0,0.0,0.0,0.0,0.0,0.0,0.0,0.0,0.0,0.0,0.0,0.0,0.0,0.0,0.0,0.0,0.0,0.0,0.0,0.0,0.0,0.0,0.0,0.0,0.0,0.0,0.0,0.0,0.0,0.0,0.0,0.0,0.0,0.0,0.0,0.0,0.0,0.0,0.0,0.0,0.0,0.0,0.0,0.0,0.0,0.0,0.0,0.0,2.9218,3.0789,3.1733,3.196,3.1745,3.1544,3.1271,2.9284,2.7619,2.646,0.0,0.0,0.0,0.0,0.0,0.0,0.0,0.0,0.0,0.0,0.0,0.0,0.0,0.0,0.0,0.0,0.0,0.0,0.0,0.0,0.0,0.0,0.0,0.0,0.0,0.0,0.0,0.0,0.0,0.0,0.0,0.0,0.0,0.0,0.0,0.0,0.0,0.0,0.0,2.4863,2.4886,0.0,0.0,0.0,0.0,0.0,0.0,0.0,0.0,2.6723,0.0,0.0,0.0,0.0,0.0,0.0,0.0,0.0,0.0,0.0,0.0,0.0,0.0,0.0,0.0,0.0,0.0,0.0,0.0,0.0,0.0,0.0,0.0,0.0,0.0,0.0,0.0,0.0,0.0,0.0,0.0,0.0,0.0,0.0,0.0,0.0,0.0,0.0,0.0,0.0,0.0,0.0,0.0,0.0,0.0,0.0,0.0,0.0,0.0,0.0,0.0,0.0,0.0,0.0,0.0,2.9419,3.0846,3.1667,3.1833,3.1696,3.1382,3.0959,2.9082,2.7558,0.0,0.0,0.0,0.0,0.0,0.0,0.0,0.0,0.0,0.0,0.0,0.0,0.0,0.0,0.0,0.0,0.0,0.0,0.0,0.0,0.0,0.0,0.0,0.0,0.0,0.0,0.0,0.0,0.0,0.0,0.0,0.0,0.0,0.0,0.0,0.0,0.0,0.0,0.0,0.0,2.5331,2.5415,2.5822,0.0,0.0,0.0,0.0,0.0,0.0,2.6977,2.6861,0.0,0.0,0.0,0.0,0.0,0.0,0.0,0.0,0.0,0.0,0.0,0.0,0.0,0.0,0.0,0.0,0.0,0.0,0.0,0.0,0.0,0.0,0.0,0.0,0.0,0.0,0.0,0.0,0.0,0.0,0.0,0.0,0.0,0.0,0.0,0.0,0.0,0.0,0.0,0.0,0.0,0.0,0.0,0.0,0.0,0.0,0.0,0.0,0.0,0.0,0.0,0.0,0.0,0.0,0.0,2.9592,3.0788,3.1479,3.1635,3.1411,3.1038,3.0468,2.88,2.7236,0.0,0.0,0.0,0.0,0.0,0.0,0.0,0.0,0.0,0.0,0.0,0.0,0.0,0.0,0.0,0.0,0.0,0.0,0.0,0.0,0.0,0.0,0.0,0.0,0.0,0.0,0.0,0.0,0.0,0.0,0.0,0.0,0.0,0.0,0.0,0.0,0.0,0.0,0.0,0.0,0.0,2.6015,2.6532,2.6649,0.0,0.0,0.0,0.0,2.7101,2.7101,0.0,0.0,0.0,0.0,0.0,0.0,0.0,0.0,0.0,0.0,0.0,0.0,0.0,0.0,0.0,0.0,0.0,0.0,0.0,0.0,0.0,0.0,0.0,0.0,0.0,0.0,0.0,0.0,0.0,0.0,0.0,0.0,0.0,0.0,0.0,0.0,0.0,0.0,0.0,0.0,0.0,0.0,0.0,0.0,0.0,0.0,0.0,0.0,0.0,0.0,0.0,0.0,0.0,0.0,0.0,0.0,2.9248,3.0681,3.1402,3.1416,3.1067,3.061,3.0067,2.8151,2.6579,0.0,0.0,0.0,0.0,0.0,0.0,0.0,0.0,0.0,0.0,0.0,0.0,0.0,0.0,0.0,0.0,0.0,0.0,0.0,0.0,0.0,0.0,0.0,0.0,0.0,0.0,0.0,0.0,0.0,0.0,0.0,0.0,0.0,0.0,0.0,0.0,0.0,0.0,0.0,0.0,0.0,2.6248,2.6329,2.6259,2.6451,0.0,0.0,2.745,2.7958,2.8153,0.0,0.0,0.0,0.0,0.0,0.0,0.0,0.0,0.0,0.0,0.0,0.0,0.0,0.0,0.0,0.0,0.0,0.0,0.0,0.0,0.0,0.0,0.0,0.0,0.0,0.0,0.0,0.0,0.0,0.0,0.0,0.0,0.0,0.0,0.0,0.0,0.0,0.0,0.0,0.0,0.0,0.0,0.0,0.0,0.0,0.0,0.0,0.0,0.0,0.0,0.0,0.0,0.0,0.0,0.0,2.8481,2.8918,3.0517,3.1143,3.062,3.0733,3.0212,2.9057,2.7607,2.6198,0.0,0.0,0.0,0.0,0.0,0.0,0.0,0.0,0.0,0.0,0.0,0.0,0.0,0.0,0.0,0.0,0.0,0.0,0.0,0.0,0.0,0.0,0.0,0.0,0.0,0.0,0.0,0.0,0.0,0.0,0.0,0.0,0.0,0.0,0.0,0.0,0.0,0.0,0.0,0.0,0.0,0.0,2.7203,2.7528,0.0,0.0,0.0,2.8783,2.8697,0.0,0.0,0.0,0.0,0.0,0.0,0.0,0.0,0.0,0.0,0.0,0.0,0.0,0.0,0.0,0.0,0.0,0.0,0.0,0.0,0.0,0.0,0.0,0.0,0.0,0.0,0.0,0.0,0.0,0.0,0.0,0.0,0.0,0.0,0.0,0.0,0.0,0.0,0.0,0.0,0.0,0.0,0.0,0.0,0.0,0.0,0.0,0.0,0.0,0.0,0.0,0.0,0.0,0.0,0.0,0.0,0.0,2.8497,3.0116,3.0564,2.987,3.0114,2.9561,2.8095,2.6938,0.0,0.0,0.0,0.0,0.0,0.0,0.0,0.0,0.0,0.0,0.0,0.0,0.0,0.0,0.0,0.0,0.0,0.0,0.0,0.0,0.0,0.0,0.0,0.0,0.0,0.0,0.0,2.1283,0.0,0.0,0.0,0.0,0.0,0.0,0.0,0.0,0.0,0.0,0.0,0.0,0.0,0.0,2.7783,2.8164,2.8763,2.9148,0.0,0.0,2.9735,2.9221,2.9035,2.8839,0.0,0.0,0.0,0.0,0.0,0.0,0.0,0.0,0.0,0.0,0.0,0.0,0.0,0.0,0.0,0.0,0.0,0.0,0.0,0.0,0.0,0.0,0.0,0.0,0.0,0.0,0.0,0.0,0.0,0.0,0.0,0.0,0.0,0.0,0.0,0.0,0.0,0.0,0.0,0.0,0.0,0.0,0.0,0.0,0.0,0.0,0.0,0.0,0.0,0.0,0.0,0.0,0.0,0.0,0.0,2.8165,2.917,2.9602,2.9333,2.9011,2.841,2.7476,2.6122,2.503,0.0,0.0,0.0,0.0,0.0,0.0,0.0,0.0,0.0,0.0,0.0,0.0,0.0,0.0,0.0,0.0,0.0,0.0,0.0,0.0,0.0,0.0,0.0,0.0,0.0,0.0,0.0,0.0,0.0,0.0,0.0,0.0,0.0,0.0,0.0,0.0,0.0,0.0,0.0,0.0,0.0,2.8831,2.8746,2.9218,2.9545,0.0,0.0,2.9619,2.9575,2.9155,2.8832,2.8918,0.0,0.0,0.0,0.0,0.0,0.0,0.0,0.0,0.0,0.0,0.0,0.0,0.0,0.0,0.0,0.0,0.0,0.0,0.0,0.0,0.0,0.0,0.0,0.0,0.0,0.0,0.0,0.0,0.0,0.0,0.0,0.0,0.0,0.0,0.0,0.0,0.0,0.0,0.0,0.0,0.0,0.0,0.0,0.0,0.0,0.0,0.0,0.0,0.0,0.0,0.0,0.0,0.0,2.8142,2.7693,2.8811,2.9083,2.8451,2.8285,2.7726,2.675,2.5415,2.4489,0.0,0.0,0.0,0.0,0.0,0.0,0.0,0.0,0.0,0.0,0.0,0.0,0.0,0.0,0.0,0.0,0.0,0.0,0.0,0.0,0.0,0.0,0.0,0.0,0.0,0.0,0.0,0.0,2.2471,2.3041,2.4029,0.0,0.0,0.0,0.0,0.0,0.0,0.0,0.0,0.0,0.0,2.8818,2.9076,2.9582,0.0,0.0,3.0396,3.0513,3.0223,3.0008,2.9786,2.9637,2.9584,0.0,0.0,0.0,0.0,0.0,0.0,0.0,0.0,0.0,0.0,0.0,0.0,0.0,0.0,0.0,0.0,0.0,0.0,0.0,0.0,0.0,0.0,0.0,0.0,0.0,0.0,0.0,0.0,0.0,0.0,0.0,0.0,0.0,0.0,0.0,0.0,0.0,0.0,0.0,0.0,0.0,0.0,0.0,0.0,0.0,0.0,0.0,0.0,0.0,0.0,0.0,0.0,2.798,2.7267,2.8247,2.8417,2.7719,2.7472,2.6939,2.6115,2.4855,2.412,0.0,0.0,0.0,0.0,0.0,0.0,0.0,0.0,0.0,0.0,0.0,0.0,0.0,0.0,0.0,0.0,0.0,0.0,0.0,0.0,0.0,0.0,0.0,0.0,0.0,0.0,0.0,0.0,2.3247,2.3942,2.4825,0.0,0.0,0.0,0.0,0.0,0.0,0.0,0.0,0.0,0.0,2.9204,2.9502,3.0039,3.0438,3.0566,3.0995,3.1187,3.0839,3.0628,3.0426,3.0236,0.0,0.0,0.0,0.0,0.0,0.0,0.0,0.0,0.0,0.0,0.0,0.0,0.0,0.0,0.0,0.0,0.0,0.0,0.0,0.0,0.0,0.0,0.0,0.0,0.0,0.0,0.0,0.0,0.0,0.0,2.3014,0.0,0.0,0.0,0.0,0.0,0.0,0.0,0.0,0.0,0.0,0.0,0.0,0.0,0.0,0.0,0.0,0.0,0.0,0.0,0.0,0.0,0.0,2.7453,2.694,2.7364,2.7452,2.7226,2.6522,2.602,2.5693,2.4531,2.3932,2.3968,0.0,0.0,0.0,0.0,0.0,0.0,0.0,0.0,0.0,0.0,0.0,0.0,0.0,0.0,0.0,0.0,0.0,0.0,0.0,0.0,0.0,0.0,0.0,0.0,0.0,0.0,2.4268,2.4811,2.5111,0.0,0.0,0.0,0.0,0.0,0.0,0.0,0.0,0.0,0.0,2.963,3.0368,3.0128,3.066,3.1073,3.1233,3.1292,3.1336,3.1422,3.0927,3.0534,0.0,0.0,0.0,0.0,0.0,0.0,0.0,0.0,0.0,0.0,0.0,0.0,0.0,0.0,0.0,0.0,0.0,0.0,0.0,0.0,0.0,0.0,0.0,0.0,0.0,0.0,0.0,2.1437,2.1711,0.0,0.0,0.0,0.0,0.0,0.0,0.0,0.0,0.0,0.0,0.0,2.4791,2.5175,0.0,0.0,0.0,0.0,0.0,0.0,0.0,0.0,0.0,0.0,0.0,0.0,2.7187,2.6978,2.7182,2.7124,2.6796,2.6044,2.5662,2.5673,2.4223,2.3328,2.3161,0.0,0.0,0.0,0.0,0.0,0.0,0.0,0.0,0.0,0.0,0.0,0.0,0.0,0.0,0.0,0.0,0.0,0.0,0.0,0.0,0.0,0.0,0.0,0.0,0.0,2.4658,0.0,0.0,0.0,0.0,0.0,0.0,0.0,0.0,0.0,0.0,0.0,2.9318,2.964,2.9904,3.0175,3.0514,3.0675,3.088,0.0,0.0,0.0,0.0,0.0,0.0,0.0,0.0,0.0,0.0,0.0,0.0,0.0,0.0,3.2868,3.2152,3.2024,3.2024,3.2024,0.0,0.0,0.0,0.0,0.0,0.0,0.0,0.0,0.0,0.0,0.0,0.0,0.0,0.0,0.0,0.0,2.1882,0.0,0.0,0.0,0.0,0.0,0.0,0.0,0.0,2.4937,2.4941,2.5333,2.5763,2.597,0.0,2.6092,2.6169,0.0,0.0,0.0,0.0,0.0,0.0,0.0,0.0,2.6898,2.6806,2.6831,2.6777,2.659,2.5746,2.5402,2.565,2.4255,2.3311,2.2969,2.281,2.2643,0.0,0.0,0.0,0.0,0.0,0.0,0.0,0.0,0.0,0.0,0.0,0.0,0.0,0.0,0.0,0.0,0.0,0.0,0.0,0.0,0.0,0.0,0.0,2.511,0.0,0.0,0.0,0.0,0.0,0.0,0.0,0.0,0.0,2.868,2.9203,2.9697,3.0068,3.0147,3.0309,3.0659,0.0,0.0,0.0,0.0,0.0,0.0,0.0,3.1539,3.1669,3.2023,3.242,3.3003,3.3401,3.3709,3.3846,0.0,0.0,3.271,3.2506,3.2551,3.2506,3.2761,3.3157,3.3692,3.4071,3.4488,0.0,0.0,0.0,0.0,0.0,0.0,0.0,0.0,2.027,2.0842,0.0,2.1804,0.0,0.0,0.0,0.0,0.0,2.4378,0.0,0.0,2.5502,2.5834,2.6721,2.7013,2.7168,2.7173,2.7125,2.7125,2.7089,2.6109,0.0,0.0,0.0,0.0,0.0,0.0,2.6609,2.6414,2.6283,2.6302,2.6528,2.5567,2.5247,2.5601,2.4582,2.3839,2.3501,2.3243,2.2904,2.2535,2.2513,0.0,0.0,0.0,0.0,0.0,0.0,0.0,0.0,0.0,0.0,0.0,0.0,0.0,0.0,0.0,0.0,0.0,0.0,0.0,0.0,2.5006,0.0,0.0,0.0,0.0,0.0,0.0,0.0,0.0,0.0,0.0,2.9151,2.9719,3.0029,2.9842,0.0,0.0,0.0,0.0,3.079,3.1117,3.1176,3.1279,3.1542,3.1556,3.16,3.16,0.0,0.0,3.4188,3.4531,3.4691,3.4849,3.4861,3.4642,3.3839,3.3706,3.3706,3.3751,3.4217,3.4723,3.4907,3.5313,3.5903,1.8116,0.0,0.0,0.0,0.0,2.1113,2.1372,2.1455,2.1766,2.2038,2.2325,2.2619,0.0,0.0,0.0,0.0,0.0,0.0,2.5355,2.6338,2.6144,2.6174,2.6434,2.6515,2.6572,2.6572,2.6553,2.6477,2.6263,2.5971,2.5981,2.6214,0.0,0.0,0.0,0.0,2.6353,2.6447,2.6297,2.6178,2.6115,2.5741,2.5386,2.501,2.4441,2.3936,2.3501,2.3228,2.3035,2.2904,2.2669,0.0,0.0,0.0,0.0,0.0,0.0,0.0,0.0,0.0,0.0,0.0,0.0,0.0,0.0,0.0,0.0,0.0,0.0,0.0,2.5371,2.5785,2.6064,0.0,0.0,0.0,0.0,0.0,0.0,0.0,0.0,0.0,2.9973,3.0103,3.0096,0.0,0.0,3.1155,3.1124,3.1593,3.2024,3.2226,0.0,0.0,0.0,3.2825,3.2946,3.2916,3.3186,3.3607,3.4147,3.4312,3.4445,3.4724,3.4751,3.4727,3.4624,3.4555,3.4555,3.46,3.4813,3.4995,3.5051,3.5389,3.5664,1.8416,1.8976,1.9568,2.0165,2.0733,2.1241,2.1555,2.1711,2.1936,2.2126,2.228,2.2531,2.2724,2.2832,2.3557,0.0,0.0,0.0,2.5873,2.6937,2.6741,2.6873,2.7245,2.7305,2.7329,2.7249,2.7272,2.7068,2.6705,2.6623,2.654,2.6495,0.0,0.0,2.6189,2.595,2.595,2.607,2.5905,2.5843,2.5905,2.5797,2.5508,2.5011,2.4376,2.3904,2.37,2.3198,2.2939,2.2939,2.2705,2.2504,0.0,0.0,0.0,0.0,0.0,0.0,0.0,0.0,0.0,0.0,0.0,2.4176,2.4267,0.0,0.0,0.0,2.5032,2.5536,2.5658,2.6147,0.0,0.0,0.0,0.0,0.0,0.0,0.0,2.854,2.8789,2.9236,3.0065,3.0243,3.0411,3.0697,3.1184,3.1569,3.1648,0.0,3.2465,3.2674,3.2864,3.3036,3.3191,3.3377,3.359,3.3844,3.3983,3.4303,3.482,3.4958,3.5094,3.532,3.5426,3.5424,3.5514,3.5528,3.537,3.5019,3.5185,3.5401,3.5447,3.578,3.6113,1.8505,1.9124,1.9481,1.9967,2.0506,2.0785,2.1075,2.1353,2.1393,2.1601,2.1976,2.2111,2.2281,2.2557,2.3658,0.0,2.5943,2.583,2.6398,2.7525,2.7366,2.7744,2.8634,2.883,2.8831,2.8615,2.8617,2.8334,2.781,2.7591,2.7127,2.6395,2.5909,2.5582,2.5441,2.5504,2.5508,2.5486,2.5317,2.5444,2.5864,2.5726,2.562,2.5484,2.432,2.3786,2.3944,2.3161,2.272,2.272,2.272,2.252,2.209,0.0,0.0,0.0,0.0,0.0,0.0,0.0,0.0,0.0,0.0,0.0,0.0,0.0,0.0,0.0,2.5361,0.0,2.5629,2.6138,0.0,0.0,0.0,2.7449,2.7575,2.8179,2.8574,2.8601,0.0,0.0,2.9721,0.0,3.0906,3.165,3.1853,3.2005,3.2184,3.2319,3.2481,3.2828,3.3024,3.3213,3.3427,3.363,3.3979,3.4503,3.4704,3.5041,3.5729,3.5993,3.6211,3.6337,3.6445,3.6414,3.6445,3.6353,3.6168,3.5185,3.5522,3.5942,3.5973,3.6439,3.6905,1.9439,1.9975,2.0561,2.0975,2.1329,2.2141,2.256,2.2677,2.3011,2.3244,2.3341,2.3535,2.3804,2.4171,2.4601,2.5346,2.6353,2.6334,2.6875,2.7864,2.7822,2.7913,2.816,2.8226,2.8226,2.8161,2.7942,2.7613,2.7149,2.6883,2.6303,2.5447,2.5298,2.54,2.5686,2.5702,2.5576,2.5286,2.5375,2.5573,2.5864,2.5405,2.5315,2.5643,2.4395,2.372,2.3746,2.3083,2.272,2.272,2.272,2.2647,2.2554,2.2559,0.0,0.0,0.0,0.0,0.0,0.0,0.0,0.0,0.0,2.4888,2.4915,0.0,2.5524,0.0,2.5535,2.5717,2.5682,2.6212,0.0,0.0,2.7095,2.7496,2.7528,2.8039,2.8364,2.8364,2.9028,2.9679,3.0157,3.0627,3.1188,3.1969,3.2197,3.2309,3.2359,3.3111,3.3679,3.3756,3.4122,3.4447,3.4499,3.4801,3.5024,3.525,3.5282,3.5439,3.5705,3.58,3.5879,3.6068,3.6116,3.6116,3.6132,3.6116,3.6056,3.5829,3.6076,3.6353,3.6384,3.6584,3.6925,1.9568,2.0262,2.0895,2.1408,2.1858,2.2431,2.2737,2.2859,2.3224,2.3385,2.3527,2.3848,2.4303,2.4934,2.5157,2.5848,2.6837,2.6988,2.7496,2.8299,2.8321,2.8433,2.8656,2.8544,2.8455,2.8342,2.8133,2.7653,2.6911,2.6799,2.6215,2.5212,2.5212,2.5212,2.522,2.5145,2.4995,2.4704,2.494,2.5187,2.5443,2.4986,2.4993,2.5473,2.4252,2.3523,2.3471,2.2863,2.2461,2.2299,2.2259,2.2259,2.2259,2.2321,2.2405,0.0,0.0,0.0,0.0,0.0,0.0,0.0,0.0,0.0,0.0,0.0,2.5724,2.5465,2.5662,2.5765,2.5781,2.6231,2.649,2.6506,2.7113,2.7507,2.7507,2.8049,2.8419,2.8419,2.9061,2.9663,3.0103,3.0657,3.1196,3.1745,3.2081,3.2437,3.2785,3.3499,3.4037,3.4111,3.4568,3.4968,3.5146,3.5343,3.5489,3.5489,3.5489,3.5538,3.5672,3.5704,3.5752,3.5957,3.602,3.602,3.602,3.602,3.602,3.6021,3.6147,3.6258,3.6258,3.6565,3.6981,1.9445,2.0275,2.0923,2.1584,2.2227,2.2327,2.2464,2.2632,2.2919,2.3166,2.3454,2.3884,2.4533,2.5338,2.5594,2.6282,2.7303,2.7568,2.8033,2.8656,2.8633,2.8923,2.9347,2.9114,2.8902,2.8738,2.8575,2.7949,2.6971,2.6966,2.6384,2.5282,2.5189,2.4899,2.4387,2.4231,2.4132,2.4092,2.4296,2.4549,2.4807,2.4459,2.4561,2.5102,2.3968,2.3259,2.3102,2.2627,2.2183,2.1729,2.1698,2.1698,2.1698,2.18,2.1964,0.0,2.2423,0.0,0.0,0.0,0.0,0.0,0.0,0.0,0.0,2.5741,2.5645,2.5595,2.5764,2.592,2.592,2.6214,2.6454,2.6454,2.7077,2.7493,2.7518,2.8134,2.8591,2.8591,2.9156,2.9625,2.9881,3.0518,3.103,3.1291,3.1808,3.2381,3.3051,3.3525,3.3899,3.4042,3.4551,3.5017,3.5359,3.5473,3.5489,3.5489,3.5489,3.5554,3.5653,3.5655,3.572,3.5878,3.5924,3.591,3.5926,3.5926,3.5926,3.591,3.591,3.5988,3.6066,3.6538,3.6989,1.9912,2.0355,2.123,2.1849,2.2324,2.2904,2.3223,2.3361,2.3938,2.452,2.5067,2.5377,2.5681,2.605,2.6294,2.6725,2.7303,2.7599,2.7995,2.8453,2.8474,2.8518,2.8603,2.8497,2.8428,2.8374,2.8033,2.7648,2.7222,2.6582,2.5799,2.4812,2.4604,2.4187,2.363,0.0,0.0,0.0,2.3912,2.4007,2.4295,2.3824,2.3907,2.452,2.349,0.0,2.2713,2.2356,2.1999,2.1729,2.1698,0.0,0.0,0.0,0.0,0.0,0.0,0.0,0.0,0.0,0.0,0.0,2.5277,2.5306,2.5345,2.5364,2.5569,2.6012,2.5965,2.5919,2.5919,2.6336,2.6639,2.6663,2.7168,2.7508,2.7533,2.8164,2.86,2.86,2.9404,2.9986,3.0063,3.045,3.0804,3.103,3.1577,3.2082,3.2507,3.321,3.3727,3.3951,3.4517,3.5034,3.5424,3.5489,3.5489,3.5489,3.5489,3.5506,3.5538,3.5554,3.5554,3.5603,3.5587,3.5587,3.5603,3.5587,3.5619,3.5617,3.5587,3.5667,3.5956,3.655,3.7171,2.0006,0.0,2.1281,2.1938,0.0,2.2977,2.3393,2.3789,2.4388,2.4899,2.5328,2.5599,2.5883,2.6227,2.6615,2.7049,2.7448,2.7727,2.7971,2.8186,2.8209,2.8338,2.8526,2.8256,2.8146,2.8177,2.7849,2.7264,2.6506,2.6199,2.5474,2.4306,2.4153,2.3822,2.3231,2.3206,2.3284,2.3458,2.3393,2.3443,2.3647,2.3288,2.3365,2.3864,0.0,0.0,0.0,0.0,0.0,0.0,0.0,0.0,0.0,0.0,0.0,2.1802,2.243,2.2987,2.3447,2.3984,2.4498,2.5109,2.5158,2.5259,2.5536,2.5575,2.5711,2.6,2.5875,2.5868,2.6119,2.6292,2.6512,2.6779,2.7358,2.7751,2.78,2.8412,2.8862,2.9002,2.9443,2.9812,2.9953,3.0222,3.0489,3.0691,3.1216,3.1735,3.2155,3.298,3.3761,3.431,3.4635,3.5034,3.5392,3.5489,3.5489,3.5489,3.5489,3.5489,3.5489,3.5489,3.5489,3.5489,3.5489,3.5489,3.5489,3.5489,3.5489,3.5489,3.5489,3.5688,3.6154,3.6743,3.7389,1.9899,2.0735,2.119,2.1911,2.2744,2.291,2.3466,2.4185,0.0,0.0,0.0,2.5525,2.5843,2.6282,2.675,2.7168,2.7478,2.7786,2.7951,2.7927,2.8012,2.8243,2.8531,2.8163,2.8012,2.7975,2.7695,2.6977,2.5897,2.5913,2.526,2.4049,2.3893,2.3561,2.2972,2.293,2.2902,2.2857,2.295,2.2998,2.3066,2.2845,2.2941,2.3325,2.3054,2.2759,2.2486,2.2604,2.2506,2.2119,2.1739,2.1537,2.1531,2.1688,2.1855,2.2005,2.2575,2.3258,2.3879,2.4177,2.4518,2.4939,2.5058,2.5278,2.569,2.57,2.5725,2.5822,2.5699,2.5846,2.6396,2.6407,2.6574,2.6994,2.7647,2.8077,2.8125,2.8641,2.9106,2.9302,2.9399,2.9521,2.9779,2.9991,3.0184,3.0425,3.0917,3.1477,3.2028,3.2945,3.3882,3.4551,3.4802,3.5034,3.5343,3.5473,3.5489,3.5489,3.5489,3.5489,3.5489,3.5489,3.5489,3.5489,3.5489,3.5489,3.5489,3.5489,3.5489,3.5489,3.5609,3.5878,3.6507,3.7101,3.7682,1.9837,2.0031,2.1004,2.1683,2.2212,2.3045,2.3948,2.4762,2.497,2.5389,2.596,2.6008,2.6192,2.6488,2.6775,2.6959,2.7044,2.7452,2.7644,0.0,2.8064,2.8174,2.8039,2.8279,2.8147,2.7682,2.7511,2.7093,2.6471,2.5964,2.5173,2.4184,2.3851,2.3384,2.273,2.2678,2.2678,2.273,2.2857,2.2945,2.2998,2.27,2.2728,2.3103,2.2725,2.2442,2.2328,2.2378,2.228,2.2124,2.203,2.2007,2.2007,2.2024,2.2127,2.2338,2.2809,2.3263,2.3717,2.4207,2.4582,2.4837,2.5214,2.5279,2.4968,2.4963,2.5128,2.5512,2.5688,2.5999,2.6518,2.7105,2.7445,2.7589,2.8065,2.8442,2.8437,2.8644,2.891,2.9131,2.9282,2.9502,2.976,2.9972,3.0139,3.0406,3.0823,3.1421,3.2345,3.3157,3.3813,3.4349,3.4719,3.4968,3.5212,3.5392,3.5457,3.5489,3.5503,3.5489,3.5489,3.5489,3.5489,3.5489,3.5489,3.5489,3.5489,3.5489,3.5489,3.5519,3.5878,3.6493,3.7071,3.7608,3.802,1.9741,2.0194,2.085,2.1578,2.2328,2.3245,2.3926,2.4461,2.4665,2.5116,2.5654,2.597,2.6163,2.6304,2.6568,2.6757,2.6924,2.739,2.7662,2.78,2.811,2.8293,2.8409,2.8307,2.8061,2.775,2.7515,2.7016,2.6336,2.5898,2.5259,2.4401,2.3728,2.31,2.2662,2.2754,2.2825,2.2849,2.2821,2.2866,2.2979,2.2747,2.2806,2.3144,2.2673,2.2449,2.2544,2.253,2.2495,2.2436,2.2284,2.2205,2.2205,2.2306,2.2412,2.2517,2.3059,2.3492,2.3797,2.4365,2.4756,2.4853,2.5312,2.5525,2.5312,2.5494,2.5718,2.5911,2.6028,2.6335,2.6947,2.7353,2.7689,2.8094,2.8358,2.8498,2.8522,2.8558,2.8776,2.9052,2.9189,2.9385,2.9765,2.9876,3.0068,3.0368,3.0905,3.1624,3.2417,3.2952,3.3542,3.4276,3.4618,3.4819,3.5001,3.5228,3.5326,3.5343,3.5424,3.5473,3.5489,3.5489,3.5489,3.5489,3.5489,3.5489,3.5489,3.5489,3.5489,3.5549,3.6044,3.6669,3.719,3.7807,3.8296,1.9664,2.0291,2.0696,2.1471,2.2459,2.312,2.3587,2.3861,2.4257,2.4627,2.5088,2.5654,2.5897,2.5965,2.6379,2.6661,2.6935,2.7419,2.7746,2.7885,2.8141,2.8421,2.8669,2.8303,2.8074,2.7868,2.7557,2.6989,2.6254,2.5926,2.5403,2.4631,2.3757,2.3134,2.2779,2.298,2.3155,2.322,2.3086,2.3033,2.3058,2.2872,2.2897,2.3135,2.2798,2.2647,2.2795,2.2802,2.2754,2.2703,2.2563,2.2459,2.2477,2.2618,2.2705,2.2803,2.3241,2.3697,2.4067,2.4708,2.5077,2.51,2.5578,2.5857,2.5896,2.6263,2.6434,2.6359,2.6375,2.6701,2.7348,2.7565,2.783,2.841,2.8522,2.8522,2.8522,2.8522,2.8642,2.8973,2.9072,2.9268,2.9605,2.976,2.9972,3.0387,3.1048,3.1698,3.2255,3.2704,3.3339,3.4025,3.4496,3.4698,3.4835,3.5017,3.5129,3.5146,3.5245,3.531,3.5326,3.5343,3.5392,3.5375,3.5408,3.5441,3.5473,3.5489,3.5579,3.5759,3.6327,3.6901,3.7522,3.8035,3.8509,1.9679,1.9901,2.0575,2.1385,2.2131,2.2485,2.2769,2.3113,2.3811,2.4158,2.4332,2.502,2.5382,2.5488,2.6266,2.6715,2.6853,2.7487,2.7814,2.788,2.8258,2.8319,2.8185,2.8463,2.8349,2.7906,2.7557,2.7125,2.6554,2.62,2.555,2.4597,2.4102,2.3738,2.3384,2.3356,2.3562,2.3985,2.3998,2.3742,2.3294,2.3081,2.3055,2.3196,2.3158,2.3043,2.2859,2.2967,2.2964,2.2746,2.2886,2.2936,2.2936,2.2954,2.3047,2.3213,2.3316,2.3702,2.4562,2.5253,2.5627,2.565,2.6125,2.6424,2.6444,2.6835,2.6927,2.6662,2.6685,2.7049,2.778,2.7964,2.8164,2.8435,2.8522,2.8522,2.8522,2.8522,2.8598,2.8771,2.8993,2.9189,2.9443,2.9682,2.9972,3.0349,3.0955,3.1551,3.2055,3.2614,3.3164,3.3813,3.4208,3.4496,3.4698,3.4848,3.4918,3.4935,3.4951,3.5001,3.5017,3.5017,3.5001,3.5212,3.5261,3.531,3.5424,3.5519,3.5759,3.6221,3.6832,3.7553,3.8334,3.8513,3.8501,1.9558,1.9739,2.0034,2.0652,2.1369,2.1852,2.2283,2.2711,2.3013,2.3438,2.3935,2.4406,2.4867,2.5328,2.5999,2.6472,2.6854,2.7605,2.8053,2.8221,2.8487,2.8549,2.8437,2.8416,2.8274,2.7906,2.7745,2.7422,2.6854,2.6336,2.5666,2.4907,2.4473,2.416,2.3946,2.3845,2.3985,2.4332,2.448,2.4493,2.4349,2.4006,2.3867,2.3916,2.3585,2.3411,2.3451,2.3501,2.3316,2.3005,2.3229,2.3266,2.3023,2.3244,2.3457,2.3533,2.393,2.4342,2.4893,2.5561,2.6014,2.6171,2.6634,2.6932,2.6909,2.7096,2.721,2.7364,2.7174,2.7267,2.7841,2.7982,2.8143,2.8443,2.8522,2.8522,2.8522,2.8522,2.8578,2.8752,2.887,2.9047,2.936,2.9735,3.0068,3.0406,3.0917,3.144,3.1936,3.2453,3.297,3.3466,3.3865,3.4208,3.4479,3.4681,3.4781,3.4769,3.4835,3.4902,3.4885,3.4902,3.4951,3.5017,3.51,3.5212,3.5294,3.5813,3.6207,3.6683,3.7164,3.7878,3.8491,3.8464,3.8333,1.9402,1.9583,1.9687,2.0112,2.0822,2.1283,2.1751,2.2182,2.2392,2.2862,2.3481,2.3836,2.4356,2.5017,2.5716,2.6375,2.6974,2.7714,2.8179,2.8448,2.8562,2.8594,2.8568,2.8408,2.8201,2.804,2.7933,2.7611,2.7125,2.6691,2.6136,2.5594,2.5152,2.484,2.4644,2.451,2.4578,2.4849,2.5094,2.53,2.5381,2.4987,2.4675,2.4551,2.4017,2.3781,2.3971,2.4007,2.3827,2.3437,2.3727,2.3768,2.346,2.3725,2.3921,2.3984,2.4532,2.5017,2.5217,2.5901,2.6442,2.6806,2.719,2.7486,2.7578,2.7623,2.7782,2.8102,2.7851,2.7789,2.8119,2.8263,2.8468,2.8769,2.8871,2.8907,2.8763,2.8695,2.8751,2.8721,2.8771,2.8949,2.9341,2.9677,2.9966,3.0387,3.0823,3.1347,3.1817,3.23,3.2731,3.3238,3.3553,3.3882,3.423,3.4496,3.4597,3.4601,3.4685,3.4719,3.4752,3.4752,3.4819,3.4819,3.503,3.5327,3.5618,3.6151,3.6742,3.7046,3.7552,3.8123,3.8469,3.8352,3.824,1.9298,1.935,1.9595,2.0024,2.0539,2.0848,2.1104,2.1471,2.2156,2.2535,2.2736,2.3413,2.3911,2.4257,2.5502,2.6524,2.7167,2.767,2.8016,2.8276,2.8288,2.8327,2.8301,2.8301,2.8274,2.8228,2.804,2.7745,2.7395,2.7314,2.7133,2.6729,2.6269,2.5906,2.5585,2.5342,2.5382,2.5606,2.5873,2.6143,2.6308,2.5774,2.5282,2.4943,2.4432,2.4196,2.4221,2.4386,2.4377,2.4144,2.4344,2.4421,2.4399,2.4421,2.4463,2.4528,2.5102,2.5488,2.5636,2.6386,2.7062,2.7487,2.7792,2.8147,2.8448,2.8494,2.854,2.8654,2.8632,2.8693,2.8974,2.9092,2.9303,2.9537,2.9816,2.9704,2.9316,2.9268,2.9027,2.8727,2.8741,2.8949,2.9321,2.9399,2.9767,3.0235,3.0577,3.1018,3.1669,3.2055,3.2544,3.3043,3.3343,3.3518,3.3991,3.4281,3.4382,3.445,3.4484,3.445,3.4416,3.4416,3.4563,3.471,3.4936,3.5339,3.5937,3.6514,3.7101,3.7597,3.818,3.8605,3.8435,3.8315,3.8279,1.9122,1.9324,1.9583,1.9817,2.0024,2.0462,2.0796,2.1078,2.1522,2.203,2.251,2.2862,2.3354,2.4068,2.4796,2.5626,2.6586,2.726,2.7745,2.8014,2.804,2.8121,2.8301,2.8301,2.8301,2.8274,2.8201,2.7987,2.7718,2.7503,2.7446,2.7385,2.6799,2.6532,2.661,2.6123,2.5965,2.6183,2.6328,2.6472,2.6696,2.6405,2.6057,2.5714,2.5031,2.4638,2.4661,2.5019,2.5034,2.4599,2.4822,2.4832,2.4572,2.479,2.5097,2.5424,2.5903,2.6271,2.6462,2.7136,2.7751,2.8082,2.832,2.8517,2.8633,2.87,2.8838,2.9114,2.9206,2.943,2.9834,2.9679,2.9494,2.9685,2.9917,3.0083,2.989,2.9818,2.9605,2.914,2.8919,2.891,2.9199,2.9321,2.9613,3.012,3.0489,3.0913,3.1299,3.1798,3.24,3.2678,3.3051,3.3413,3.3709,3.4025,3.423,3.4349,3.4399,3.4399,3.4382,3.447,3.4571,3.475,3.4944,3.5587,3.6293,3.7245,3.7769,3.8198,3.8756,3.859,3.8371,3.8346,3.8492,1.9093,1.9309,1.948,1.9635,1.9739,2.0075,2.0462,2.0796,2.1078,2.1522,2.2055,2.2308,2.2816,2.3536,2.4122,2.4823,2.5722,2.6678,2.7341,2.7745,2.7853,2.8014,2.8147,2.8274,2.8301,2.8301,2.8301,2.8228,2.8167,2.7952,2.8006,2.8223,2.7422,2.719,2.7336,2.6743,2.6448,2.6592,2.6712,2.688,2.7057,2.6874,2.6687,2.6494,2.5909,2.5423,2.5147,2.5422,2.5482,2.5221,2.5322,2.5293,2.5011,2.5382,2.5775,2.6125,2.6562,2.6889,2.7062,2.7632,2.8139,2.8517,2.8802,2.8999,2.9137,2.9183,2.9389,2.9642,2.9734,3.0006,3.0345,3.0171,2.9989,3.0205,3.0441,3.054,3.0374,3.035,3.0107,2.9649,2.9414,2.9355,2.9507,2.9731,3.0094,3.0464,3.0874,3.1222,3.1567,3.2091,3.257,3.2645,3.3081,3.3373,3.3585,3.383,3.4134,3.4254,3.447,3.447,3.4528,3.4603,3.4748,3.4869,3.5297,3.5972,3.6815,3.7818,3.8359,3.8704,3.8675,3.8509,3.8439,3.8453,3.8754,1.9283,1.9298,1.9298,1.948,1.9646,1.9739,2.0024,2.0462,2.0771,2.1104,2.1462,2.1852,2.2224,2.2681,2.3548,2.4219,2.4756,2.59,2.6799,2.7341,2.7718,2.7879,2.796,2.8174,2.8327,2.8327,2.8327,2.8461,2.8648,2.8648,2.8754,2.8886,2.8204,2.7808,2.7804,2.7264,2.6917,2.6948,2.7119,2.7357,2.7508,2.7243,2.7131,2.7211,2.7032,2.6519,2.5678,2.5699,2.5805,2.593,2.5929,2.5928,2.5972,2.63,2.6584,2.6649,2.7042,2.7304,2.7392,2.7833,2.841,2.8813,2.9238,2.9642,2.9918,3.0032,3.0078,3.0124,3.0147,3.0283,3.06,3.0755,3.0931,3.1248,3.1348,3.131,3.1021,3.0877,3.0684,3.0227,3.0007,3.0142,3.0354,3.0482,3.0737,3.1149,3.1599,3.1974,3.2273,3.2736,3.3089,3.3146,3.3403,3.3761,3.3712,3.3679,3.3922,3.4192,3.4454,3.4603,3.4835,3.4968,3.5299,3.5508,3.6085,3.6746,3.7517,3.8412,3.8583,3.8815,3.8649,3.857,3.8635,3.8754,3.9131,1.9093,1.9298,1.9298,1.935,1.9454,1.9609,1.9817,1.9998,2.0437,2.0771,2.1078,2.1394,2.17,2.2095,2.2835,2.3463,2.4008,2.4936,2.5881,2.6799,2.7341,2.7691,2.7906,2.8174,2.8408,2.8541,2.8568,2.8727,2.894,2.8993,2.9132,2.9248,2.8853,2.8482,2.8287,2.7856,2.7472,2.7232,2.7262,2.7404,2.7594,2.7683,2.7659,2.7592,2.7646,2.739,2.6824,2.6759,2.6802,2.6867,2.6846,2.6846,2.6868,2.6998,2.7064,2.7129,2.7522,2.7874,2.812,2.8633,2.915,2.9512,2.9806,3.001,3.017,3.0216,3.0216,3.0216,3.0216,3.0374,3.0781,3.0962,3.1072,3.1296,3.1538,3.1645,3.1428,3.1117,3.0853,3.066,3.0347,3.0239,3.0403,3.0657,3.098,3.1265,3.165,3.2056,3.2332,3.2948,3.3223,3.3396,3.3818,3.4214,3.4213,3.4387,3.4732,3.4875,3.4952,3.5067,3.5229,3.5578,3.5897,3.6328,3.689,3.7479,3.8284,3.8663,3.8774,3.8808,3.8689,3.8737,3.8869,3.9189,3.9654,1.8906,1.9122,1.9254,1.9298,1.9324,1.948,1.9595,1.9739,2.005,2.0359,2.0642,2.0899,2.1139,2.1508,2.2169,2.2789,2.3398,2.4234,2.5153,2.6109,2.6935,2.7395,2.7745,2.814,2.8434,2.8648,2.8674,2.8913,2.929,2.929,2.9448,2.9624,2.9281,2.888,2.8582,2.8127,2.7717,2.7372,2.7381,2.7523,2.7739,2.7998,2.815,2.8123,2.824,2.8133,2.7872,2.785,2.7676,2.7392,2.7326,2.7326,2.7326,2.7435,2.7566,2.7653,2.8003,2.8379,2.8696,2.9147,2.9623,2.9874,3.0102,3.0193,3.0216,3.0216,3.0216,3.0216,3.0216,3.0443,3.0894,3.1006,3.1141,3.1429,3.1582,3.1717,3.1623,3.1406,3.1214,3.1117,3.0946,3.0818,3.0986,3.1219,3.1452,3.1704,3.2118,3.2469,3.2777,3.3378,3.3688,3.4029,3.4426,3.468,3.4732,3.5086,3.5581,3.5644,3.5639,3.5693,3.5764,3.6286,3.6693,3.7154,3.7671,3.796,3.8631,3.8616,3.8668,3.8671,3.8818,3.8925,3.916,3.9799,4.0292,1.8745,1.8833,1.9151,1.9268,1.9298,1.9298,1.9454,1.9646,1.9739,1.9905,2.0112,2.0411,2.0642,2.0978,2.1547,2.2168,2.2825,2.3685,2.4538,2.5365,2.63,2.705,2.7611,2.8121,2.8514,2.8727,2.8781,2.9099,2.9606,2.9606,2.9758,2.988,2.9549,2.9079,2.8624,2.8148,2.7783,2.7443,2.7499,2.7712,2.7998,2.8254,2.849,2.8702,2.8725,2.8727,2.8661,2.8639,2.8288,2.7545,2.7523,2.7545,2.75,2.7828,2.8023,2.8068,2.8506,2.8821,2.9095,2.9325,2.9646,2.992,3.0102,3.0216,3.0216,3.0216,3.0216,3.0216,3.0238,3.0442,3.0894,3.1029,3.1229,3.1629,3.1761,3.1761,3.1739,3.1713,3.1731,3.1733,3.1737,3.1779,3.1901,3.2119,3.2361,3.2617,3.3038,3.3326,3.3621,3.397,3.455,3.4848,3.5053,3.5372,3.5532,3.5939,3.6425,3.6581,3.6533,3.6505,3.6489,3.6925,3.736,3.7822,3.8111,3.845,3.8649,3.8594,3.8777,3.8999,3.9132,3.9217,3.9654,4.035,4.0815,1.835,1.8789,1.8917,1.9078,1.9257,1.9298,1.935,1.9428,1.9635,1.9724,1.9853,2.0086,2.0241,2.0375,2.0945,2.1454,2.2026,2.2782,2.382,2.4831,2.5586,2.6809,2.7895,2.8408,2.8727,2.8973,2.9185,2.9548,2.9889,2.9889,2.9916,2.9994,2.9849,2.9373,2.8711,2.8458,2.8105,2.7604,2.757,2.7831,2.8231,2.8348,2.8535,2.8791,2.8814,2.8814,2.8814,2.8814,2.8727,2.8486,2.8398,2.8398,2.8354,2.8485,2.8528,2.8572,2.8705,2.9,2.9324,2.9462,2.9714,3.0057,3.0239,3.0216,3.0216,3.0216,3.0216,3.0238,3.0374,3.06,3.0962,3.1139,3.1451,3.1805,3.1937,3.1937,3.1959,3.2091,3.2201,3.2201,3.2179,3.2201,3.231,3.2463,3.2658,3.2831,3.3172,3.3598,3.3915,3.433,3.4797,3.5319,3.5645,3.6085,3.6459,3.6873,3.7215,3.748,3.7504,3.744,3.7389,3.7506,3.7825,3.8163,3.8153,3.8379,3.8519,3.8567,3.8884,3.9341,3.9466,3.9586,4.0292,4.0989,4.1279,1.8018,1.8408,1.8672,1.8891,1.9107,1.9239,1.9298,1.9324,1.9454,1.9532,1.9609,1.9802,1.9931,2.0013,2.0519,2.095,2.137,2.2195,2.3207,2.4331,2.5583,2.6883,2.7963,2.8488,2.886,2.9105,2.9448,2.9732,2.9942,2.9994,2.9994,2.9994,2.9994,2.9518,2.8644,2.8562,2.825,2.7762,2.7691,2.7996,2.8371,2.8511,2.8628,2.8791,2.8814,2.8814,2.8814,2.8814,2.8814,2.8792,2.8792,2.8814,2.8814,2.8814,2.8814,2.8814,2.8814,2.9089,2.9684,2.9845,3.0167,3.0651,3.0721,3.056,3.0514,3.0376,3.0216,3.0238,3.0442,3.069,3.0983,3.134,3.1695,3.1959,3.2179,3.2266,3.2157,3.2291,3.24,3.24,3.2422,3.2509,3.2615,3.2788,3.2939,3.315,3.3492,3.3789,3.4063,3.4543,3.5098,3.5669,3.6108,3.6496,3.6844,3.7242,3.7482,3.7805,3.7946,3.797,3.797,3.7941,3.8086,3.8231,3.8231,3.8346,3.8671,3.895,3.9253,3.9614,3.9761,4.0187,4.0864,4.1366,4.1686,1.7755,1.7867,1.8427,1.873,1.8833,1.9122,1.9254,1.9298,1.9298,1.9324,1.9376,1.9558,1.9646,1.9698,2.0225,2.0633,2.0961,2.1814,2.2845,2.4149,2.5658,2.7165,2.7786,2.8528,2.892,2.9211,2.9501,2.9758,2.9942,2.9994,2.9994,2.9994,2.9994,2.9497,2.8794,2.8632,2.8303,2.7857,2.7927,2.8207,2.8465,2.8651,2.8768,2.8791,2.8814,2.8814,2.8814,2.8814,2.8814,2.8814,2.8814,2.8814,2.8814,2.8814,2.888,2.8924,2.9013,2.9354,3.0154,3.0384,3.0754,3.1384,3.1272,3.1065,3.1019,3.0767,3.056,3.0583,3.0627,3.106,3.1326,3.1769,3.1981,3.2157,3.2506,3.2615,3.255,3.2484,3.2531,3.2553,3.2574,3.2745,3.3007,3.3248,3.3405,3.3909,3.4259,3.4701,3.5041,3.5531,3.5921,3.6232,3.6598,3.6853,3.7184,3.7536,3.7739,3.7958,3.8071,3.8115,3.8115,3.8144,3.8231,3.8347,3.8551,3.8936,3.9438,3.9672,3.9799,4.013,4.0498,4.0846,4.125,4.1628,4.1976,1.7565,1.7799,1.7945,1.8321,1.876,1.8862,1.9063,1.9283,1.9298,1.9298,1.9298,1.935,1.9376,1.9428,1.9946,2.0235,2.0493,2.1454,2.257,2.411,2.5892,2.6948,2.7607,2.8476,2.9158,2.9475,2.9764,2.9942,2.9994,2.9994,2.9994,2.9994,2.9953,2.9539,2.8752,2.8761,2.8589,2.8073,2.8162,2.8418,2.8651,2.8768,2.8814,2.8814,2.8814,2.8814,2.8814,2.8814,2.8814,2.8814,2.8858,2.8924,2.888,2.8858,2.9011,2.9272,2.9359,2.9794,3.0623,3.0902,3.1116,3.1752,3.1755,3.164,3.164,3.1502,3.141,3.1527,3.1833,3.2039,3.2301,3.2113,3.2328,3.2611,3.2913,3.3122,3.3179,3.3176,3.3193,3.3351,3.3415,3.3475,3.3632,3.413,3.4409,3.4719,3.5188,3.5743,3.613,3.6475,3.6772,3.703,3.7399,3.7713,3.7983,3.8252,3.8418,3.8525,3.8543,3.858,3.858,3.8492,3.8667,3.8841,3.9015,3.9479,4.0013,4.012,4.0177,4.0682,4.1188,4.1369,4.1628,4.1976,4.2092,1.7404,1.758,1.775,1.8013,1.835,1.8682,1.8917,1.9078,1.9239,1.9298,1.9298,1.9298,1.9298,1.9324,1.9828,2.0112,2.0447,2.1496,2.2758,2.414,2.5711,2.6824,2.7629,2.8522,2.929,2.958,2.9863,2.9994,2.9994,2.9994,2.9994,2.9994,2.9994,2.9497,2.8777,2.8877,2.8621,2.8166,2.8256,2.8535,2.8768,2.8814,2.8814,2.8814,2.8814,2.8814,2.8814,2.9055,2.9119,2.9163,2.9316,2.9338,2.9163,2.9141,2.9359,2.9729,2.9838,3.0323,3.1067,3.1394,3.1679,3.2419,3.2283,3.2146,3.2054,3.1939,3.1801,3.1897,3.2206,3.2651,3.308,3.3135,3.314,3.3427,3.3803,3.411,3.4183,3.3891,3.3705,3.4007,3.4225,3.4555,3.4848,3.5167,3.5535,3.5942,3.6204,3.6689,3.6844,3.7193,3.7605,3.7931,3.8324,3.8636,3.8874,3.9097,3.9255,3.9334,3.9383,3.9392,3.9392,3.9276,3.9189,3.9334,3.9509,3.9993,4.0449,4.0515,4.0777,4.134,4.1718,4.1822,4.1918,4.2034,4.2092,1.7302,1.7331,1.7609,1.7741,1.7872,1.8394,1.8686,1.8847,1.9081,1.9224,1.9298,1.9298,1.9324,1.948,1.9879,2.0138,2.0755,2.17,2.3002,2.3962,2.5391,2.6474,2.7434,2.8362,2.9155,2.953,2.9848,2.9994,2.9994,2.9994,2.9994,2.9994,2.9994,2.9549,2.8915,2.8885,2.876,2.8241,2.8371,2.8581,2.8746,2.8814,2.8836,2.8967,2.8989,2.9053,2.9185,2.9425,2.9622,2.9644,2.9991,2.9991,2.9816,2.9642,2.9816,3.0275,3.0319,3.083,3.1605,3.1887,3.2219,3.3197,3.2904,3.2627,3.2559,3.2375,3.2237,3.2245,3.2532,3.2983,3.3613,3.3717,3.3993,3.4311,3.4768,3.5153,3.5175,3.4546,3.4504,3.4857,3.5154,3.5483,3.5965,3.638,3.6767,3.7107,3.7349,3.7611,3.7797,3.8112,3.8615,3.8999,3.9431,3.9538,3.9759,3.9609,3.9817,3.9914,4.0002,4.0002,4.006,4.006,3.9944,3.9857,4.006,4.0593,4.102,4.1233,4.1552,4.2046,4.2084,4.2005,4.2034,4.2092,4.2092,1.7302,1.7317,1.7361,1.7536,1.7784,1.7916,1.8306,1.8745,1.8858,1.9063,1.9268,1.9298,1.948,1.9687,1.9931,2.055,2.1343,2.2198,2.2889,2.3702,2.5012,2.6142,2.6847,2.8015,2.8848,2.9358,2.9746,2.9932,2.9994,2.9994,2.9994,2.9994,3.002,2.9621,2.9203,2.9158,2.8979,2.8406,2.8558,2.8745,2.8857,2.8946,2.9075,2.9338,2.9381,2.9532,2.9838,3.0013,3.01,3.01,3.0141,3.0384,3.0493,3.0297,3.0384,3.0668,3.0777,3.1246,3.2076,3.2336,3.2655,3.3122,3.318,3.3134,3.3086,3.3065,3.2906,3.3032,3.3116,3.3458,3.4145,3.4206,3.4165,3.4413,3.4874,3.528,3.5405,3.5499,3.5604,3.6096,3.6245,3.6467,3.7028,3.7513,3.7859,3.8233,3.858,3.8878,3.9149,3.9495,3.9919,4.0265,4.0562,4.058,4.0629,4.0276,4.0185,4.0331,4.0379,4.0379,4.0495,4.0728,4.0757,4.067,4.0826,4.1215,4.1564,4.1846,4.2033,4.2248,4.2195,4.2092,4.2092,4.2092,4.2179,1.7302,1.7302,1.7302,1.739,1.7574,1.7726,1.7984,1.8331,1.8779,1.9091,1.9305,1.9572,1.9776,1.9957,2.0205,2.0832,2.1649,2.2257,2.2837,2.3602,2.4864,2.5892,2.6436,2.7616,2.8533,2.9162,2.9559,2.9808,2.9973,2.9994,2.9994,3.0047,3.013,2.9801,2.9287,2.9377,2.9131,2.8679,2.8673,2.8922,2.9163,2.9359,2.9642,2.9773,2.9884,2.9991,3.0163,3.0493,3.0559,3.0624,3.0796,3.1014,3.1102,3.108,3.0993,3.1189,3.1258,3.1598,3.2322,3.2519,3.2745,3.3195,3.3292,3.3292,3.3292,3.3271,3.3417,3.3646,3.3749,3.4004,3.4702,3.4625,3.4811,3.5138,3.5508,3.5782,3.6057,3.6402,3.6779,3.7121,3.7166,3.7439,3.8182,3.8617,3.894,3.9344,3.9699,4.0,4.03,4.0516,4.0759,4.0965,4.1149,4.1279,4.1254,4.105,4.0786,4.0844,4.0873,4.0902,4.1018,4.1308,4.1512,4.1541,4.1776,4.1829,4.1977,4.2193,4.2293,4.2372,4.231,4.2257,4.2133,4.2121,4.2266,1.7349,1.7302,1.7349,1.7372,1.7416,1.7722,1.7932,1.8104,1.8745,1.916,1.935,1.9755,2.0035,2.0225,2.0565,2.1078,2.1751,2.2308,2.2912,2.3584,2.4752,2.5714,2.6303,2.7212,2.8076,2.8679,2.9286,2.9539,2.9911,2.9994,3.002,3.0125,3.0313,3.0116,2.9613,2.981,2.9362,2.912,2.8958,2.927,2.9665,2.9991,3.0275,3.0316,3.0316,3.0406,3.06,3.0887,3.1018,3.1127,3.132,3.156,3.1582,3.1604,3.1604,3.1604,3.1655,3.1986,3.2342,3.2617,3.2818,3.3267,3.3292,3.3292,3.3292,3.3342,3.3494,3.394,3.4065,3.4311,3.4872,3.5114,3.5331,3.5618,3.5951,3.6309,3.6537,3.6859,3.7269,3.7599,3.782,3.8291,3.8905,3.9267,3.9513,3.9824,4.0201,4.0389,4.0688,4.0901,4.1114,4.1367,4.1577,4.1773,4.1823,4.1835,4.1628,4.157,4.1599,4.1599,4.1744,4.1947,4.2005,4.1968,4.2099,4.2123,4.2342,4.2474,4.2514,4.2514,4.2453,4.2331,4.2175,4.2324,4.2557,1.7504,1.7302,1.7551,1.7659,1.7706,1.7938,1.8236,1.8479,1.8655,1.9014,1.9517,1.9674,2.0025,2.0467,2.096,2.1369,2.1827,2.2442,2.3013,2.3548,2.4542,2.5222,2.5609,2.67,2.749,2.8148,2.8904,2.9518,2.9917,3.002,3.0151,3.0287,3.0401,3.0324,3.0174,3.0263,3.0287,3.0003,2.9989,3.0057,3.0122,3.0231,3.0493,3.0712,3.0843,3.0952,3.1211,3.1364,3.1429,3.1473,3.1538,3.1604,3.1604,3.1604,3.1604,3.168,3.1812,3.2117,3.2443,3.2692,3.2942,3.3242,3.3292,3.3292,3.3292,3.3342,3.3542,3.4014,3.4088,3.4334,3.4799,3.5042,3.5211,3.538,3.562,3.5978,3.6358,3.6711,3.7178,3.7779,3.7949,3.8675,3.937,3.9706,4.0039,4.0343,4.0623,4.0837,4.1071,4.1262,4.143,4.164,4.1773,4.1968,4.203,4.2071,4.2092,4.2092,4.2092,4.2092,4.2092,4.2092,4.2133,4.2125,4.2278,4.2433,4.2616,4.2668,4.2697,4.2695,4.2673,4.2439,4.2133,4.2432,4.2934,1.7994,1.7784,1.7877,1.7924,1.7947,1.804,1.8163,1.8408,1.888,1.9277,1.9642,2.0155,2.0491,2.0781,2.1139,2.142,2.1827,2.2535,2.3063,2.3555,2.4375,2.5039,2.5493,2.6328,2.7085,2.7925,2.8581,2.9306,2.9772,3.0177,3.0334,3.0417,3.0681,3.07,3.064,3.0658,3.0479,3.036,3.0428,3.0581,3.0668,3.0818,3.1058,3.1254,3.1276,3.1385,3.1516,3.1604,3.1604,3.1604,3.1604,3.1604,3.1604,3.1604,3.1655,3.1837,3.2114,3.2342,3.2493,3.2743,3.3042,3.3217,3.3292,3.3292,3.3292,3.3342,3.3542,3.4039,3.4088,3.4334,3.4677,3.4896,3.5042,3.5163,3.5308,3.5644,3.6026,3.6381,3.6828,3.7456,3.8099,3.8778,3.943,3.9826,4.0126,4.0494,4.0773,4.1029,4.1304,4.1627,4.1752,4.1897,4.196,4.2071,4.2071,4.2092,4.2092,4.2092,4.2092,4.2092,4.2092,4.2092,4.2162,4.2327,4.2483,4.2637,4.2839,4.2929,4.2988,4.2955,4.2931,4.2822,4.279,4.3158,4.3681,1.845,1.8272,1.8226,1.8179,1.8218,1.8365,1.8434,1.8535,1.9245,1.9655,1.9899,2.0496,2.0883,2.1002,2.1241,2.1547,2.1751,2.256,2.3063,2.3612,2.4251,2.4843,2.5366,2.6099,2.699,2.7989,2.8496,2.9157,2.9802,3.0276,3.0516,3.0542,3.0931,3.1021,3.0936,3.0954,3.0949,3.0731,3.0952,3.1061,3.1127,3.1364,3.1516,3.1582,3.1604,3.1604,3.1604,3.1604,3.1604,3.1604,3.1604,3.1604,3.1604,3.1604,3.1732,3.1939,3.2266,3.2516,3.2667,3.2869,3.3092,3.3242,3.3292,3.3292,3.3292,3.3317,3.3519,3.4039,3.4088,3.4334,3.4653,3.4799,3.4896,3.4993,3.509,3.5428,3.574,3.6073,3.6523,3.7132,3.7802,3.8549,3.9153,3.9711,4.017,4.0602,4.0923,4.122,4.1543,4.1885,4.1968,4.2001,4.2051,4.2092,4.2092,4.2092,4.2092,4.215,4.215,4.215,4.2179,4.2221,4.2291,4.2468,4.2802,4.328,4.374,4.3525,4.3318,4.3423,4.3505,4.3571,4.3674,4.4021,4.4422,1.8758,1.8735,1.8543,1.8466,1.852,1.9091,1.9312,1.9257,1.9669,2.0058,2.0334,2.0709,2.0899,2.1053,2.1394,2.1674,2.1751,2.2585,2.3055,2.3481,2.3954,2.4517,2.5148,2.5965,2.6784,2.7532,2.834,2.9131,2.9764,3.0463,3.0677,3.0827,3.1137,3.13,3.1367,3.1356,3.1407,3.1276,3.1407,3.1451,3.1473,3.156,3.1582,3.1604,3.1604,3.1604,3.1604,3.1604,3.1604,3.1604,3.1604,3.1604,3.1604,3.1655,3.1808,3.2088,3.2392,3.2667,3.2869,3.3044,3.3242,3.3292,3.3292,3.3292,3.3292,3.3292,3.3544,3.399,3.4064,3.4334,3.4628,3.4799,3.4823,3.4872,3.4945,3.5114,3.5428,3.5811,3.6263,3.6803,3.75,3.8255,3.8975,3.953,4.0061,4.0522,4.11,4.1396,4.171,4.203,4.203,4.2071,4.2071,4.2092,4.2092,4.2121,4.215,4.2295,4.2353,4.2353,4.2353,4.2416,4.279,4.3136,4.359,4.4081,4.4534,4.443,4.4322,4.4148,4.414,4.4288,4.4477,4.4734,4.52,1.8804,1.882,1.8988,1.9059,1.9059,1.9296,1.9503,1.9741,2.0059,2.0384,2.0718,2.0836,2.1002,2.1216,2.1496,2.1801,2.203,2.2636,2.3005,2.3338,2.3786,2.4455,2.5182,2.5998,2.6942,2.7854,2.8645,2.9389,3.0155,3.0561,3.0862,3.1086,3.127,3.145,3.1578,3.1604,3.1604,3.1604,3.1604,3.1604,3.1604,3.1604,3.1604,3.1604,3.1604,3.1604,3.1604,3.1604,3.1604,3.1604,3.1604,3.1604,3.1655,3.1757,3.1986,3.2266,3.2544,3.2818,3.3044,3.3242,3.3292,3.3292,3.3292,3.3292,3.3292,3.3292,3.3592,3.3914,3.4088,3.431,3.4702,3.4799,3.4799,3.4799,3.4848,3.4945,3.5187,3.5572,3.6026,3.6568,3.7294,3.8008,3.8706,3.9397,3.993,4.0436,4.1015,4.1543,4.1885,4.2179,4.2237,4.2324,4.2382,4.2353,4.2353,4.2324,4.2266,4.2469,4.2644,4.276,4.2897,4.3444,4.3783,4.4082,4.4343,4.476,4.5135,4.54,4.5269,4.4915,4.4959,4.5169,4.5347,4.5427,4.5865,1.8868,1.8995,1.9296,1.9415,1.9423,1.9614,1.9821,2.0075,2.04,2.067,2.0899,2.0925,2.1053,2.1318,2.1573,2.1852,2.2156,2.2603,2.2879,2.3241,2.3767,2.4432,2.5169,2.6066,2.7078,2.8143,2.8825,2.9419,3.0193,3.062,3.0931,3.1189,3.145,3.1578,3.1604,3.1604,3.1604,3.1604,3.1604,3.1604,3.1604,3.1604,3.1604,3.1604,3.1604,3.1604,3.1604,3.1604,3.1604,3.1604,3.1604,3.1633,3.1735,3.1913,3.2215,3.2519,3.2793,3.3042,3.3217,3.3292,3.3292,3.3292,3.3292,3.3292,3.3292,3.3317,3.3567,3.399,3.4113,3.4285,3.4726,3.4799,3.4799,3.4799,3.4799,3.4896,3.509,3.5404,3.5883,3.6381,3.7108,3.7851,3.8735,3.9499,4.0392,4.082,4.11,4.1613,4.1976,4.2266,4.2498,4.2644,4.276,4.276,4.2731,4.2905,4.3079,4.3166,4.334,4.3456,4.3724,4.4194,4.4592,4.4814,4.5107,4.5441,4.5857,4.6249,4.5998,4.5534,4.5682,4.5881,4.569,4.5783,4.6225,1.9034,1.9375,1.9391,1.9423,1.9535,2.0098,2.0378,2.0416,2.0693,2.0867,2.0899,2.0899,2.1062,2.1318,2.1623,2.1878,2.2207,2.2527,2.2771,2.3127,2.3616,2.4245,2.5076,2.6053,2.7031,2.7721,2.8522,2.9321,3.0047,3.0568,3.0931,3.1193,3.145,3.1604,3.1604,3.1604,3.1604,3.1604,3.1604,3.1604,3.1604,3.1604,3.1604,3.1604,3.1604,3.1604,3.1604,3.1604,3.1604,3.1604,3.1604,3.1706,3.1913,3.2015,3.2316,3.2768,3.2891,3.3042,3.3267,3.3292,3.3292,3.3292,3.3292,3.3292,3.3292,3.3367,3.3567,3.4039,3.4161,3.4359,3.4604,3.4799,3.4799,3.4799,3.4799,3.4823,3.5017,3.5259,3.5692,3.6392,3.7073,3.7788,3.8728,3.9676,4.0773,4.1297,4.1383,4.172,4.2278,4.2615,4.2963,4.3079,4.3253,4.3311,4.3369,4.3689,4.3863,4.395,4.4037,4.4153,4.4305,4.4632,4.5053,4.5467,4.5822,4.6096,4.6642,4.7219,4.6663,4.6169,4.6318,4.6418,4.6173,4.6171,4.6615,1.905,1.9447,1.963,1.9853,2.0067,2.0314,2.0512,2.0709,2.0836,2.0899,2.0899,2.0899,2.1181,2.1471,2.1716,2.197,2.2401,2.2502,2.2755,2.3125,2.3556,2.4374,2.5211,2.5996,2.6922,2.7895,2.8694,2.9237,3.002,3.0464,3.0879,3.1193,3.1424,3.1578,3.1604,3.1604,3.1604,3.1604,3.1604,3.1604,3.1604,3.1604,3.1604,3.1604,3.1604,3.1604,3.1604,3.1604,3.1604,3.1604,3.1604,3.1783,3.2015,3.2167,3.2519,3.2869,3.3017,3.3192,3.3292,3.3292,3.3292,3.3292,3.3292,3.3292,3.3292,3.3492,3.3742,3.4039,3.4211,3.4433,3.4726,3.4799,3.4799,3.4799,3.4799,3.4799,3.492,3.5163,3.5549,3.6474,3.7221,3.8608,3.9703,4.05,4.1502,4.2301,4.2487,4.274,4.3226,4.3406,4.366,4.366,4.3776,4.3863,4.4037,4.4298,4.4501,4.461,4.4727,4.4872,4.5047,4.5186,4.5581,4.6035,4.6393,4.6759,4.706,4.7258,4.7089,4.687,4.6925,4.6683,4.6314,4.6468,4.6978,1.9113,1.9582,1.9805,2.0171,2.0527,2.0575,2.0718,2.0883,2.0899,2.0899,2.0925,2.1002,2.1267,2.1623,2.1827,2.2189,2.2749,2.2783,2.2972,2.334,2.3765,2.4518,2.5281,2.6007,2.6881,2.7868,2.8441,2.8973,2.9627,3.0229,3.0724,3.1116,3.1373,3.1501,3.1553,3.1604,3.1604,3.1604,3.1604,3.1604,3.1604,3.1604,3.1604,3.1604,3.1604,3.1604,3.1604,3.1604,3.1604,3.1629,3.171,3.1885,3.2167,3.2468,3.2768,3.3017,3.3167,3.3292,3.3292,3.3292,3.3292,3.3292,3.3292,3.3292,3.3342,3.3517,3.3767,3.4064,3.4333,3.4554,3.4822,3.4847,3.5087,3.5087,3.5232,3.5256,3.5377,3.5647,3.599,3.685,3.7782,3.9242,4.0636,4.152,4.2364,4.302,4.3649,4.3889,4.4074,4.4197,4.4298,4.4327,4.4501,4.4756,4.4821,4.4879,4.5082,4.522,4.5308,4.5395,4.5578,4.5689,4.6145,4.6535,4.6667,4.6856,4.7141,4.7236,4.7179,4.7225,4.7338,4.6993,4.6432,4.6867,4.7496,1.9225,1.9837,1.9909,2.0298,2.082,2.0851,2.0883,2.0925,2.0925,2.095,2.0976,2.1216,2.1496,2.1751,2.1996,2.2477,2.2997,2.3083,2.3374,2.3744,2.4162,2.4772,2.5289,2.601,2.668,2.733,2.7987,2.8548,2.9132,2.9863,3.0516,3.1034,3.1219,3.1347,3.1476,3.1578,3.1578,3.1604,3.1604,3.1604,3.1604,3.1604,3.1604,3.1604,3.1604,3.1604,3.1604,3.1604,3.1629,3.1706,3.1837,3.2164,3.2468,3.2743,3.3017,3.3217,3.3292,3.3292,3.3292,3.3292,3.3292,3.3317,3.3344,3.3317,3.3417,3.3641,3.3961,3.4304,3.4573,3.4746,3.4942,3.5279,3.5616,3.5784,3.6001,3.6098,3.6219,3.6444,3.677,3.7443,3.8264,3.9523,4.0953,4.1988,4.2865,4.3582,4.4112,4.4403,4.4629,4.4835,4.4937,4.5046,4.5249,4.5656,4.5685,4.543,4.5482,4.5569,4.5656,4.5743,4.5956,4.6023,4.6202,4.6425,4.6734,4.7034,4.7461,4.7535,4.7431,4.7567,4.7985,4.757,4.717,4.7629,4.8231,1.9225,1.9893,1.9909,2.0298,2.0851,2.0899,2.0986,2.1165,2.1206,2.1283,2.1496,2.1547,2.1742,2.1996,2.2366,2.274,2.3099,2.3399,2.3724,2.4052,2.4339,2.4719,2.5175,2.5745,2.6291,2.6935,2.7584,2.8201,2.8727,2.9442,3.0256,3.0827,3.1013,3.1193,3.1347,3.1501,3.1553,3.1604,3.1604,3.1604,3.1604,3.1604,3.1604,3.1604,3.1604,3.1604,3.1604,3.1629,3.1706,3.1863,3.1939,3.224,3.2765,3.2891,3.3017,3.3267,3.3292,3.3292,3.3292,3.3292,3.3361,3.3457,3.3536,3.3592,3.3666,3.3933,3.4323,3.4687,3.5053,3.5325,3.5591,3.5928,3.6146,3.629,3.6483,3.6627,3.6725,3.6826,3.7155,3.8012,3.8869,4.0092,4.1494,4.2392,4.3251,4.4004,4.4514,4.4784,4.5065,4.5267,4.5401,4.5482,4.5598,4.5859,4.5917,4.5714,4.5801,4.5888,4.5917,4.5917,4.5911,4.5978,4.6142,4.6475,4.6985,4.748,4.7953,4.7953,4.8013,4.8484,4.885,4.8335,4.8038,4.8492,4.8917,1.9225,1.9853,1.9909,2.0298,2.0845,2.1002,2.1216,2.142,2.1343,2.1445,2.17,2.1827,2.2037,2.2358,2.2705,2.3115,2.3561,2.3793,2.4083,2.4374,2.4408,2.4782,2.5186,2.5569,2.6063,2.6663,2.7233,2.7799,2.8388,2.9105,2.9916,3.0438,3.075,3.1008,3.1193,3.145,3.1578,3.1604,3.1604,3.1604,3.1626,3.1626,3.1604,3.1647,3.1647,3.1647,3.1673,3.1724,3.1881,3.2063,3.2139,3.2516,3.2985,3.3151,3.3366,3.3637,3.3866,3.3935,3.4004,3.3958,3.3912,3.3943,3.4099,3.4346,3.4429,3.4653,3.5017,3.5359,3.5705,3.605,3.6314,3.6579,3.6651,3.6723,3.6892,3.7036,3.706,3.7084,3.7744,3.8607,3.9702,4.089,4.1965,4.2801,4.3475,4.3942,4.4475,4.4949,4.5211,4.5512,4.5647,4.5743,4.5801,4.5917,4.5946,4.6034,4.6063,4.6034,4.5917,4.5917,4.5917,4.6072,4.6295,4.6798,4.7399,4.7956,4.8581,4.8656,4.8798,4.9247,4.9606,4.9343,4.9126,4.932,4.9724,1.9241,1.99,1.9972,2.0353,2.0903,2.1165,2.1445,2.1649,2.1496,2.1522,2.1827,2.203,2.2358,2.2688,2.3047,2.3517,2.3929,2.4186,2.4391,2.4785,2.4716,2.4917,2.5203,2.5569,2.5981,2.6445,2.6989,2.7557,2.8228,2.884,2.9369,2.9942,3.0282,3.062,3.1086,3.1373,3.157,3.1822,3.18,3.1778,3.1756,3.1691,3.1669,3.1778,3.18,3.1826,3.1881,3.2013,3.2151,3.2399,3.265,3.307,3.3404,3.3714,3.3976,3.4142,3.4395,3.4509,3.4532,3.4532,3.4653,3.4777,3.5074,3.5292,3.5361,3.5277,3.5548,3.6009,3.6406,3.6651,3.6916,3.7132,3.7228,3.73,3.7397,3.7517,3.7567,3.7698,3.8238,3.9059,3.988,4.1047,4.1796,4.2557,4.3211,4.3709,4.4443,4.5055,4.5557,4.586,4.5927,4.6069,4.6127,4.6185,4.6243,4.633,4.6301,4.6237,4.6208,4.6295,4.6585,4.6596,4.6505,4.7202,4.7938,4.8617,4.9194,4.9269,4.9434,4.9763,5.0092,5.0249,5.0278,5.0249,5.0315,1.9225,1.9972,2.0448,2.0756,2.0909,2.119,2.1445,2.17,2.1852,2.2055,2.2333,2.2468,2.2673,2.3031,2.3407,2.3853,2.4186,2.4494,2.4682,2.4768,2.4802,2.4951,2.5221,2.5541,2.5898,2.6282,2.6772,2.7395,2.804,2.8468,2.8893,2.9606,2.9968,3.036,3.0917,3.1202,3.1594,3.2075,3.2197,3.2219,3.2263,3.2285,3.2306,3.2547,3.2682,3.2744,3.2849,3.3003,3.3414,3.3772,3.3928,3.4155,3.436,3.4529,3.4601,3.4647,3.4785,3.4923,3.4969,3.4995,3.5047,3.5216,3.545,3.5949,3.6109,3.5953,3.6105,3.6641,3.7032,3.7276,3.7421,3.7639,3.7784,3.7829,3.7878,3.7952,3.8,3.837,3.8788,3.9413,4.0109,4.0897,4.1625,4.2344,4.2922,4.3715,4.465,4.5392,4.6034,4.6413,4.6379,4.6465,4.6569,4.665,4.6679,4.6766,4.6853,4.7021,4.7108,4.7195,4.7282,4.7329,4.7392,4.7884,4.8506,4.9225,4.9782,4.9956,5.0129,5.0391,5.0541,5.0697,5.0847,5.0877,5.0907,1.9145,1.9741,2.04,2.0756,2.096,2.1292,2.1573,2.1751,2.2131,2.2409,2.2637,2.2791,2.3023,2.3374,2.3768,2.4127,2.4443,2.4682,2.475,2.4785,2.484,2.4962,2.5238,2.5569,2.5861,2.62,2.6718,2.7287,2.7772,2.8094,2.8495,2.9099,2.9516,3.0124,3.0716,3.122,3.1806,3.2471,3.2598,3.2787,3.2901,3.2901,3.2813,3.3054,3.3173,3.328,3.3449,3.3608,3.3926,3.4317,3.4455,3.4559,3.4733,3.4942,3.5083,3.5198,3.5313,3.5451,3.5428,3.5435,3.5518,3.5759,3.6092,3.6661,3.6996,3.6889,3.7048,3.7515,3.7515,3.7735,3.776,3.788,3.7904,3.7952,3.7952,3.8003,3.8212,3.8526,3.8867,3.9284,4.0132,4.1132,4.1949,4.2998,4.3593,4.4318,4.5181,4.5886,4.6486,4.7076,4.7043,4.705,4.7265,4.7259,4.7288,4.7428,4.7515,4.7718,4.795,4.7776,4.7689,4.8009,4.8306,4.8735,4.9214,4.9844,5.0292,5.0568,5.0697,5.0847,5.0996,5.1116,5.1319,5.1528,5.1594,1.9066,1.9535,2.013,2.0591,2.0944,2.1471,2.17,2.1801,2.2308,2.2603,2.2646,2.3023,2.34,2.3726,2.4059,2.4425,2.4682,2.475,2.483,2.483,2.4868,2.51,2.5348,2.5624,2.5926,2.6272,2.6682,2.6908,2.7179,2.753,2.7952,2.842,2.9126,2.9933,3.0749,3.1471,3.2147,3.2679,3.3036,3.3415,3.3486,3.3469,3.336,3.3273,3.3326,3.346,3.3728,3.4017,3.4332,3.4642,3.4997,3.5122,3.5218,3.5474,3.5566,3.568,3.5864,3.6052,3.6144,3.6179,3.6387,3.6673,3.6985,3.7304,3.7575,3.7761,3.7923,3.8,3.8024,3.8024,3.8024,3.8024,3.8024,3.8096,3.8123,3.8251,3.854,3.8853,3.9218,3.9532,4.0434,4.1492,4.2319,4.3354,4.4201,4.4939,4.5672,4.6384,4.7027,4.7606,4.7875,4.8022,4.8246,4.8212,4.8009,4.8154,4.8299,4.8415,4.856,4.827,4.8177,4.8714,4.9172,4.9534,5.0029,5.0514,5.0941,5.1272,5.1355,5.1475,5.1768,5.1977,5.1977,5.2157,5.2276,1.9193,1.9861,2.025,2.0591,2.097,2.1471,2.17,2.1801,2.2333,2.2628,2.2791,2.3306,2.3684,2.3726,2.4059,2.4425,2.475,2.483,2.483,2.483,2.4989,2.5293,2.5596,2.5898,2.619,2.6455,2.6691,2.6809,2.7057,2.7237,2.7747,2.8707,2.8816,2.9768,3.1078,3.1713,3.2247,3.2888,3.3459,3.3852,3.4026,3.4054,3.401,3.4136,3.4499,3.4747,3.5022,3.5295,3.5622,3.5844,3.5883,3.5864,3.5887,3.5933,3.6002,3.6002,3.6236,3.6286,3.6359,3.6472,3.6685,3.7009,3.7277,3.7619,3.7833,3.8014,3.8121,3.8193,3.8193,3.8142,3.8118,3.8121,3.8121,3.8313,3.8436,3.8817,3.9155,3.9668,4.0158,4.0664,4.1296,4.1977,4.2475,4.344,4.4369,4.5117,4.5949,4.6703,4.7649,4.8207,4.8665,4.8875,4.9083,4.8914,4.8658,4.8996,4.917,4.9257,4.9257,4.9083,4.9155,4.9586,5.0012,5.0429,5.0697,5.106,5.1488,5.2007,5.2217,5.2396,5.2725,5.2929,5.2809,5.2815,5.2965]},{"header":{"parameterUnit":"m.s-1","parameterCategory":1,"la1":31.0,"la2":29.5877,"lo1":-88.7671,"lo2":-86.6584,"dy":0.0162,"dx":0.0185,"nx":115,"ny":88,"refTime":"2023-05-25T12:00:00:Z","depth":0,"parameterNumber":3,"parameterNumberName":"V-component_of_WINDS"},"data":[0.0,0.0,0.0,0.0,0.0,0.0,0.0,0.0,0.0,0.0,0.0,0.0,0.0,0.0,0.0,0.0,0.0,0.0,0.0,0.0,0.0,0.0,0.0,0.0,0.0,0.0,0.0,0.0,0.0,0.0,0.0,0.0,0.0,0.0,0.0,0.0,0.0,0.0,0.0,0.0,0.0,0.0,0.0,0.0,0.0,0.0,0.0,0.0,0.0,0.0,0.0,0.0,0.0,0.0,0.0,0.0,0.0,0.0,0.0,0.0,0.0,0.0,0.0,0.0,0.0,0.0,0.0,0.0,0.0,0.0,0.0,0.0,0.0,0.0,0.0,0.0,0.0,0.0,0.0,0.0,0.0,0.0,0.0,0.0,0.0,0.0,0.0,0.0,0.0,0.0,0.0,0.0,0.0,0.0,0.0,0.0,0.0,0.0,0.0,0.0,0.0,0.0,0.0,0.0,0.0,0.0,0.0,0.0,0.0,0.0,0.0,0.0,0.0,0.0,0.0,0.0,0.0,0.0,0.0,0.0,0.0,0.0,0.0,0.0,0.0,0.0,0.0,0.0,0.0,0.0,0.0,0.0,0.0,0.0,0.0,0.0,0.0,0.0,0.0,0.0,0.0,0.0,0.0,0.0,0.0,0.0,0.0,0.0,0.0,0.0,0.0,0.0,0.0,0.0,0.0,0.0,0.0,0.0,0.0,0.0,0.0,0.0,0.0,0.0,0.0,0.0,0.0,0.0,0.0,0.0,0.0,0.0,0.0,0.0,0.0,0.0,0.0,0.0,0.0,0.0,0.0,0.0,0.0,0.0,0.0,0.0,0.0,0.0,0.0,0.0,0.0,0.0,0.0,0.0,0.0,0.0,0.0,0.0,0.0,0.0,0.0,0.0,0.0,0.0,0.0,0.0,0.0,0.0,0.0,0.0,0.0,0.0,0.0,0.0,0.0,0.0,0.0,0.0,0.0,0.0,0.0,0.0,0.0,0.0,0.0,0.0,0.0,0.0,0.0,0.0,0.0,0.0,0.0,0.0,0.0,0.0,0.0,0.0,0.0,0.0,0.0,0.0,0.0,0.0,0.0,0.0,0.0,0.0,0.0,0.0,0.0,0.0,0.0,0.0,0.0,0.0,0.0,0.0,0.0,0.0,0.0,0.0,0.0,0.0,0.0,0.0,0.0,0.0,0.0,0.0,0.0,0.0,0.0,0.0,0.0,0.0,0.0,0.0,0.0,0.0,0.0,0.0,0.0,0.0,0.0,0.0,0.0,0.0,0.0,0.0,0.0,0.0,0.0,0.0,0.0,0.0,0.0,0.0,0.0,0.0,0.0,0.0,0.0,0.0,0.0,0.0,0.0,0.0,0.0,0.0,0.0,0.0,0.0,0.0,0.0,0.0,0.0,0.0,0.0,0.0,0.0,0.0,0.0,0.0,0.0,0.0,0.0,0.0,0.0,0.0,0.0,0.0,0.0,0.0,0.0,0.0,0.0,0.0,0.0,0.0,0.0,0.0,0.0,0.0,0.0,0.0,0.0,0.0,0.0,0.0,0.0,0.0,0.0,0.0,0.0,0.0,0.0,0.0,0.0,0.0,0.0,0.0,0.0,0.0,0.0,0.0,0.0,0.0,0.0,0.0,0.0,0.0,0.0,0.0,0.0,0.0,0.0,0.0,0.0,0.0,0.0,0.0,0.0,0.0,0.0,0.0,0.0,0.0,0.0,0.0,0.0,0.0,0.0,0.0,0.0,0.0,0.0,0.0,0.0,0.0,0.0,0.0,0.0,0.0,0.0,0.0,0.0,0.0,0.0,0.0,0.0,0.0,0.0,0.0,0.0,0.0,0.0,0.0,0.0,0.0,0.0,0.0,0.0,0.0,0.0,0.0,0.0,0.0,0.0,0.0,0.0,0.0,0.0,0.0,0.0,0.0,0.0,0.0,0.0,0.0,0.0,0.0,0.0,0.0,0.0,0.0,0.0,0.0,0.0,0.0,0.0,0.0,0.0,0.0,0.0,0.0,0.0,0.0,0.0,0.0,0.0,0.0,0.0,0.0,0.0,0.0,0.0,0.0,0.0,0.0,0.0,0.0,0.0,0.0,0.0,0.0,0.0,0.0,0.0,0.0,0.0,0.0,0.0,0.0,0.0,0.0,0.0,0.0,0.0,0.0,0.0,0.0,0.0,0.0,0.0,0.0,0.0,0.0,0.0,0.0,0.0,0.0,0.0,0.0,0.0,0.0,0.0,0.0,0.0,0.0,0.0,0.0,0.0,0.0,0.0,0.0,0.0,0.0,0.0,0.0,0.0,0.0,0.0,0.0,0.0,0.0,0.0,0.0,0.0,0.0,0.0,0.0,0.0,0.0,0.0,0.0,0.0,0.0,0.0,0.0,0.0,0.0,0.0,0.0,0.0,0.0,0.0,0.0,0.0,0.0,0.0,0.0,0.0,0.0,0.0,0.0,0.0,0.0,0.0,0.0,0.0,0.0,0.0,0.0,0.0,0.0,0.0,0.0,0.0,0.0,0.0,0.0,0.0,0.0,0.0,0.0,0.0,0.0,0.0,0.0,0.0,0.0,0.0,0.0,0.0,0.0,0.0,0.0,0.0,0.0,0.0,0.0,0.0,0.0,0.0,0.0,0.0,0.0,0.0,0.0,0.0,0.0,0.0,0.0,0.0,0.0,0.0,0.0,0.0,0.0,0.0,0.0,0.0,0.0,0.0,0.0,0.0,0.0,0.0,0.0,0.0,0.0,0.0,0.0,0.0,0.0,0.0,0.0,0.0,0.0,0.0,0.0,0.0,0.0,0.0,0.0,0.0,0.0,0.0,0.0,0.0,0.0,0.0,0.0,0.0,0.0,0.0,0.0,0.0,0.0,0.0,0.0,0.0,0.0,0.0,0.0,0.0,0.0,0.0,0.0,0.0,0.0,0.0,0.0,0.0,0.0,0.0,0.0,0.0,0.0,0.0,0.0,0.0,0.0,0.0,0.0,0.0,0.0,0.0,0.0,0.0,0.0,0.0,0.0,0.0,0.0,0.0,0.0,0.0,0.0,0.0,0.0,0.0,0.0,0.0,0.0,0.0,0.0,0.0,0.0,0.0,0.0,0.0,0.0,0.0,0.0,0.0,0.0,0.0,0.0,0.0,0.0,0.0,0.0,0.0,0.0,0.0,0.0,0.0,0.0,0.0,0.0,0.0,0.0,0.0,0.0,0.0,0.0,0.0,0.0,0.0,0.0,0.0,0.0,0.0,0.0,0.0,0.0,0.0,0.0,0.0,0.0,0.0,0.0,0.0,0.0,0.0,0.0,0.0,0.0,0.0,0.0,0.0,0.0,0.0,0.0,0.0,0.0,0.0,0.0,0.0,0.0,0.0,0.0,0.0,0.0,0.0,0.0,0.0,0.0,0.0,0.0,0.0,0.0,0.0,0.0,0.0,0.0,0.0,0.0,0.0,0.0,0.0,0.0,0.0,0.0,0.0,0.0,0.0,0.0,0.0,0.0,0.0,0.0,0.0,0.0,0.0,0.0,0.0,0.0,0.0,0.0,0.0,0.0,0.0,0.0,0.0,0.0,0.0,0.0,0.0,0.0,0.0,0.0,0.0,0.0,0.0,0.0,0.0,0.0,0.0,0.0,0.0,0.0,0.0,0.0,0.0,0.0,0.0,0.0,0.0,0.0,0.0,0.0,0.0,0.0,0.0,0.0,0.0,0.0,0.0,0.0,0.0,0.0,0.0,0.0,0.0,0.0,0.0,0.0,0.0,0.0,0.0,0.0,0.0,0.0,0.0,0.0,0.0,0.0,0.0,0.0,0.0,0.0,0.0,0.0,0.0,0.0,0.0,0.0,0.0,0.0,0.0,0.0,0.0,0.0,0.0,0.0,0.0,0.0,0.0,0.0,0.0,0.0,0.0,0.0,0.0,0.0,0.0,0.0,0.0,0.0,0.0,0.0,0.0,0.0,0.0,0.0,0.0,0.0,0.0,0.0,0.0,0.0,0.0,0.0,0.0,0.0,0.0,0.0,0.0,0.0,0.0,0.0,0.0,0.0,0.0,0.0,0.0,0.0,0.0,0.0,0.0,0.0,0.0,0.0,0.0,0.0,0.0,0.0,0.0,0.0,0.0,0.0,0.0,0.0,0.0,0.0,0.0,0.0,0.0,0.0,0.0,0.0,0.0,0.0,0.0,0.0,0.0,0.0,0.0,0.0,0.0,0.0,0.0,0.0,0.0,0.0,0.0,0.0,0.0,0.0,0.0,0.0,0.0,0.0,1.6899,0.0,0.0,0.0,0.0,0.0,0.0,0.0,0.0,0.0,0.0,0.0,0.0,0.0,0.0,0.0,0.0,0.0,0.0,0.0,0.0,0.0,0.0,0.0,0.0,0.0,0.0,0.0,0.0,0.0,0.0,0.0,0.0,0.0,0.0,0.0,0.0,0.0,0.0,0.0,0.0,0.0,0.0,0.0,0.0,0.0,0.0,0.0,0.0,0.0,0.0,0.0,0.0,0.0,0.0,0.0,0.0,0.0,0.0,0.0,0.0,0.0,0.0,0.0,0.0,0.0,0.0,0.0,0.0,0.0,0.0,0.0,0.0,0.0,0.0,0.0,0.0,0.0,0.0,0.0,0.0,0.0,0.0,0.0,0.0,0.0,0.0,0.0,0.0,0.0,0.0,0.0,0.0,0.0,0.0,0.0,0.0,0.0,0.0,0.0,0.0,0.0,0.0,0.0,0.0,0.0,0.0,0.0,0.0,0.0,0.0,1.4857,1.5311,1.591,1.6454,1.6958,0.0,0.0,0.0,0.0,0.0,0.0,0.0,0.0,0.0,0.0,0.0,0.0,0.0,0.0,0.0,0.0,0.0,0.0,0.0,0.0,0.0,0.0,0.0,0.0,0.0,0.0,0.0,0.0,0.0,0.0,0.0,0.0,0.0,0.0,0.0,0.0,0.0,0.0,0.0,0.0,0.0,0.0,0.0,0.0,0.0,0.0,0.0,0.0,0.0,0.0,0.0,0.0,0.0,0.0,0.0,0.0,0.0,0.0,0.0,0.0,0.0,0.0,0.0,0.0,0.0,0.0,0.0,0.0,0.0,0.0,0.0,0.0,0.0,0.0,0.0,0.0,0.0,0.0,0.0,0.0,0.0,0.0,0.0,0.0,0.0,0.0,0.0,0.0,0.0,0.0,0.0,0.0,0.0,0.0,0.0,0.0,0.0,0.0,0.0,0.0,0.0,0.0,0.0,0.0,0.0,0.0,0.0,0.0,0.0,0.0,0.0,0.0,1.6386,1.6907,1.7366,0.0,0.0,0.0,0.0,0.0,0.0,0.0,0.0,0.0,0.0,0.0,0.0,0.0,0.0,0.0,0.0,0.0,0.0,0.0,0.0,0.0,0.0,0.0,0.0,0.0,0.0,0.0,0.0,0.0,0.0,0.0,0.0,0.0,0.0,0.0,0.0,0.0,0.0,0.0,0.0,0.0,0.0,0.0,0.0,0.0,0.0,0.0,0.0,0.0,0.0,0.0,0.0,0.0,0.0,0.0,0.0,0.0,0.0,0.0,0.0,0.0,0.0,0.0,0.0,0.0,0.0,0.0,0.0,0.0,0.0,0.0,0.0,0.0,0.0,0.0,0.0,0.0,0.0,0.0,0.0,0.0,0.0,0.0,0.0,0.0,0.0,0.0,0.0,0.0,0.0,0.0,0.0,0.0,0.0,0.0,0.0,0.0,0.0,0.0,0.0,0.0,0.0,0.0,0.0,0.0,0.0,0.0,0.0,0.0,0.0,1.6039,1.6939,1.7531,0.0,1.851,0.0,0.0,0.0,0.0,0.0,0.0,0.0,0.0,0.0,0.0,0.0,0.0,0.0,0.0,0.0,0.0,0.0,0.0,0.0,0.0,0.0,0.0,0.0,0.0,0.0,0.0,0.0,0.0,0.0,0.0,0.0,0.0,0.0,0.0,0.0,0.0,0.0,0.0,0.0,0.0,0.0,0.0,0.0,0.0,0.0,0.0,0.0,0.0,0.0,0.0,0.0,0.0,0.0,0.0,0.0,0.0,0.0,0.0,0.0,0.0,0.0,0.0,0.0,0.0,0.0,0.0,0.0,0.0,0.0,0.0,0.0,0.0,0.0,0.0,0.0,0.0,0.0,0.0,0.0,0.0,0.0,0.0,0.0,0.0,0.0,0.0,0.0,0.0,0.0,0.0,0.0,0.0,0.0,0.0,0.0,0.0,0.0,0.0,0.0,0.0,0.0,0.0,0.0,0.0,0.0,0.0,0.0,0.0,0.0,0.0,1.6808,1.7387,1.8213,1.8873,0.0,0.0,0.0,0.0,0.0,0.0,0.0,0.0,0.0,0.0,0.0,0.0,0.0,0.0,0.0,0.0,0.0,0.0,0.0,0.0,0.0,0.0,0.0,0.0,0.0,0.0,0.0,0.0,0.0,0.0,0.0,0.0,0.0,0.0,0.0,0.0,0.0,0.0,0.0,0.0,0.0,0.0,0.0,0.0,0.0,0.0,0.0,0.0,0.0,0.0,0.0,0.0,0.0,0.0,0.0,0.0,0.0,0.0,0.0,0.0,0.0,0.0,0.0,0.0,0.0,0.0,0.0,0.0,0.0,0.0,0.0,0.0,0.0,0.0,0.0,0.0,0.0,0.0,0.0,0.0,0.0,0.0,0.0,0.0,0.0,0.0,0.0,0.0,0.0,0.0,0.0,0.0,0.0,0.0,0.0,0.0,0.0,0.0,0.0,0.0,0.0,0.0,0.0,0.0,0.0,0.0,0.0,0.0,0.0,0.0,1.6776,1.7614,1.8302,1.9168,1.9768,2.0036,0.0,0.0,0.0,0.0,0.0,0.0,0.0,0.0,0.0,0.0,0.0,0.0,0.0,0.0,0.0,0.0,0.0,0.0,0.0,0.0,0.0,0.0,0.0,0.0,0.0,0.0,0.0,0.0,0.0,0.0,0.0,0.0,0.0,0.0,0.0,0.0,0.0,0.0,0.0,0.0,0.0,0.0,0.0,0.0,0.0,0.0,0.0,0.0,0.0,0.0,0.0,0.0,0.0,0.0,0.0,0.0,0.0,0.0,0.0,0.0,0.0,0.0,0.0,0.0,0.0,0.0,0.0,0.0,0.0,0.0,0.0,0.0,0.0,0.0,0.0,0.0,0.0,0.0,0.0,0.0,0.0,0.0,0.0,0.0,0.0,0.0,0.0,0.0,0.0,0.0,0.0,0.0,0.0,0.0,0.0,0.0,0.0,0.0,0.0,0.0,0.0,0.0,0.0,0.0,0.0,0.0,0.0,0.0,1.6636,1.7399,1.8513,1.9991,2.0645,2.0845,0.0,0.0,0.0,0.0,0.0,0.0,0.0,0.0,0.0,0.0,0.0,0.0,0.0,0.0,0.0,0.0,0.0,0.0,0.0,0.0,0.0,0.0,0.0,0.0,0.0,0.0,0.0,0.0,0.0,0.0,0.0,0.0,0.0,0.0,0.0,0.0,0.0,0.0,0.0,0.0,0.0,0.0,0.0,0.0,0.0,0.0,0.0,0.0,0.0,0.0,0.0,0.0,0.0,0.0,0.0,0.0,0.0,0.0,0.0,0.0,0.0,0.0,0.0,0.0,0.0,0.0,0.0,0.0,0.0,0.0,0.0,0.0,0.0,0.0,0.0,0.0,0.0,0.0,0.0,0.0,0.0,0.0,0.0,0.0,0.0,0.0,0.0,0.0,0.0,0.0,0.0,0.0,0.0,0.0,0.0,0.0,0.0,0.0,0.0,0.0,0.0,0.0,0.0,0.0,0.0,0.0,0.0,0.0,0.0,1.7287,1.8539,1.9636,2.0547,2.1019,2.1277,0.0,0.0,0.0,0.0,0.0,0.0,0.0,0.0,0.0,0.0,0.0,0.0,0.0,0.0,0.0,0.0,0.0,0.0,0.0,0.0,0.0,0.0,0.0,0.0,0.0,0.0,0.0,0.0,0.0,0.0,0.0,0.0,0.0,0.0,0.0,0.0,0.0,0.0,0.0,0.0,0.0,0.0,0.0,0.0,0.0,0.0,0.0,0.0,0.0,0.0,0.0,0.0,0.0,0.0,0.0,0.0,0.0,0.0,0.0,0.0,0.0,0.0,0.0,0.0,0.0,0.0,0.0,0.0,0.0,0.0,0.0,0.0,0.0,0.0,0.0,0.0,0.0,0.0,0.0,0.0,0.0,0.0,0.0,0.0,0.0,0.0,0.0,0.0,0.0,0.0,0.0,0.0,0.0,0.0,0.0,0.0,0.0,0.0,0.0,0.0,0.0,0.0,0.0,0.0,0.0,0.0,0.0,0.0,0.0,1.8453,0.0,2.0824,2.1136,2.156,2.1797,0.0,0.0,0.0,0.0,0.0,0.0,0.0,0.0,0.0,0.0,0.0,0.0,0.0,0.0,0.0,0.0,0.0,0.0,0.0,0.0,0.0,0.0,0.0,0.0,0.0,0.0,0.0,0.0,0.0,0.0,0.0,0.0,0.0,0.0,0.0,0.0,0.0,0.0,0.0,0.0,0.0,0.0,0.0,0.0,0.0,0.0,0.0,0.0,0.0,0.0,0.0,0.0,0.0,0.0,0.0,0.0,0.0,0.0,0.0,0.0,0.0,0.0,0.0,0.0,0.0,0.0,0.0,0.0,0.0,0.0,0.0,0.0,0.0,0.0,0.0,0.0,0.0,0.0,0.0,0.0,0.0,0.0,0.0,0.0,0.0,0.0,0.0,0.0,0.0,0.0,0.0,0.0,0.0,0.0,0.0,0.0,0.0,0.0,0.0,0.0,0.0,0.0,0.0,0.0,0.0,0.0,0.0,0.0,1.8416,2.0264,2.1386,2.1941,2.1912,2.2278,2.234,0.0,0.0,0.0,0.0,0.0,0.0,0.0,0.0,0.0,0.0,0.0,0.0,0.0,0.0,0.0,0.0,0.0,0.0,0.0,0.0,0.0,0.0,0.0,0.0,0.0,0.0,0.0,0.0,0.0,0.0,0.0,0.0,0.0,0.0,0.0,0.0,0.0,0.0,0.0,0.0,0.0,0.0,0.0,0.0,0.0,0.0,0.0,0.0,0.0,0.0,0.0,0.0,0.0,0.0,0.0,0.0,0.0,0.0,0.0,0.0,0.0,0.0,0.0,0.0,0.0,0.0,0.0,0.0,0.0,0.0,0.0,0.0,0.0,0.0,0.0,0.0,0.0,0.0,0.0,0.0,0.0,0.0,0.0,0.0,0.0,0.0,0.0,0.0,0.0,0.0,0.0,0.0,0.0,0.0,0.0,0.0,0.0,0.0,0.0,0.0,0.0,0.0,0.0,0.0,0.0,0.0,0.0,0.0,0.0,2.1476,2.2188,2.2645,2.2851,2.2901,2.2818,0.0,0.0,0.0,0.0,0.0,0.0,0.0,0.0,0.0,0.0,0.0,0.0,0.0,0.0,0.0,0.0,0.0,0.0,0.0,0.0,0.0,0.0,0.0,0.0,0.0,0.0,0.0,0.0,0.0,0.0,0.0,0.0,0.0,0.0,0.0,0.0,0.0,0.0,0.0,0.0,0.0,0.0,0.0,0.0,0.0,0.0,0.0,0.0,0.0,0.0,0.0,0.0,0.0,0.0,0.0,0.0,0.0,0.0,0.0,0.0,0.0,0.0,0.0,0.0,0.0,0.0,0.0,0.0,0.0,0.0,0.0,0.0,0.0,0.0,0.0,0.0,0.0,0.0,0.0,0.0,0.0,0.0,0.0,0.0,0.0,0.0,0.0,0.0,0.0,0.0,0.0,0.0,0.0,0.0,0.0,0.0,0.0,0.0,0.0,0.0,0.0,0.0,0.0,0.0,0.0,0.0,0.0,0.0,0.0,2.3798,2.4125,2.4258,2.4201,2.4205,2.385,2.3061,0.0,0.0,0.0,0.0,0.0,0.0,0.0,0.0,0.0,0.0,0.0,0.0,0.0,0.0,0.0,0.0,0.0,0.0,0.0,0.0,0.0,0.0,0.0,0.0,0.0,0.0,0.0,0.0,0.0,0.0,0.0,0.0,0.0,0.0,0.0,0.0,0.0,0.0,0.0,0.0,0.0,0.0,0.0,0.0,0.0,0.0,0.0,0.0,0.0,0.0,0.0,0.0,0.0,0.0,0.0,0.0,0.0,0.0,0.0,0.0,0.0,0.0,0.0,0.0,0.0,0.0,0.0,0.0,0.0,0.0,0.0,0.0,0.0,0.0,0.0,0.0,0.0,0.0,0.0,0.0,0.0,0.0,0.0,0.0,0.0,0.0,0.0,0.0,0.0,0.0,0.0,0.0,0.0,0.0,0.0,0.0,0.0,0.0,0.0,0.0,0.0,0.0,0.0,0.0,0.0,0.0,0.0,0.0,2.6897,2.7051,2.6701,2.5841,2.5988,2.5257,0.0,0.0,0.0,0.0,0.0,0.0,0.0,0.0,0.0,0.0,0.0,0.0,0.0,0.0,0.0,0.0,0.0,0.0,0.0,0.0,0.0,0.0,0.0,0.0,0.0,0.0,0.0,0.0,0.0,0.0,0.0,0.0,0.0,0.0,0.0,0.0,0.0,0.0,0.0,0.0,0.0,0.0,0.0,0.0,0.0,0.0,0.0,0.0,0.0,0.0,0.0,0.0,0.0,0.0,0.0,0.0,0.0,0.0,0.0,0.0,0.0,0.0,0.0,0.0,0.0,0.0,0.0,0.0,0.0,0.0,0.0,0.0,0.0,0.0,0.0,0.0,0.0,0.0,0.0,0.0,0.0,0.0,0.0,0.0,0.0,0.0,0.0,0.0,0.0,0.0,0.0,0.0,0.0,0.0,0.0,0.0,0.0,0.0,0.0,0.0,0.0,0.0,0.0,0.0,0.0,0.0,0.0,0.0,0.0,2.8685,2.9966,2.9603,2.747,2.6756,2.5894,0.0,0.0,0.0,0.0,0.0,0.0,0.0,0.0,0.0,0.0,0.0,0.0,0.0,0.0,0.0,0.0,0.0,0.0,0.0,0.0,0.0,0.0,0.0,0.0,0.0,0.0,0.0,0.0,0.0,0.0,0.0,0.0,0.0,0.0,0.0,0.0,0.0,0.0,0.0,0.0,0.0,0.0,0.0,0.0,0.0,0.0,0.0,0.0,0.0,0.0,0.0,0.0,0.0,0.0,0.0,0.0,0.0,0.0,0.0,0.0,0.0,0.0,0.0,0.0,0.0,0.0,0.0,0.0,0.0,0.0,0.0,0.0,0.0,0.0,0.0,0.0,0.0,0.0,0.0,0.0,0.0,0.0,0.0,0.0,0.0,0.0,0.0,0.0,0.0,0.0,0.0,0.0,0.0,0.0,0.0,0.0,0.0,0.0,0.0,0.0,0.0,0.0,0.0,0.0,0.0,0.0,0.0,0.0,2.8616,3.0319,3.1552,3.1476,3.0037,2.8669,2.7207,0.0,0.0,0.0,0.0,0.0,0.0,0.0,0.0,0.0,0.0,0.0,0.0,0.0,0.0,0.0,0.0,0.0,0.0,0.0,0.0,0.0,0.0,0.0,0.0,0.0,0.0,0.0,0.0,0.0,0.0,0.0,0.0,0.0,0.0,0.0,0.0,0.0,0.0,0.0,0.0,0.0,0.0,0.0,0.0,0.0,0.0,0.0,0.0,0.0,0.0,0.0,0.0,0.0,0.0,0.0,0.0,0.0,0.0,0.0,0.0,0.0,0.0,0.0,0.0,0.0,0.0,0.0,0.0,0.0,0.0,0.0,0.0,0.0,0.0,0.0,0.0,0.0,0.0,0.0,0.0,0.0,0.0,0.0,0.0,0.0,0.0,0.0,0.0,0.0,0.0,0.0,0.0,0.0,0.0,0.0,0.0,0.0,0.0,0.0,0.0,0.0,0.0,0.0,0.0,0.0,0.0,0.0,0.0,3.0275,3.1959,3.2535,3.2873,3.299,3.1086,2.8789,0.0,0.0,0.0,0.0,0.0,0.0,0.0,0.0,0.0,0.0,0.0,0.0,0.0,0.0,0.0,0.0,0.0,0.0,0.0,0.0,0.0,0.0,0.0,0.0,0.0,0.0,0.0,0.0,0.0,0.0,0.0,0.0,0.0,0.0,0.0,0.0,0.0,0.0,0.0,0.0,0.0,0.0,0.0,0.0,0.0,0.0,0.0,0.0,0.0,0.0,0.0,0.0,0.0,0.0,0.0,0.0,0.0,0.0,0.0,0.0,0.0,0.0,0.0,0.0,0.0,0.0,0.0,0.0,0.0,0.0,0.0,0.0,0.0,0.0,0.0,0.0,0.0,0.0,0.0,0.0,0.0,0.0,0.0,0.0,0.0,0.0,0.0,0.0,0.0,0.0,0.0,0.0,0.0,0.0,0.0,0.0,0.0,0.0,0.0,0.0,0.0,0.0,0.0,0.0,0.0,0.0,0.0,0.0,3.1938,3.3847,3.4559,3.4857,3.4698,3.2042,2.9885,0.0,0.0,0.0,0.0,0.0,0.0,0.0,0.0,0.0,0.0,0.0,0.0,0.0,0.0,0.0,0.0,0.0,0.0,0.0,0.0,0.0,0.0,0.0,0.0,0.0,0.0,0.0,0.0,0.0,0.0,0.0,0.0,0.0,0.0,0.0,0.0,0.0,0.0,0.0,0.0,0.0,0.0,0.0,0.0,0.0,0.0,0.0,0.0,1.6765,0.0,0.0,0.0,0.0,0.0,0.0,0.0,0.0,0.0,0.0,0.0,0.0,0.0,0.0,0.0,0.0,0.0,0.0,0.0,0.0,0.0,0.0,0.0,0.0,0.0,0.0,0.0,0.0,0.0,0.0,0.0,0.0,0.0,0.0,0.0,0.0,0.0,0.0,0.0,0.0,0.0,0.0,0.0,0.0,0.0,0.0,0.0,0.0,0.0,0.0,0.0,0.0,0.0,0.0,0.0,0.0,0.0,0.0,0.0,3.3092,3.4886,3.5561,3.5798,3.5598,3.3276,3.1058,0.0,0.0,0.0,0.0,0.0,0.0,0.0,0.0,0.0,0.0,0.0,0.0,0.0,0.0,0.0,0.0,0.0,0.0,0.0,0.0,0.0,0.0,0.0,0.0,0.0,0.0,0.0,0.0,0.0,0.0,0.0,0.0,0.0,0.0,0.0,0.0,0.0,0.0,0.0,0.0,0.0,0.0,0.0,0.0,0.0,0.0,0.0,0.0,0.0,0.0,0.0,0.0,0.0,0.0,0.0,0.0,0.0,0.0,0.0,0.0,0.0,0.0,0.0,0.0,0.0,0.0,0.0,0.0,0.0,0.0,0.0,0.0,0.0,0.0,0.0,0.0,0.0,0.0,0.0,0.0,0.0,0.0,0.0,0.0,0.0,0.0,0.0,0.0,0.0,0.0,0.0,0.0,0.0,0.0,0.0,0.0,0.0,0.0,0.0,0.0,0.0,0.0,0.0,0.0,0.0,0.0,0.0,3.2288,3.4092,3.5566,3.6089,3.6327,3.6378,3.4385,3.2109,2.9622,0.0,0.0,0.0,0.0,0.0,0.0,0.0,0.0,0.0,0.0,0.0,0.0,0.0,0.0,0.0,0.0,0.0,0.0,0.0,0.0,0.0,0.0,0.0,0.0,0.0,0.0,0.0,0.0,0.0,0.0,0.0,0.0,0.0,0.0,0.0,0.0,0.0,0.0,1.7081,1.7634,0.0,0.0,0.0,0.0,0.0,0.0,0.0,0.0,1.7638,0.0,0.0,0.0,0.0,0.0,0.0,0.0,0.0,0.0,0.0,0.0,0.0,0.0,0.0,0.0,0.0,0.0,0.0,0.0,0.0,0.0,0.0,0.0,0.0,0.0,0.0,0.0,0.0,0.0,0.0,0.0,0.0,0.0,0.0,0.0,0.0,0.0,0.0,0.0,0.0,0.0,0.0,0.0,0.0,0.0,0.0,0.0,0.0,0.0,0.0,0.0,0.0,0.0,0.0,0.0,0.0,3.0756,3.3564,3.5554,3.6604,3.6842,3.7015,3.7144,3.4783,3.2661,3.0981,0.0,0.0,0.0,0.0,0.0,0.0,0.0,0.0,0.0,0.0,0.0,0.0,0.0,0.0,0.0,0.0,0.0,0.0,0.0,0.0,0.0,0.0,0.0,0.0,0.0,0.0,0.0,0.0,0.0,0.0,0.0,0.0,0.0,0.0,0.0,0.0,0.0,0.0,0.0,1.8147,1.8247,0.0,0.0,0.0,0.0,0.0,0.0,0.0,0.0,1.8973,0.0,0.0,0.0,0.0,0.0,0.0,0.0,0.0,0.0,0.0,0.0,0.0,0.0,0.0,0.0,0.0,0.0,0.0,0.0,0.0,0.0,0.0,0.0,0.0,0.0,0.0,0.0,0.0,0.0,0.0,0.0,0.0,0.0,0.0,0.0,0.0,0.0,0.0,0.0,0.0,0.0,0.0,0.0,0.0,0.0,0.0,0.0,0.0,0.0,0.0,0.0,0.0,0.0,0.0,0.0,3.1479,3.4146,3.603,3.7025,3.7193,3.7152,3.6896,3.4697,3.2661,0.0,0.0,0.0,0.0,0.0,0.0,0.0,0.0,0.0,0.0,0.0,0.0,0.0,0.0,0.0,0.0,0.0,0.0,0.0,0.0,0.0,0.0,0.0,0.0,0.0,0.0,0.0,0.0,0.0,0.0,0.0,0.0,0.0,0.0,0.0,0.0,0.0,0.0,0.0,0.0,1.8829,1.8978,1.9151,0.0,0.0,0.0,0.0,0.0,0.0,1.969,1.965,0.0,0.0,0.0,0.0,0.0,0.0,0.0,0.0,0.0,0.0,0.0,0.0,0.0,0.0,0.0,0.0,0.0,0.0,0.0,0.0,0.0,0.0,0.0,0.0,0.0,0.0,0.0,0.0,0.0,0.0,0.0,0.0,0.0,0.0,0.0,0.0,0.0,0.0,0.0,0.0,0.0,0.0,0.0,0.0,0.0,0.0,0.0,0.0,0.0,0.0,0.0,0.0,0.0,0.0,0.0,3.2118,3.4723,3.6453,3.7245,3.7434,3.7237,3.6593,3.4475,3.2422,0.0,0.0,0.0,0.0,0.0,0.0,0.0,0.0,0.0,0.0,0.0,0.0,0.0,0.0,0.0,0.0,0.0,0.0,0.0,0.0,0.0,0.0,0.0,0.0,0.0,0.0,0.0,0.0,0.0,0.0,0.0,0.0,0.0,0.0,0.0,0.0,0.0,0.0,0.0,0.0,0.0,1.9804,2.0221,2.0196,0.0,0.0,0.0,0.0,2.0376,2.0376,0.0,0.0,0.0,0.0,0.0,0.0,0.0,0.0,0.0,0.0,0.0,0.0,0.0,0.0,0.0,0.0,0.0,0.0,0.0,0.0,0.0,0.0,0.0,0.0,0.0,0.0,0.0,0.0,0.0,0.0,0.0,0.0,0.0,0.0,0.0,0.0,0.0,0.0,0.0,0.0,0.0,0.0,0.0,0.0,0.0,0.0,0.0,0.0,0.0,0.0,0.0,0.0,0.0,0.0,0.0,0.0,3.2483,3.5646,3.734,3.7481,3.7771,3.759,3.6924,3.4302,3.2207,0.0,0.0,0.0,0.0,0.0,0.0,0.0,0.0,0.0,0.0,0.0,0.0,0.0,0.0,0.0,0.0,0.0,0.0,0.0,0.0,0.0,0.0,0.0,0.0,0.0,0.0,0.0,0.0,0.0,0.0,0.0,0.0,0.0,0.0,0.0,0.0,0.0,0.0,0.0,0.0,0.0,2.0461,2.0548,2.0701,2.0899,0.0,0.0,2.1398,2.2016,2.202,0.0,0.0,0.0,0.0,0.0,0.0,0.0,0.0,0.0,0.0,0.0,0.0,0.0,0.0,0.0,0.0,0.0,0.0,0.0,0.0,0.0,0.0,0.0,0.0,0.0,0.0,0.0,0.0,0.0,0.0,0.0,0.0,0.0,0.0,0.0,0.0,0.0,0.0,0.0,0.0,0.0,0.0,0.0,0.0,0.0,0.0,0.0,0.0,0.0,0.0,0.0,0.0,0.0,0.0,0.0,3.1492,3.283,3.5889,3.7404,3.7228,3.7741,3.7309,3.5882,3.394,3.2065,0.0,0.0,0.0,0.0,0.0,0.0,0.0,0.0,0.0,0.0,0.0,0.0,0.0,0.0,0.0,0.0,0.0,0.0,0.0,0.0,0.0,0.0,0.0,0.0,0.0,0.0,0.0,0.0,0.0,0.0,0.0,0.0,0.0,0.0,0.0,0.0,0.0,0.0,0.0,0.0,0.0,0.0,2.1711,2.2118,0.0,0.0,0.0,2.3049,2.3032,0.0,0.0,0.0,0.0,0.0,0.0,0.0,0.0,0.0,0.0,0.0,0.0,0.0,0.0,0.0,0.0,0.0,0.0,0.0,0.0,0.0,0.0,0.0,0.0,0.0,0.0,0.0,0.0,0.0,0.0,0.0,0.0,0.0,0.0,0.0,0.0,0.0,0.0,0.0,0.0,0.0,0.0,0.0,0.0,0.0,0.0,0.0,0.0,0.0,0.0,0.0,0.0,0.0,0.0,0.0,0.0,0.0,3.3145,3.5971,3.7325,3.7134,3.7689,3.708,3.5202,3.3677,0.0,0.0,0.0,0.0,0.0,0.0,0.0,0.0,0.0,0.0,0.0,0.0,0.0,0.0,0.0,0.0,0.0,0.0,0.0,0.0,0.0,0.0,0.0,0.0,0.0,0.0,0.0,1.5498,0.0,0.0,0.0,0.0,0.0,0.0,0.0,0.0,0.0,0.0,0.0,0.0,0.0,0.0,2.2298,2.2884,2.3448,2.3841,0.0,0.0,2.4295,2.3875,2.367,2.3354,0.0,0.0,0.0,0.0,0.0,0.0,0.0,0.0,0.0,0.0,0.0,0.0,0.0,0.0,0.0,0.0,0.0,0.0,0.0,0.0,0.0,0.0,0.0,0.0,0.0,0.0,0.0,0.0,0.0,0.0,0.0,0.0,0.0,0.0,0.0,0.0,0.0,0.0,0.0,0.0,0.0,0.0,0.0,0.0,0.0,0.0,0.0,0.0,0.0,0.0,0.0,0.0,0.0,0.0,0.0,3.3529,3.5941,3.7298,3.746,3.7808,3.7235,3.5687,3.3623,3.175,0.0,0.0,0.0,0.0,0.0,0.0,0.0,0.0,0.0,0.0,0.0,0.0,0.0,0.0,0.0,0.0,0.0,0.0,0.0,0.0,0.0,0.0,0.0,0.0,0.0,0.0,0.0,0.0,0.0,0.0,0.0,0.0,0.0,0.0,0.0,0.0,0.0,0.0,0.0,0.0,0.0,2.3425,2.3591,2.4247,2.4709,0.0,0.0,2.4743,2.4734,2.414,2.361,2.3443,0.0,0.0,0.0,0.0,0.0,0.0,0.0,0.0,0.0,0.0,0.0,0.0,0.0,0.0,0.0,0.0,0.0,0.0,0.0,0.0,0.0,0.0,0.0,0.0,0.0,0.0,0.0,0.0,0.0,0.0,0.0,0.0,0.0,0.0,0.0,0.0,0.0,0.0,0.0,0.0,0.0,0.0,0.0,0.0,0.0,0.0,0.0,0.0,0.0,0.0,0.0,0.0,0.0,3.2986,3.3819,3.618,3.7308,3.7204,3.7281,3.6627,3.5258,3.3084,3.138,0.0,0.0,0.0,0.0,0.0,0.0,0.0,0.0,0.0,0.0,0.0,0.0,0.0,0.0,0.0,0.0,0.0,0.0,0.0,0.0,0.0,0.0,0.0,0.0,0.0,0.0,0.0,0.0,1.7934,1.8596,1.9611,0.0,0.0,0.0,0.0,0.0,0.0,0.0,0.0,0.0,0.0,2.3995,2.4479,2.521,0.0,0.0,2.5761,2.5803,2.536,2.5069,2.4663,2.4107,2.3612,0.0,0.0,0.0,0.0,0.0,0.0,0.0,0.0,0.0,0.0,0.0,0.0,0.0,0.0,0.0,0.0,0.0,0.0,0.0,0.0,0.0,0.0,0.0,0.0,0.0,0.0,0.0,0.0,0.0,0.0,0.0,0.0,0.0,0.0,0.0,0.0,0.0,0.0,0.0,0.0,0.0,0.0,0.0,0.0,0.0,0.0,0.0,0.0,0.0,0.0,0.0,0.0,3.3531,3.4164,3.6276,3.7328,3.7121,3.6915,3.624,3.5052,3.2872,3.1221,0.0,0.0,0.0,0.0,0.0,0.0,0.0,0.0,0.0,0.0,0.0,0.0,0.0,0.0,0.0,0.0,0.0,0.0,0.0,0.0,0.0,0.0,0.0,0.0,0.0,0.0,0.0,0.0,1.927,2.0023,2.0854,0.0,0.0,0.0,0.0,0.0,0.0,0.0,0.0,0.0,0.0,2.475,2.5364,2.5997,2.6372,2.6163,2.6443,2.6519,2.5963,2.5728,2.5361,2.4731,0.0,0.0,0.0,0.0,0.0,0.0,0.0,0.0,0.0,0.0,0.0,0.0,0.0,0.0,0.0,0.0,0.0,0.0,0.0,0.0,0.0,0.0,0.0,0.0,0.0,0.0,0.0,0.0,0.0,0.0,2.4041,0.0,0.0,0.0,0.0,0.0,0.0,0.0,0.0,0.0,0.0,0.0,0.0,0.0,0.0,0.0,0.0,0.0,0.0,0.0,0.0,0.0,0.0,3.4015,3.4521,3.6313,3.727,3.7387,3.6884,3.6186,3.5363,3.3114,3.1366,3.0199,0.0,0.0,0.0,0.0,0.0,0.0,0.0,0.0,0.0,0.0,0.0,0.0,0.0,0.0,0.0,0.0,0.0,0.0,0.0,0.0,0.0,0.0,0.0,0.0,0.0,0.0,2.0726,2.1473,2.1901,0.0,0.0,0.0,0.0,0.0,0.0,0.0,0.0,0.0,0.0,2.4973,2.5794,2.6133,2.6652,2.6892,2.6705,2.6696,2.6645,2.6483,2.5979,2.5536,0.0,0.0,0.0,0.0,0.0,0.0,0.0,0.0,0.0,0.0,0.0,0.0,0.0,0.0,0.0,0.0,0.0,0.0,0.0,0.0,0.0,0.0,0.0,0.0,0.0,0.0,0.0,2.4687,2.4811,0.0,0.0,0.0,0.0,0.0,0.0,0.0,0.0,0.0,0.0,0.0,2.9578,2.997,0.0,0.0,0.0,0.0,0.0,0.0,0.0,0.0,0.0,0.0,0.0,0.0,3.4526,3.5478,3.6692,3.7461,3.7697,3.6554,3.577,3.5377,3.2662,3.0401,2.8794,0.0,0.0,0.0,0.0,0.0,0.0,0.0,0.0,0.0,0.0,0.0,0.0,0.0,0.0,0.0,0.0,0.0,0.0,0.0,0.0,0.0,0.0,0.0,0.0,0.0,2.1411,0.0,0.0,0.0,0.0,0.0,0.0,0.0,0.0,0.0,0.0,0.0,2.4737,2.5203,2.5795,2.6376,2.6878,2.7169,2.7231,0.0,0.0,0.0,0.0,0.0,0.0,0.0,0.0,0.0,0.0,0.0,0.0,0.0,0.0,2.259,2.1559,2.1398,2.1398,2.1398,0.0,0.0,0.0,0.0,0.0,0.0,0.0,0.0,0.0,0.0,0.0,0.0,0.0,0.0,0.0,0.0,2.5848,0.0,0.0,0.0,0.0,0.0,0.0,0.0,0.0,3.0623,3.0972,3.1459,3.1814,3.1999,0.0,3.1899,3.143,0.0,0.0,0.0,0.0,0.0,0.0,0.0,0.0,3.5293,3.6144,3.7143,3.7758,3.7842,3.643,3.5572,3.5345,3.2297,2.9871,2.8397,2.7365,2.6688,0.0,0.0,0.0,0.0,0.0,0.0,0.0,0.0,0.0,0.0,0.0,0.0,0.0,0.0,0.0,0.0,0.0,0.0,0.0,0.0,0.0,0.0,0.0,2.2784,0.0,0.0,0.0,0.0,0.0,0.0,0.0,0.0,0.0,2.4522,2.5052,2.5617,2.6023,2.6467,2.6874,2.7304,0.0,0.0,0.0,0.0,0.0,0.0,0.0,2.6465,2.631,2.631,2.6194,2.5901,2.5514,2.5172,2.4987,0.0,0.0,2.2613,2.2289,2.2293,2.2289,2.2332,2.2444,2.2699,2.2765,2.2773,0.0,0.0,0.0,0.0,0.0,0.0,0.0,0.0,2.6838,2.704,0.0,2.7228,0.0,0.0,0.0,0.0,0.0,2.997,0.0,0.0,3.2422,3.3253,3.4394,3.4266,3.4193,3.4238,3.4177,3.4177,3.4056,3.1885,0.0,0.0,0.0,0.0,0.0,0.0,3.629,3.6481,3.758,3.8091,3.7886,3.6556,3.5682,3.5236,3.2,2.9803,2.9021,2.8071,2.7235,2.6473,2.6389,0.0,0.0,0.0,0.0,0.0,0.0,0.0,0.0,0.0,0.0,0.0,0.0,0.0,0.0,0.0,0.0,0.0,0.0,0.0,0.0,2.3472,0.0,0.0,0.0,0.0,0.0,0.0,0.0,0.0,0.0,0.0,2.5649,2.5948,2.6306,2.646,0.0,0.0,0.0,0.0,2.7451,2.7139,2.7071,2.6952,2.6643,2.6567,2.6575,2.6575,0.0,0.0,2.6922,2.6737,2.6529,2.632,2.624,2.5751,2.3998,2.3711,2.3711,2.3715,2.4071,2.437,2.4244,2.4412,2.4589,3.1939,0.0,0.0,0.0,0.0,3.047,3.0241,3.0183,2.9959,2.9954,3.0033,2.9813,0.0,0.0,0.0,0.0,0.0,0.0,3.2636,3.3901,3.4149,3.4421,3.4763,3.4751,3.4707,3.4707,3.4722,3.4779,3.4892,3.4231,3.3782,3.3552,0.0,0.0,0.0,0.0,3.6861,3.7465,3.7951,3.8223,3.8266,3.7149,3.5631,3.3683,3.1318,2.9724,2.9021,2.8084,2.7482,2.7235,2.6718,0.0,0.0,0.0,0.0,0.0,0.0,0.0,0.0,0.0,0.0,0.0,0.0,0.0,0.0,0.0,0.0,0.0,0.0,0.0,2.4393,2.5201,2.5697,0.0,0.0,0.0,0.0,0.0,0.0,0.0,0.0,0.0,2.8227,2.7858,2.7578,0.0,0.0,2.833,2.8364,2.8603,2.8708,2.848,0.0,0.0,0.0,2.7727,2.7645,2.762,2.7601,2.7458,2.7162,2.708,2.6911,2.6614,2.6515,2.6288,2.5708,2.554,2.554,2.5544,2.5584,2.5601,2.5524,2.5389,2.5205,3.4094,3.3202,3.2447,3.231,3.2505,3.2129,3.1919,3.1813,3.1658,3.1526,3.1417,3.119,3.1098,3.1067,3.1404,0.0,0.0,0.0,3.4452,3.5705,3.5852,3.6192,3.6694,3.665,3.6681,3.674,3.6772,3.6874,3.7138,3.7196,3.7208,3.7144,0.0,0.0,3.6546,3.7146,3.7669,3.8155,3.8361,3.8403,3.8361,3.7014,3.5352,3.3341,3.127,2.9951,2.9463,2.8362,2.7765,2.7765,2.73,2.6908,0.0,0.0,0.0,0.0,0.0,0.0,0.0,0.0,0.0,0.0,0.0,2.3043,2.3004,0.0,0.0,0.0,2.4518,2.5287,2.5883,2.6608,0.0,0.0,0.0,0.0,0.0,0.0,0.0,2.8415,2.8663,2.9045,2.9706,2.9525,2.924,2.894,2.9048,2.915,2.9064,0.0,2.9328,2.9035,2.8821,2.8623,2.8442,2.8224,2.8154,2.8398,2.8232,2.8089,2.8009,2.79,2.7728,2.744,2.7368,2.7305,2.7189,2.717,2.6926,2.6419,2.6394,2.6496,2.65,2.6445,2.6388,3.5594,3.5221,3.4128,3.3437,3.3017,3.2981,3.2843,3.2569,3.259,3.2405,3.22,3.206,3.1894,3.1843,3.2977,0.0,3.5422,3.5552,3.625,3.741,3.7623,3.8362,3.9502,3.9409,3.9456,3.9612,3.966,3.9814,4.0135,4.0286,4.0599,4.0986,3.8547,3.7353,3.7496,3.8395,3.8814,3.8734,3.8845,3.8762,3.8389,3.6444,3.4981,3.4012,3.1659,3.0343,3.0169,2.8794,2.7995,2.7995,2.7995,2.7655,2.6947,0.0,0.0,0.0,0.0,0.0,0.0,0.0,0.0,0.0,0.0,0.0,0.0,0.0,0.0,0.0,2.6119,0.0,2.7215,2.7755,0.0,0.0,0.0,2.8988,2.8868,2.9372,2.9751,2.9779,0.0,0.0,3.0543,0.0,3.1075,3.0431,3.0161,2.9943,2.975,2.9777,2.96,2.9332,2.8993,2.8776,2.8708,2.847,2.848,2.8888,2.8831,2.879,2.8997,2.892,2.8771,2.8549,2.8538,2.8514,2.8538,2.8466,2.8131,2.6847,2.692,2.7207,2.7231,2.7521,2.7747,3.8101,3.7867,3.7285,3.6514,3.5718,3.591,3.5972,3.5898,3.5732,3.558,3.5517,3.5389,3.5208,3.5005,3.5134,3.5947,3.7245,3.7305,3.8071,3.9381,3.9459,3.9634,3.9938,3.9939,3.9939,3.9985,4.0091,4.0318,4.0631,4.0761,4.1138,4.1627,4.1031,4.06,4.0465,4.0687,4.0535,3.9979,3.983,3.9331,3.8389,3.6621,3.549,3.5012,3.2044,3.0394,3.0325,2.8857,2.7995,2.7995,2.7995,2.7904,2.7728,2.7673,0.0,0.0,0.0,0.0,0.0,0.0,0.0,0.0,0.0,2.5161,2.5134,0.0,2.6287,0.0,2.7623,2.8251,2.8336,2.8857,0.0,0.0,2.9796,3.0171,3.0141,3.0733,3.1124,3.1124,3.1575,3.2037,3.2446,3.238,3.2331,3.2497,3.1605,3.0929,3.0876,3.0876,3.0895,3.0695,3.0288,2.9977,2.9857,2.9625,2.9422,2.9578,2.954,2.9474,2.9335,2.9282,2.9184,2.9013,2.8954,2.8954,2.8934,2.8954,2.8841,2.8499,2.8313,2.8148,2.8171,2.8167,2.8237,3.9086,3.8819,3.8837,3.8423,3.7763,3.7471,3.7332,3.7257,3.7077,3.6929,3.6885,3.6679,3.6848,3.7273,3.7122,3.7786,3.9003,3.8993,3.9544,4.0508,4.054,4.0701,4.0973,4.1099,4.1161,4.1238,4.1759,4.2078,4.214,4.2628,4.2989,4.3178,4.3178,4.3178,4.3083,4.2265,4.1445,4.0662,4.0058,3.9394,3.8669,3.6956,3.586,3.5425,3.2738,3.1039,3.0587,2.9428,2.8652,2.8381,2.8363,2.8363,2.8363,2.8314,2.8198,0.0,0.0,0.0,0.0,0.0,0.0,0.0,0.0,0.0,0.0,0.0,2.7767,2.8004,2.8878,2.9412,2.9398,3.0043,3.0439,3.0425,3.0984,3.1366,3.1366,3.1878,3.2228,3.2228,3.2703,3.3161,3.3396,3.342,3.3454,3.3635,3.2825,3.2085,3.1729,3.1547,3.1429,3.1291,3.0785,3.033,3.0184,2.9953,2.9779,2.9779,2.9779,2.9721,2.9438,2.9399,2.9341,2.915,2.9136,2.9136,2.9136,2.9136,2.9136,2.9072,2.8914,2.8776,2.8776,2.8891,2.9121,3.954,3.9209,3.9663,3.9753,3.9486,3.8575,3.8042,3.7806,3.777,3.7711,3.767,3.7445,3.8004,3.9111,3.8944,3.9567,4.0669,4.0537,4.0788,4.1307,4.1323,4.1644,4.2206,4.2509,4.2748,4.2858,4.3949,4.435,4.4175,4.5045,4.5298,4.5029,4.5036,4.5152,4.5209,4.3602,4.2223,4.1208,4.0087,3.9381,3.9034,3.7306,3.6158,3.5642,3.3524,3.1868,3.0867,3.0198,2.9505,2.8869,2.8794,2.8794,2.8794,2.8668,2.8592,0.0,2.8284,0.0,0.0,0.0,0.0,0.0,0.0,0.0,0.0,2.8808,2.905,2.925,3.0033,3.0517,3.0517,3.124,3.1701,3.1701,3.2198,3.2512,3.2542,3.2941,3.3218,3.3218,3.3763,3.408,3.396,3.423,3.4349,3.4111,3.3629,3.3023,3.2408,3.1918,3.1577,3.1365,3.0804,3.0273,2.9934,2.9798,2.9779,2.9779,2.9779,2.9702,2.9521,2.9457,2.938,2.9248,2.9253,2.9209,2.9189,2.9189,2.9189,2.9209,2.9209,2.9175,2.914,2.9489,2.9987,4.1224,4.1051,4.0782,4.0985,4.1439,4.0898,4.0223,3.9463,3.9938,4.0408,4.0806,4.066,4.0654,4.0743,4.0586,4.1005,4.1794,4.1599,4.1898,4.2532,4.2565,4.263,4.2808,4.3673,4.4091,4.4218,4.5356,4.5957,4.5984,4.6627,4.6663,4.6178,4.6334,4.6156,4.5697,0.0,0.0,0.0,4.1313,4.0352,3.9309,3.7668,3.6594,3.6139,3.3861,0.0,3.1154,3.035,2.9594,2.8869,2.8794,0.0,0.0,0.0,0.0,0.0,0.0,0.0,0.0,0.0,0.0,0.0,3.0292,2.986,2.9156,2.9862,3.0608,3.1103,3.1498,3.1687,3.1687,3.2305,3.2713,3.2744,3.3289,3.3668,3.3698,3.4089,3.4388,3.4388,3.4733,3.4955,3.4889,3.476,3.4551,3.4349,3.3899,3.3368,3.2899,3.2246,3.1762,3.1522,3.0842,3.0254,2.9856,2.9779,2.9779,2.9779,2.9779,2.976,2.9721,2.9702,2.9702,2.9643,2.9663,2.9663,2.9643,2.9663,2.9624,2.9688,2.9663,2.9566,2.9214,2.9598,3.0134,4.2478,0.0,4.2335,4.2482,0.0,4.2374,4.1878,4.1204,4.1352,4.1593,4.1791,4.1671,4.1725,4.1972,4.1727,4.2052,4.2724,4.2543,4.2664,4.299,4.2975,4.3171,4.3561,4.4247,4.4826,4.5313,4.652,4.7045,4.7029,4.7692,4.7596,4.6754,4.6834,4.6565,4.5902,4.5914,4.4908,4.2869,4.1878,4.0862,3.9747,3.8002,3.6942,3.6529,0.0,0.0,0.0,0.0,0.0,0.0,0.0,0.0,0.0,0.0,0.0,2.9497,3.0003,3.0367,3.0556,3.0733,3.1075,3.1637,3.1699,3.1367,3.0636,3.106,3.1504,3.1823,3.2025,3.2231,3.258,3.2943,3.3367,3.3703,3.4241,3.4577,3.4638,3.5047,3.5286,3.5221,3.5363,3.5411,3.5343,3.5113,3.4881,3.4652,3.4179,3.3698,3.3297,3.248,3.1725,3.1131,3.071,3.0254,2.9895,2.9779,2.9779,2.9779,2.9779,2.9779,2.9779,2.9779,2.9779,2.9779,2.9779,2.9779,2.9779,2.9779,2.9779,2.9779,2.9779,2.9846,2.9836,3.0288,3.0855,4.3475,4.3169,4.3687,4.3767,4.3516,4.3429,4.322,4.2911,0.0,0.0,0.0,4.222,4.2484,4.2994,4.2704,4.2903,4.3446,4.325,4.3143,4.3159,4.329,4.3699,4.4303,4.4907,4.5599,4.6444,4.7609,4.8109,4.7945,4.8734,4.846,4.7326,4.7274,4.6872,4.6075,4.6053,4.5192,4.3501,4.2434,4.1383,4.0358,3.8543,3.739,3.6967,3.5331,3.3981,3.2987,3.2812,3.2404,3.1626,3.1082,3.0794,3.075,3.0688,3.0569,3.0461,3.0965,3.1432,3.1797,3.1866,3.2098,3.2612,3.2767,3.2647,3.2224,3.2165,3.2196,3.2318,3.2416,3.2748,3.3408,3.3648,3.4014,3.4628,3.5109,3.5416,3.5477,3.5766,3.5943,3.5784,3.5704,3.5653,3.5489,3.531,3.5146,3.4885,3.445,3.394,3.342,3.2516,3.1596,3.0804,3.052,3.0254,2.9953,2.9798,2.9779,2.9779,2.9779,2.9779,2.9779,2.9779,2.9779,2.9779,2.9779,2.9779,2.9779,2.9779,2.9779,2.9779,2.988,3.0105,3.0633,3.1201,3.1724,4.4489,4.4402,4.4036,4.4272,4.4795,4.4328,4.4336,4.4558,4.3634,4.3482,4.3962,4.3933,4.3915,4.392,4.3746,4.3724,4.3809,4.3509,4.334,0.0,4.3999,4.4438,4.4708,4.626,4.7252,4.7706,4.8749,4.9384,4.9588,4.9943,4.9471,4.8308,4.8299,4.7615,4.6282,4.6177,4.561,4.4491,4.3501,4.248,4.1383,3.9667,3.8249,3.7107,3.6191,3.489,3.3141,3.306,3.2607,3.167,3.1498,3.1466,3.1466,3.1454,3.1382,3.128,3.1904,3.2203,3.2016,3.2528,3.2882,3.2885,3.3384,3.3433,3.2835,3.279,3.3008,3.355,3.3515,3.3768,3.4403,3.4888,3.5168,3.5352,3.5922,3.6322,3.6276,3.6213,3.6101,3.5973,3.58,3.5669,3.5506,3.5326,3.5133,3.4902,3.4534,3.3991,3.3058,3.23,3.1669,3.103,3.0615,3.033,3.0107,2.9895,2.9818,2.9779,2.9824,2.9779,2.9779,2.9779,2.9779,2.9779,2.9779,2.9779,2.9779,2.9779,2.9779,2.9804,3.0105,3.0588,3.1175,3.1872,3.2472,4.547,4.5356,4.5488,4.5623,4.5653,4.5193,4.5057,4.5169,4.4612,4.4449,4.4547,4.4364,4.425,4.4212,4.4054,4.3985,4.3883,4.41,4.4161,4.4167,4.4986,4.5609,4.6134,4.7111,4.7937,4.8614,4.9195,4.9693,5.0057,5.0285,4.991,4.8942,4.8316,4.7362,4.6272,4.614,4.5843,4.5394,4.4488,4.3232,4.1616,4.0359,3.9155,3.7953,3.6684,3.558,3.4591,3.4039,3.3547,3.3068,3.2652,3.2422,3.2422,3.2305,3.2232,3.2158,3.278,3.3048,3.2829,3.3382,3.3725,3.3702,3.4286,3.4614,3.4286,3.4102,3.4129,3.4424,3.4384,3.4593,3.5158,3.5486,3.572,3.5999,3.6338,3.6476,3.6507,3.643,3.6258,3.6037,3.5926,3.5766,3.5552,3.5408,3.5245,3.4935,3.4513,3.3802,3.2988,3.2453,3.19,3.1168,3.0729,3.0501,3.0292,3.0088,2.9972,2.9953,2.9856,2.9798,2.9779,2.9779,2.9779,2.9779,2.9779,2.9779,2.9779,2.9779,2.9779,2.9829,3.0211,3.0803,3.1519,3.2541,3.329,4.6395,4.6252,4.6757,4.6708,4.624,4.587,4.5675,4.5533,4.5323,4.5123,4.4913,4.4547,4.4406,4.4412,4.4395,4.4317,4.4334,4.4908,4.5166,4.5172,4.5978,4.6722,4.7303,4.775,4.8382,4.9131,4.9396,4.9708,5.01,5.0271,4.9924,4.9133,4.791,4.6911,4.6127,4.6028,4.5939,4.5819,4.5186,4.3894,4.1974,4.105,3.996,3.8598,3.7295,3.6332,3.5824,3.5029,3.45,3.43,3.3689,3.3336,3.3323,3.318,3.3074,3.3101,3.3463,3.3764,3.3741,3.4243,3.4555,3.4586,3.5205,3.563,3.5602,3.5574,3.5399,3.5259,3.5199,3.5394,3.5883,3.5964,3.6105,3.6446,3.6507,3.6507,3.6507,3.6507,3.6413,3.61,3.6021,3.5862,3.5635,3.5506,3.5326,3.4918,3.4332,3.3733,3.3146,3.2704,3.2055,3.1384,3.0924,3.0698,3.0482,3.0273,3.0203,3.0184,3.0068,2.9991,2.9972,2.9953,2.9895,2.9914,2.9876,2.9837,2.9798,2.9779,2.9854,3.0005,3.0482,3.1135,3.2153,3.3173,3.3995,4.7363,4.7313,4.7109,4.679,4.6398,4.6228,4.6045,4.5917,4.5559,4.5376,4.5283,4.4906,4.4748,4.4822,4.5096,4.524,4.5249,4.5917,4.6176,4.6228,4.6912,4.7422,4.7729,4.8381,4.8855,4.9199,4.9396,4.9634,4.9942,5.0129,4.9542,4.8274,4.7431,4.6651,4.5955,4.5838,4.5688,4.5468,4.5372,4.4535,4.2958,4.1962,4.0544,3.8652,3.8447,3.7557,3.5968,3.562,3.511,3.4365,3.4131,3.4003,3.4003,3.3991,3.3928,3.3815,3.3886,3.4047,3.4396,3.4958,3.5314,3.5345,3.5917,3.6328,3.6314,3.685,3.6977,3.6445,3.6186,3.6305,3.6782,3.6691,3.6538,3.6476,3.6507,3.6507,3.6507,3.6507,3.6398,3.6211,3.6084,3.5926,3.5718,3.557,3.5326,3.4951,3.4416,3.3871,3.3339,3.2793,3.2237,3.1669,3.1243,3.0924,3.0698,3.0527,3.0387,3.0368,3.0349,3.0292,3.0273,3.0273,3.0292,3.0107,3.0049,2.9991,2.9856,2.9804,3.0005,3.0427,3.0974,3.1756,3.3067,3.3812,3.4063,4.7583,4.7508,4.7341,4.7075,4.6754,4.653,4.6326,4.6117,4.5968,4.5752,4.5494,4.5243,4.5036,4.4823,4.5431,4.5563,4.5475,4.6574,4.7035,4.7026,4.7822,4.8285,4.8397,4.8726,4.9034,4.9199,4.929,4.9471,4.9781,5.0057,4.9701,4.8818,4.8031,4.7226,4.6369,4.5806,4.5468,4.5283,4.5203,4.4529,4.3312,4.243,4.1339,3.9951,3.9011,3.811,3.7257,3.6624,3.586,3.513,3.4888,3.4534,3.4133,3.4502,3.4735,3.4684,3.4981,3.5171,3.5263,3.5794,3.6094,3.5981,3.6658,3.7069,3.7038,3.7337,3.7495,3.7577,3.7231,3.7018,3.703,3.6923,3.6801,3.6569,3.6507,3.6507,3.6507,3.6507,3.6414,3.6227,3.6133,3.599,3.5736,3.5476,3.5245,3.4902,3.445,3.3974,3.3507,3.2952,3.2435,3.2036,3.1614,3.1243,3.0943,3.0717,3.0603,3.0558,3.0482,3.0406,3.0425,3.0406,3.0349,3.0273,3.0177,3.0107,3.0011,3.0184,3.0382,3.0849,3.1671,3.2638,3.3719,3.4105,3.4251,4.7646,4.7572,4.7529,4.7309,4.7043,4.6836,4.6578,4.6374,4.623,4.6043,4.5774,4.5546,4.527,4.5132,4.586,4.6205,4.6311,4.7462,4.7959,4.7936,4.8549,4.8848,4.8863,4.8956,4.9031,4.9123,4.9184,4.9366,4.9634,4.9869,4.9677,4.9035,4.8252,4.7401,4.6533,4.5675,4.515,4.5002,4.4865,4.4435,4.3577,4.2631,4.1681,4.0709,3.9434,3.8524,3.813,3.7413,3.6646,3.5874,3.5636,3.5279,3.4781,3.5215,3.5506,3.5558,3.5988,3.6272,3.6181,3.6607,3.6942,3.7065,3.751,3.7874,3.8001,3.8064,3.8239,3.8634,3.8333,3.7943,3.7699,3.7592,3.7437,3.7156,3.7078,3.6999,3.6815,3.6769,3.6675,3.6351,3.6211,3.607,3.5752,3.5524,3.528,3.4918,3.4534,3.4059,3.3675,3.3157,3.2731,3.2273,3.1945,3.1596,3.1161,3.0924,3.0811,3.0748,3.0653,3.0615,3.0577,3.0577,3.0501,3.0501,3.0318,3.0272,3.0353,3.057,3.0899,3.1327,3.2179,3.325,3.3922,3.423,3.4356,4.7689,4.7668,4.7525,4.7388,4.7167,4.7032,4.6917,4.6708,4.6386,4.6204,4.6105,4.5765,4.5507,4.55,4.6604,4.7422,4.7957,4.8659,4.8956,4.8852,4.8935,4.9003,4.9018,4.9018,4.9034,4.9015,4.9123,4.929,4.9486,4.953,4.9139,4.847,4.7697,4.6916,4.6157,4.5309,4.4748,4.4575,4.4421,4.4217,4.3891,4.2526,4.1408,4.0653,3.9821,3.8957,3.8157,3.7866,3.7313,3.6391,3.6304,3.6206,3.6173,3.6206,3.6225,3.6322,3.6782,3.7086,3.7126,3.7508,3.7939,3.8403,3.8473,3.8697,3.9155,3.9218,3.9281,3.9439,3.9408,3.9267,3.9157,3.8826,3.8666,3.8537,3.8421,3.8062,3.7523,3.7461,3.7153,3.6645,3.6335,3.607,3.5768,3.5704,3.5397,3.505,3.4752,3.4412,3.3813,3.3448,3.2973,3.2472,3.2164,3.1982,3.1421,3.1104,3.0992,3.0917,3.0879,3.0917,3.0955,3.0955,3.0849,3.0743,3.0604,3.0618,3.0761,3.1048,3.1443,3.2005,3.2826,3.3707,3.4079,3.4272,3.4429,4.7254,4.7678,4.7572,4.7475,4.7388,4.7201,4.7054,4.6929,4.6684,4.6447,4.6216,4.6043,4.6145,4.6482,4.738,4.7692,4.7656,4.8801,4.929,4.9138,4.9123,4.9077,4.9018,4.9018,4.9018,4.9034,4.9031,4.9153,4.9305,4.9426,4.9323,4.8775,4.7671,4.6835,4.6206,4.5133,4.4412,4.4284,4.4198,4.4112,4.3885,4.2827,4.1801,4.1002,3.9817,3.9002,3.8664,3.8434,3.7957,3.712,3.7018,3.6729,3.6386,3.671,3.7163,3.7649,3.8268,3.8585,3.8502,3.889,3.9222,3.937,3.9248,3.925,3.9455,3.9503,3.9692,4.0072,4.0198,4.0276,4.0318,3.9655,3.8963,3.8817,3.8639,3.8461,3.8214,3.8122,3.7892,3.7214,3.6642,3.6101,3.6018,3.5768,3.5527,3.5149,3.4881,3.4559,3.4157,3.3692,3.3223,3.2785,3.2408,3.2091,3.178,3.1384,3.1161,3.103,3.0973,3.0973,3.0992,3.1071,3.0958,3.105,3.095,3.1106,3.1306,3.1635,3.2044,3.2805,3.3653,3.3843,3.4209,3.4413,3.4659,4.7182,4.7642,4.7615,4.7551,4.7508,4.7367,4.7201,4.7054,4.6929,4.6684,4.6435,4.6314,4.6457,4.6885,4.7727,4.7939,4.7684,4.8943,4.9515,4.929,4.9229,4.9138,4.9061,4.9034,4.9018,4.9018,4.9018,4.9015,4.9095,4.9218,4.9187,4.8883,4.7496,4.6682,4.6234,4.4951,4.4126,4.4039,4.3967,4.3864,4.3617,4.2903,4.2144,4.1387,4.0184,3.9289,3.8909,3.8683,3.8363,3.788,3.7718,3.7455,3.708,3.763,3.8213,3.8732,3.9426,3.9771,3.9653,3.9878,4.0048,4.0211,4.0008,3.9914,4.0103,4.0166,4.0451,4.0798,4.0925,4.1064,4.1009,4.0311,3.9617,3.9453,3.9271,3.9045,3.8877,3.8846,3.8491,3.7907,3.7396,3.6945,3.6724,3.6593,3.6345,3.5985,3.5634,3.5329,3.5021,3.4489,3.3874,3.3475,3.3045,3.2582,3.2081,3.1651,3.1381,3.125,3.1071,3.1071,3.1123,3.1156,3.1287,3.1327,3.1435,3.1616,3.1897,3.2228,3.2798,3.3534,3.3805,3.3995,3.4308,3.4586,3.4894,4.7652,4.7689,4.7689,4.7615,4.7504,4.7508,4.7388,4.7201,4.7066,4.6917,4.6755,4.653,4.6397,4.6567,4.7751,4.8246,4.8325,4.9359,4.9811,4.9515,4.9305,4.9214,4.9168,4.9046,4.9003,4.9003,4.9003,4.8925,4.8816,4.8816,4.8754,4.8312,4.7172,4.6453,4.6274,4.482,4.3979,4.3868,4.3717,4.3568,4.3335,4.2762,4.2231,4.1901,4.1084,4.0066,3.8795,3.8735,3.8711,3.8533,3.8487,3.844,3.8505,3.9037,3.9458,3.9556,4.0139,4.048,4.0468,4.0309,4.0526,4.0863,4.0801,4.0846,4.1226,4.1384,4.1399,4.1462,4.1494,4.1491,4.1306,4.1045,4.0815,4.0769,4.0396,4.003,3.9661,3.9476,3.923,3.8645,3.8321,3.8364,3.8246,3.7895,3.7537,3.7246,3.6916,3.654,3.6119,3.5647,3.5213,3.4512,3.388,3.3358,3.2626,3.1926,3.1667,3.1434,3.1262,3.1156,3.1365,3.1451,3.1784,3.1902,3.2136,3.2332,3.2577,3.2916,3.3136,3.3704,3.3894,3.4161,3.4559,3.4894,3.5234,4.7182,4.7689,4.7689,4.7668,4.7625,4.7561,4.7475,4.7399,4.7212,4.7066,4.6929,4.6743,4.6602,4.6848,4.801,4.8576,4.8483,4.981,5.025,4.9811,4.9515,4.932,4.9199,4.9046,4.8956,4.8879,4.8863,4.8769,4.8644,4.8612,4.8483,4.814,4.7374,4.6593,4.5934,4.496,4.4233,4.3739,4.3628,4.3539,4.3419,4.3037,4.2541,4.1885,4.1474,4.0847,4.0003,3.9906,3.9876,3.9833,3.9847,3.9847,3.988,4.0074,4.0171,4.0268,4.0851,4.118,4.1107,4.1275,4.1438,4.1565,4.1403,4.14,4.1573,4.1588,4.1588,4.1588,4.1588,4.1473,4.1221,4.1134,4.1001,4.0831,4.0595,4.0413,4.0136,3.9784,3.9445,3.9199,3.8799,3.8487,3.8308,3.8155,3.8044,3.7759,3.7386,3.7039,3.6746,3.6353,3.5783,3.5192,3.4677,3.4177,3.3511,3.2882,3.2459,3.2133,3.1818,3.1575,3.1686,3.1999,3.2287,3.2567,3.2818,3.2977,3.3243,3.3462,3.3632,3.3772,3.3967,3.4385,3.4883,3.5286,3.5704,4.6794,4.7254,4.758,4.7689,4.7678,4.7615,4.7525,4.7508,4.7377,4.7245,4.7122,4.7009,4.6859,4.6991,4.802,4.8594,4.878,4.9895,5.0313,5.0088,4.9737,4.9486,4.929,4.9111,4.8941,4.8816,4.8801,4.8659,4.8388,4.8388,4.8292,4.8047,4.7432,4.667,4.5797,4.5068,4.4357,4.3698,4.3553,4.3464,4.328,4.3113,4.2733,4.2189,4.2016,4.1759,4.1322,4.129,4.1031,4.061,4.0513,4.0513,4.0513,4.0722,4.0916,4.1046,4.1517,4.1876,4.1753,4.1917,4.2061,4.1882,4.1719,4.1605,4.1588,4.1588,4.1588,4.1588,4.1588,4.1471,4.1185,4.11,4.0999,4.0729,4.056,4.0505,4.043,4.0153,3.9907,3.9784,3.9521,3.9224,3.9042,3.8855,3.8667,3.8461,3.8065,3.7766,3.7499,3.707,3.6523,3.5937,3.5339,3.487,3.4431,3.3845,3.3325,3.2913,3.2514,3.228,3.2202,3.2672,3.3038,3.3343,3.3586,3.3436,3.3618,3.3754,3.3873,3.3988,3.4117,3.4703,3.526,3.5835,3.6279,4.6395,4.6613,4.7327,4.7616,4.7689,4.7689,4.7625,4.7504,4.7508,4.7396,4.7309,4.7223,4.7122,4.7187,4.7832,4.8364,4.8879,4.9379,4.9964,5.0119,4.9855,4.9497,4.9366,4.9077,4.8894,4.8769,4.8738,4.8549,4.8195,4.8195,4.8147,4.7934,4.7404,4.6592,4.5863,4.5101,4.4408,4.3653,4.3479,4.3343,4.3113,4.2992,4.2789,4.2553,4.2537,4.2489,4.2392,4.236,4.189,4.0836,4.0804,4.0836,4.0819,4.1305,4.1644,4.1661,4.2261,4.2378,4.2333,4.2174,4.2045,4.185,4.1719,4.1588,4.1588,4.1588,4.1588,4.1588,4.1572,4.1423,4.1185,4.1083,4.0882,4.0574,4.047,4.047,4.0487,4.0409,4.0295,4.0343,4.0439,4.0357,4.0061,3.9886,3.9741,3.948,3.9026,3.8677,3.8422,3.7851,3.7376,3.6722,3.5983,3.5449,3.4955,3.448,3.3967,3.3741,3.333,3.3013,3.2855,3.3247,3.3639,3.3944,3.409,3.3943,3.3894,3.3958,3.4044,3.4088,3.4469,3.508,3.5704,3.6332,3.675,4.5417,4.6504,4.6747,4.7145,4.7663,4.7689,4.7668,4.7636,4.7551,4.7472,4.7418,4.732,4.7254,4.7281,4.7885,4.8258,4.8472,4.8856,4.9314,4.96,4.9347,4.9184,4.9116,4.8956,4.8769,4.8578,4.8452,4.8277,4.8066,4.8066,4.805,4.8001,4.7769,4.7007,4.5947,4.5598,4.4759,4.3644,4.3434,4.3267,4.3008,4.293,4.2806,4.2634,4.2619,4.2619,4.2619,4.2619,4.2489,4.2133,4.2052,4.2052,4.1987,4.2181,4.2294,4.2311,4.2457,4.2492,4.227,4.2174,4.1996,4.1703,4.1716,4.1588,4.1588,4.1588,4.1588,4.1572,4.1473,4.1306,4.1134,4.095,4.0712,4.0436,4.0331,4.0331,4.0314,4.0209,4.0121,4.0121,4.0139,4.0121,4.0033,3.991,3.975,3.9607,3.9271,3.8907,3.8631,3.8211,3.752,3.7137,3.6551,3.6006,3.5516,3.5029,3.4666,3.4495,3.4179,3.3785,3.3666,3.377,3.4058,3.4324,3.4277,3.4142,3.4042,3.4047,3.41,3.435,3.4917,3.5604,3.6279,3.6907,3.7168,4.4667,4.5562,4.6214,4.6757,4.7218,4.7544,4.7689,4.7678,4.7625,4.7593,4.7561,4.7439,4.7385,4.7435,4.7687,4.7968,4.821,4.8352,4.8655,4.8933,4.882,4.8876,4.8987,4.891,4.8691,4.8499,4.8292,4.8164,4.8033,4.8001,4.8001,4.8001,4.8001,4.7239,4.5896,4.5764,4.4991,4.3682,4.331,4.3161,4.2915,4.2822,4.2744,4.2634,4.2619,4.2619,4.2619,4.2619,4.2619,4.2586,4.2586,4.2619,4.2619,4.2619,4.2619,4.2619,4.2619,4.2573,4.259,4.2573,4.2537,4.2431,4.2284,4.2062,4.1999,4.181,4.1588,4.1572,4.1423,4.124,4.1069,4.0797,4.0522,4.0314,4.0139,4.0069,4.0156,4.0099,4.0011,4.0011,3.9993,3.9922,3.9785,3.9643,3.9517,3.9289,3.8998,3.8741,3.8501,3.8071,3.772,3.7342,3.6864,3.6258,3.5736,3.5264,3.4838,3.4718,3.4506,3.4188,3.4188,3.4162,3.4293,3.4424,3.4424,3.4413,3.4401,3.4498,3.4804,3.5163,3.5644,3.6105,3.6754,3.7246,3.7534,4.4015,4.4222,4.5681,4.6359,4.6613,4.7254,4.758,4.7689,4.7689,4.7678,4.7657,4.7583,4.7504,4.7482,4.743,4.7595,4.8134,4.7797,4.7962,4.8238,4.8383,4.863,4.8863,4.8796,4.861,4.8436,4.826,4.8147,4.8033,4.8001,4.8001,4.8001,4.8001,4.7206,4.6079,4.5766,4.4912,4.3622,4.3159,4.3023,4.2853,4.2728,4.265,4.2634,4.2619,4.2619,4.2619,4.2619,4.2619,4.2619,4.2619,4.2619,4.2619,4.2619,4.2716,4.278,4.2862,4.296,4.3215,4.3292,4.3366,4.3395,4.3042,4.2806,4.2695,4.2347,4.2062,4.2094,4.1627,4.15,4.1103,4.0662,4.0296,4.0156,3.9874,3.9785,3.9839,3.9892,3.9905,3.9887,3.9869,3.9679,3.9511,3.9361,3.9329,3.931,3.9108,3.9136,3.8832,3.8437,3.8019,3.756,3.7039,3.6453,3.5947,3.5465,3.5077,3.4782,3.4543,3.4319,3.4319,3.4345,3.4424,3.4528,3.4711,3.4866,3.5007,3.5215,3.5483,3.5817,3.6225,3.6657,3.7142,3.7482,3.7795,4.3544,4.4123,4.4486,4.5345,4.6432,4.6685,4.7109,4.7652,4.7689,4.7689,4.7689,4.7668,4.7657,4.7636,4.7421,4.7383,4.7485,4.7145,4.7054,4.7383,4.8125,4.8304,4.8425,4.8464,4.8468,4.8276,4.8098,4.8033,4.8001,4.8001,4.8001,4.8001,4.7934,4.7272,4.6013,4.5639,4.4822,4.3436,4.3006,4.2884,4.2728,4.265,4.2619,4.2619,4.2619,4.2619,4.2619,4.2619,4.2619,4.2619,4.2683,4.278,4.2716,4.2683,4.291,4.3346,4.3476,4.3605,4.3887,4.3979,4.3875,4.3804,4.3657,4.3499,4.3499,4.3309,4.3183,4.3195,4.2921,4.2229,4.1437,4.069,4.037,4.0092,3.9793,3.9517,3.9367,3.9319,3.9253,3.9222,3.9167,3.9065,3.9032,3.948,3.9496,3.9329,3.9382,3.9566,3.9213,3.8732,3.8287,3.7765,3.7399,3.6859,3.6242,3.5788,3.5436,3.5147,3.4895,3.4737,3.4737,3.4659,3.4816,3.4972,3.5129,3.5314,3.5596,3.5769,3.6057,3.643,3.6802,3.7127,3.7482,3.7795,3.79,4.3145,4.358,4.3932,4.4584,4.5417,4.6168,4.6747,4.7145,4.7544,4.7689,4.7689,4.7689,4.7689,4.7678,4.7428,4.7309,4.7165,4.6696,4.666,4.706,4.7601,4.7836,4.8098,4.8301,4.8388,4.8211,4.8082,4.8001,4.8001,4.8001,4.8001,4.8001,4.8001,4.7206,4.5997,4.5658,4.471,4.3423,4.2944,4.2806,4.265,4.2619,4.2619,4.2619,4.2619,4.2619,4.2619,4.2975,4.312,4.3185,4.3411,4.3444,4.3185,4.3152,4.3476,4.4075,4.4237,4.438,4.4626,4.4731,4.4721,4.4672,4.4383,4.4194,4.4068,4.391,4.372,4.3602,4.3277,4.2696,4.1868,4.1425,4.097,4.0686,4.0374,4.0115,3.9847,3.9376,3.9073,3.9121,3.9242,3.9316,3.9475,3.9662,3.9596,3.9439,3.9251,3.9387,3.9081,3.8641,3.835,3.7972,3.7743,3.7311,3.6609,3.6141,3.5853,3.565,3.5538,3.5469,3.5469,3.5365,3.5286,3.5417,3.5574,3.597,3.6221,3.644,3.6675,3.71,3.744,3.7616,3.7743,3.7848,3.79,4.2892,4.2964,4.3652,4.3978,4.4304,4.5526,4.625,4.6649,4.7228,4.7508,4.7689,4.7689,4.7678,4.7615,4.7407,4.7298,4.703,4.6602,4.6453,4.6713,4.6886,4.7092,4.7398,4.7851,4.8105,4.8013,4.8,4.8001,4.8001,4.8001,4.8001,4.8001,4.8001,4.7173,4.605,4.556,4.4713,4.3281,4.2915,4.2775,4.2618,4.2619,4.2651,4.2845,4.2877,4.3023,4.3217,4.3573,4.3864,4.3897,4.4464,4.4464,4.4204,4.3945,4.4204,4.4885,4.4949,4.5121,4.5346,4.5434,4.5536,4.5796,4.5236,4.4907,4.4762,4.451,4.432,4.3976,4.3715,4.3131,4.2542,4.201,4.1837,4.1577,4.1297,4.1022,4.0642,3.974,3.9517,3.9572,3.9517,3.9538,3.9681,3.9832,3.9688,3.9532,3.9357,3.9161,3.8927,3.8783,3.8615,3.845,3.8287,3.7725,3.7035,3.6335,3.6048,3.6057,3.6018,3.6018,3.607,3.607,3.5966,3.5887,3.607,3.647,3.6813,3.7045,3.7332,3.7776,3.7851,3.7821,3.7848,3.79,3.79,4.2892,4.2928,4.3036,4.3471,4.4087,4.4413,4.5309,4.6395,4.6602,4.7109,4.7616,4.7689,4.7615,4.7529,4.7385,4.712,4.6766,4.6409,4.616,4.6144,4.6247,4.6382,4.6384,4.7148,4.7423,4.7384,4.7603,4.7901,4.8001,4.8001,4.8001,4.8001,4.7984,4.7174,4.6006,4.5386,4.4571,4.3172,4.2791,4.2666,4.2731,4.2813,4.3055,4.3444,4.3508,4.3783,4.4237,4.4496,4.4625,4.4625,4.4739,4.5046,4.5208,4.4917,4.5046,4.5467,4.5629,4.5783,4.597,4.6074,4.5992,4.585,4.5615,4.5552,4.5539,4.5457,4.5187,4.4998,4.4449,4.3751,4.3167,4.2619,4.205,4.1746,4.1515,4.117,4.0908,4.0568,4.011,4.0089,3.9902,3.9753,3.9926,4.0008,3.9896,3.9809,3.969,3.9563,3.9406,3.928,3.9185,3.9054,3.8915,3.8216,3.7475,3.6705,3.6223,3.6354,3.6358,3.6358,3.6462,3.6671,3.6698,3.6619,3.6679,3.6948,3.726,3.7472,3.7557,3.7667,3.7785,3.79,3.79,3.79,3.7978,4.2892,4.2892,4.2892,4.3109,4.3498,4.3942,4.4512,4.5299,4.6044,4.6592,4.6968,4.7323,4.745,4.7374,4.7312,4.6996,4.6625,4.6338,4.6055,4.5887,4.5973,4.594,4.5674,4.6477,4.6791,4.6954,4.7305,4.7703,4.7968,4.8001,4.8001,4.7968,4.7869,4.7061,4.586,4.5291,4.4379,4.3226,4.2761,4.2829,4.3185,4.3476,4.3945,4.414,4.4253,4.4464,4.4771,4.5208,4.5305,4.5403,4.5711,4.6035,4.6164,4.6132,4.6002,4.6294,4.6342,4.63,4.6322,4.628,4.612,4.5846,4.5823,4.5823,4.5823,4.5742,4.5732,4.5418,4.5196,4.4465,4.3872,4.3384,4.3085,4.2768,4.241,4.2128,4.1893,4.1646,4.1208,4.0689,4.0383,4.0237,4.0236,4.0252,4.0104,4.0037,3.996,3.9826,3.9689,3.9469,3.9274,3.9002,3.8751,3.8326,3.7719,3.7247,3.6724,3.6776,3.6802,3.6828,3.6933,3.7194,3.7377,3.7403,3.7492,3.7375,3.7384,3.7494,3.75,3.7528,3.7598,3.7716,3.7854,3.7926,3.8057,4.2873,4.2892,4.2873,4.2863,4.2972,4.3522,4.3901,4.4252,4.5256,4.5972,4.6358,4.6823,4.7129,4.7218,4.7156,4.6929,4.6578,4.6314,4.6018,4.5853,4.5766,4.5682,4.5616,4.5853,4.6155,4.6289,4.6924,4.7272,4.7868,4.8001,4.7984,4.7919,4.7754,4.7046,4.5929,4.5522,4.4414,4.3684,4.3134,4.3395,4.3929,4.4464,4.4885,4.4998,4.4998,4.5079,4.5419,4.5791,4.5986,4.6147,4.6488,4.6845,4.6877,4.691,4.691,4.691,4.6875,4.6649,4.6404,4.6259,4.6116,4.5841,4.5823,4.5823,4.5823,4.5787,4.5628,4.5297,4.5154,4.4918,4.4384,4.4293,4.407,4.3838,4.3515,4.3319,4.2922,4.2542,4.2079,4.1575,4.1003,4.0616,4.0463,4.0221,4.0034,3.9781,3.9678,3.9431,3.9292,3.9069,3.8845,3.8575,3.8349,3.8194,3.7906,3.7834,3.7482,3.7429,3.7456,3.7456,3.7586,3.7769,3.7821,3.7746,3.7658,3.7514,3.7502,3.7413,3.7366,3.7366,3.7436,3.7575,3.7808,3.8109,3.8318,4.2852,4.2892,4.2833,4.283,4.2811,4.2842,4.3224,4.38,4.415,4.4931,4.6118,4.6349,4.6751,4.7071,4.6939,4.6754,4.6542,4.6205,4.5968,4.5783,4.5436,4.5152,4.4978,4.5158,4.5414,4.5653,4.6425,4.7239,4.7819,4.7984,4.7902,4.777,4.7605,4.7144,4.6077,4.5832,4.5488,4.4691,4.4512,4.4561,4.4658,4.482,4.5208,4.5532,4.5726,4.5888,4.6326,4.6553,4.665,4.6715,4.6812,4.691,4.691,4.691,4.691,4.6858,4.6722,4.6512,4.6333,4.6205,4.6076,4.5859,4.5823,4.5823,4.5823,4.5787,4.5641,4.5241,4.5185,4.4999,4.4591,4.44,4.4316,4.4181,4.3988,4.3645,4.3329,4.303,4.2627,4.2096,4.1414,4.0844,4.0503,4.0229,3.9952,3.9645,3.9358,3.9136,3.889,3.8688,3.8508,3.8281,3.8194,3.8037,3.7969,3.7923,3.79,3.79,3.79,3.79,3.79,3.79,3.7854,3.7805,3.7693,3.7459,3.725,3.7132,3.7157,3.7278,3.7423,3.7629,3.7854,3.8164,3.8658,4.2649,4.2736,4.2697,4.2678,4.2668,4.2629,4.2789,4.3236,4.4012,4.4734,4.5513,4.6354,4.6847,4.7019,4.6859,4.6731,4.6542,4.6204,4.5942,4.5736,4.5304,4.494,4.4774,4.4697,4.4745,4.5514,4.6074,4.6957,4.7587,4.7886,4.7787,4.7688,4.7471,4.6993,4.6238,4.5992,4.5454,4.5063,4.5111,4.5338,4.5467,4.5743,4.61,4.6391,4.6424,4.6586,4.678,4.691,4.691,4.691,4.691,4.691,4.691,4.691,4.6875,4.6704,4.6562,4.6404,4.6298,4.617,4.6004,4.5878,4.5823,4.5823,4.5823,4.5787,4.5641,4.5222,4.5185,4.4999,4.4685,4.4515,4.44,4.4305,4.4239,4.3968,4.3606,4.3309,4.293,4.2383,4.1806,4.1177,4.0608,4.0219,3.9865,3.9491,3.9203,3.8935,3.8643,3.8353,3.8217,3.8057,3.7988,3.7923,3.7923,3.79,3.79,3.79,3.79,3.79,3.79,3.79,3.788,3.7696,3.7462,3.7227,3.6994,3.6949,3.7,3.7217,3.7484,3.7844,3.8233,3.8817,3.9288,4.2496,4.253,4.255,4.257,4.2596,4.2745,4.2843,4.3012,4.4195,4.4868,4.5358,4.6376,4.6973,4.6963,4.6812,4.6672,4.6578,4.6191,4.5942,4.5662,4.5371,4.5049,4.4891,4.4696,4.5031,4.5842,4.6218,4.6774,4.7291,4.7638,4.7671,4.7654,4.7403,4.6923,4.6463,4.6217,4.5938,4.5614,4.5888,4.605,4.6147,4.6553,4.678,4.6877,4.691,4.691,4.691,4.691,4.691,4.691,4.691,4.691,4.691,4.691,4.6823,4.6635,4.6457,4.633,4.6223,4.608,4.5968,4.5859,4.5823,4.5823,4.5823,4.5805,4.5609,4.5222,4.5185,4.4999,4.4704,4.4591,4.4515,4.4438,4.4362,4.4143,4.389,4.3566,4.319,4.2668,4.2075,4.1339,4.0766,4.0278,3.9821,3.938,3.9047,3.8733,3.8444,3.8129,3.8037,3.7943,3.7946,3.79,3.79,3.79,3.79,3.7952,3.7952,3.7952,3.7978,3.7932,3.7912,3.7655,3.7454,3.7499,3.7564,3.7215,3.6915,3.7333,3.7776,3.8295,3.8767,3.9377,3.9866,4.2318,4.2328,4.2455,4.2531,4.2593,4.3196,4.344,4.3507,4.4307,4.5117,4.5806,4.6581,4.7009,4.694,4.6743,4.6613,4.6578,4.6179,4.599,4.5774,4.5528,4.5272,4.5193,4.5315,4.5471,4.5708,4.636,4.679,4.6946,4.7473,4.7521,4.747,4.7267,4.7066,4.6833,4.6652,4.6618,4.6424,4.6618,4.6683,4.6715,4.6845,4.6877,4.691,4.691,4.691,4.691,4.691,4.691,4.691,4.691,4.691,4.691,4.6875,4.6771,4.658,4.6369,4.6223,4.608,4.5954,4.5859,4.5823,4.5823,4.5823,4.5823,4.5823,4.5591,4.526,4.5204,4.4999,4.4723,4.4591,4.4572,4.4534,4.4477,4.4343,4.4093,4.3782,4.3409,4.29,4.2293,4.1611,4.0937,4.0402,3.993,3.9518,3.8917,3.8602,3.8262,3.7969,3.7969,3.7923,3.7923,3.79,3.79,3.7926,3.7952,3.8083,3.8135,3.8135,3.8135,3.8066,3.8233,3.8079,3.7976,3.8066,3.8078,3.7779,3.7604,3.7748,3.8117,3.8839,3.9393,3.9927,4.0343,4.2297,4.2333,4.29,4.3124,4.3124,4.3404,4.374,4.4275,4.4988,4.5784,4.6534,4.6866,4.6963,4.6824,4.6696,4.6554,4.6447,4.6154,4.6015,4.5803,4.5572,4.5572,4.5665,4.5835,4.5967,4.6471,4.7089,4.7319,4.7391,4.7456,4.7354,4.7301,4.7132,4.7013,4.6927,4.691,4.691,4.691,4.691,4.691,4.691,4.691,4.691,4.691,4.691,4.691,4.691,4.691,4.691,4.691,4.691,4.691,4.6875,4.6806,4.6649,4.6457,4.6262,4.6116,4.5954,4.5859,4.5823,4.5823,4.5823,4.5823,4.5823,4.5823,4.5604,4.5365,4.5185,4.5017,4.4667,4.4591,4.4591,4.4591,4.4553,4.4477,4.4285,4.3977,4.3606,4.3101,4.2526,4.1889,4.1191,4.0531,4.0061,3.9606,3.9007,3.8444,3.8129,3.7978,3.8031,3.8109,3.8161,3.8135,3.8135,3.8109,3.8057,3.824,3.8397,3.8501,3.8582,3.8733,3.8821,3.8659,3.842,3.8355,3.8336,3.8265,3.8238,3.8234,3.8782,3.9612,4.0119,4.05,4.0712,4.244,4.2726,4.3276,4.3479,4.3561,4.3989,4.4453,4.5024,4.582,4.6427,4.7009,4.6998,4.694,4.6778,4.6661,4.653,4.6386,4.6214,4.6078,4.5984,4.6022,4.6071,4.6296,4.6604,4.7018,4.7481,4.7619,4.7714,4.7737,4.7604,4.7403,4.7233,4.7013,4.6927,4.691,4.691,4.691,4.691,4.691,4.691,4.691,4.691,4.691,4.691,4.691,4.691,4.691,4.691,4.691,4.691,4.691,4.6843,4.6774,4.6652,4.6492,4.628,4.6134,4.6004,4.5878,4.5823,4.5823,4.5823,4.5823,4.5823,4.5823,4.5805,4.5623,4.526,4.5167,4.5036,4.4648,4.4591,4.4591,4.4591,4.4591,4.4515,4.4362,4.4112,4.3723,4.3309,4.2688,4.2084,4.1539,4.0813,4.0041,3.9548,3.8917,3.8425,3.8087,3.8057,3.8266,3.8397,3.8501,3.8501,3.8475,3.8632,3.8789,3.8867,3.9024,3.9128,3.924,3.9358,3.9322,3.9128,3.891,3.8639,3.8692,3.8894,3.8768,3.859,3.9319,4.0104,4.0557,4.0863,4.0896,4.2751,4.3454,4.349,4.3561,4.3811,4.5142,4.5702,4.5856,4.6545,4.6938,4.7009,4.7009,4.6893,4.6778,4.6637,4.6518,4.6362,4.6251,4.6175,4.626,4.6538,4.6698,4.71,4.7549,4.7899,4.7954,4.812,4.8141,4.7968,4.7637,4.7403,4.7184,4.7013,4.691,4.691,4.691,4.691,4.691,4.691,4.691,4.691,4.691,4.691,4.691,4.691,4.691,4.691,4.691,4.691,4.691,4.691,4.6841,4.6652,4.6582,4.6421,4.6152,4.6112,4.6004,4.5841,4.5823,4.5823,4.5823,4.5823,4.5823,4.5823,4.5769,4.5623,4.5222,4.5179,4.498,4.4742,4.4591,4.4591,4.4591,4.4591,4.4572,4.4419,4.4278,4.3879,4.3708,4.2977,4.2245,4.1759,4.1131,4.0155,3.9447,3.8844,3.8482,3.8277,3.837,3.8684,3.8789,3.8945,3.8998,3.905,3.9337,3.9494,3.9573,3.9651,3.9756,3.9762,3.9748,3.9685,3.9568,3.9396,3.9196,3.9398,3.9622,3.9373,3.9171,3.9778,4.0439,4.0895,4.1074,4.0925,4.2787,4.3551,4.4025,4.4524,4.5071,4.5559,4.607,4.6581,4.6866,4.7009,4.7009,4.7009,4.6883,4.6708,4.6637,4.6518,4.6312,4.6263,4.627,4.6958,4.7181,4.7643,4.8045,4.838,4.8631,4.8621,4.8653,4.842,4.7984,4.7704,4.7436,4.7184,4.703,4.6927,4.691,4.691,4.691,4.691,4.691,4.691,4.691,4.691,4.691,4.691,4.691,4.691,4.691,4.691,4.691,4.691,4.691,4.6789,4.6582,4.6477,4.628,4.608,4.6022,4.5896,4.5823,4.5823,4.5823,4.5823,4.5823,4.5823,4.5823,4.5677,4.5444,4.5222,4.5092,4.4874,4.4648,4.4591,4.4591,4.4591,4.4591,4.4591,4.4496,4.4354,4.4145,4.4148,4.3725,4.2926,4.2345,4.1802,4.0918,4.0318,3.9837,3.9336,3.9092,3.9126,3.9311,3.9311,3.9416,3.9494,3.9651,3.9886,4.0069,4.0123,4.0228,4.0359,4.0339,4.0242,4.015,4.0106,3.9931,3.9804,3.9751,3.9698,3.9776,3.9854,4.0211,4.0491,4.0795,4.0797,4.0568,4.2929,4.3918,4.4417,4.5238,4.6105,4.6212,4.6534,4.6973,4.7009,4.7009,4.6998,4.6963,4.6801,4.6637,4.6542,4.6717,4.6577,4.6648,4.7034,4.7723,4.7993,4.8446,4.8889,4.9171,4.9189,4.9131,4.8892,4.8578,4.8228,4.7853,4.7537,4.7235,4.7064,4.6978,4.6944,4.691,4.691,4.691,4.691,4.691,4.691,4.691,4.691,4.691,4.691,4.691,4.691,4.691,4.691,4.6892,4.6791,4.6719,4.6477,4.6315,4.6152,4.6022,4.5914,4.5823,4.5823,4.5823,4.5823,4.5823,4.5823,4.5823,4.5787,4.5659,4.5426,4.5204,4.5049,4.4879,4.4721,4.4702,4.496,4.496,4.5145,4.5176,4.523,4.5117,4.4994,4.4951,4.4581,4.3774,4.2915,4.2389,4.1768,4.1318,4.0882,4.0394,3.9902,3.9882,3.9886,3.9913,4.0069,4.0254,4.0357,4.0409,4.0592,4.0672,4.075,4.0829,4.0859,4.0734,4.0691,4.0542,4.0211,3.993,3.9776,3.9724,3.9852,3.9979,4.0208,4.0491,4.072,4.0696,4.0565,4.3179,4.4489,4.4585,4.5523,4.683,4.6902,4.6973,4.6998,4.6998,4.6986,4.6975,4.6824,4.6696,4.6578,4.6506,4.6796,4.7282,4.7327,4.7924,4.8482,4.8929,4.928,4.95,4.9699,4.9653,4.9432,4.9153,4.8829,4.8483,4.8082,4.7671,4.7335,4.7167,4.7081,4.6996,4.6927,4.6927,4.691,4.691,4.691,4.691,4.691,4.691,4.691,4.691,4.691,4.691,4.691,4.6892,4.6841,4.6704,4.6527,4.6315,4.617,4.6022,4.5878,4.5823,4.5823,4.5823,4.5823,4.5823,4.5805,4.5737,4.5805,4.5732,4.5568,4.5427,4.5316,4.5209,4.5027,4.4875,4.5257,4.5638,4.5853,4.613,4.6203,4.6307,4.6229,4.6071,4.5828,4.535,4.4623,4.3582,4.2914,4.2539,4.2086,4.1587,4.1046,4.0627,4.0458,4.0461,4.0515,4.0698,4.1064,4.109,4.0906,4.0907,4.0985,4.1064,4.1142,4.1198,4.1122,4.0921,4.0669,4.0313,4.0082,4.0002,3.9975,3.9976,4.0179,4.0532,4.0539,4.0824,4.0949,4.0966,4.3179,4.4549,4.4585,4.5523,4.6902,4.7009,4.6928,4.6847,4.6871,4.6836,4.6696,4.6672,4.6625,4.6506,4.7022,4.7276,4.7623,4.8042,4.8709,4.9245,4.9626,4.9918,5.0083,5.0188,5.0037,4.9737,4.9381,4.9031,4.8769,4.8341,4.7836,4.747,4.7302,4.7184,4.7081,4.6978,4.6944,4.691,4.691,4.691,4.691,4.691,4.691,4.691,4.691,4.691,4.691,4.6892,4.6841,4.6687,4.6635,4.6474,4.6201,4.6112,4.6022,4.5841,4.5823,4.5823,4.5823,4.5823,4.5918,4.5945,4.579,4.5604,4.5549,4.5546,4.5497,4.5565,4.558,4.5469,4.5657,4.6038,4.6265,4.6449,4.6696,4.688,4.6953,4.6923,4.6763,4.6524,4.6066,4.5266,4.4254,4.3612,4.3204,4.2773,4.2242,4.167,4.125,4.1028,4.088,4.0907,4.1012,4.1247,4.1299,4.1116,4.1194,4.1273,4.1299,4.1299,4.1248,4.1173,4.1048,4.0848,4.0619,4.0463,4.0327,4.0327,4.0377,4.0728,4.1081,4.0964,4.0892,4.1142,4.1366,4.3179,4.4524,4.4585,4.5523,4.6819,4.6963,4.6824,4.6731,4.6766,4.6719,4.6602,4.6542,4.6659,4.6939,4.7336,4.7789,4.8441,4.885,4.9447,5.0044,5.0114,5.0322,5.0515,5.0453,5.02,4.9884,4.9575,4.926,4.8923,4.8499,4.805,4.7721,4.752,4.7352,4.7184,4.7013,4.6927,4.691,4.691,4.691,4.6942,4.6942,4.691,4.6974,4.6974,4.6974,4.6957,4.6923,4.6769,4.6597,4.6545,4.633,4.6189,4.6262,4.6348,4.6297,4.6613,4.6708,4.6803,4.674,4.6676,4.6558,4.6346,4.631,4.6053,4.5934,4.605,4.6133,4.6113,4.6142,4.648,4.6819,4.6911,4.7004,4.7219,4.7404,4.7434,4.7465,4.7292,4.7147,4.6588,4.5864,4.515,4.4467,4.3808,4.3228,4.2622,4.2008,4.161,4.134,4.1191,4.1142,4.1194,4.1299,4.1325,4.1403,4.143,4.1403,4.1299,4.1299,4.1299,4.1302,4.1229,4.1131,4.0977,4.0868,4.0855,4.0827,4.0901,4.1277,4.1578,4.1588,4.1542,4.1614,4.1863,4.3215,4.4631,4.4728,4.5713,4.6879,4.6847,4.6719,4.6625,4.6696,4.6684,4.6542,4.6447,4.6809,4.7301,4.7648,4.8419,4.9131,4.9657,5.0079,5.0887,5.0746,5.0735,5.055,5.0453,5.0242,4.9999,4.9708,4.9396,4.9015,4.8657,4.834,4.8033,4.782,4.7604,4.7301,4.7064,4.7026,4.7234,4.7201,4.7169,4.7136,4.7039,4.7007,4.7169,4.7201,4.7184,4.7099,4.6962,4.6726,4.6649,4.6522,4.6416,4.6562,4.6724,4.6871,4.6992,4.734,4.7498,4.753,4.753,4.7587,4.7593,4.7617,4.7261,4.6819,4.6392,4.6431,4.6717,4.6755,4.6911,4.725,4.7527,4.765,4.7742,4.7865,4.8019,4.803,4.7927,4.7697,4.7382,4.6797,4.609,4.5413,4.47,4.4068,4.3519,4.3106,4.2523,4.2158,4.1885,4.158,4.1481,4.1533,4.1585,4.1638,4.1716,4.169,4.1586,4.156,4.1638,4.19,4.1771,4.1462,4.1441,4.1489,4.1477,4.1462,4.1433,4.148,4.1756,4.2032,4.221,4.2235,4.221,4.2313,4.3179,4.4728,4.5927,4.6688,4.6962,4.6836,4.6719,4.6602,4.653,4.6435,4.6301,4.6323,4.6745,4.7483,4.8125,4.8907,4.9657,5.029,5.0676,5.0851,5.0922,5.0805,5.0585,5.0467,5.0285,5.0086,4.9825,4.9486,4.9123,4.8876,4.8626,4.8195,4.8017,4.777,4.7551,4.7365,4.7339,4.7722,4.7734,4.7767,4.7831,4.7864,4.7896,4.8252,4.8397,4.8261,4.8189,4.8131,4.7942,4.7786,4.7675,4.7609,4.751,4.758,4.7624,4.7688,4.7877,4.8067,4.813,4.8111,4.8073,4.7755,4.7582,4.7598,4.7379,4.6908,4.6841,4.7216,4.7506,4.7711,4.7896,4.8122,4.8307,4.8419,4.8481,4.8522,4.8583,4.8292,4.8007,4.7495,4.6909,4.6328,4.5675,4.5062,4.435,4.3954,4.3734,4.3359,4.3021,4.267,4.2128,4.1975,4.1977,4.2004,4.203,4.2108,4.2186,4.2292,4.237,4.2448,4.2527,4.2475,4.2346,4.2085,4.2026,4.2089,4.2097,4.2011,4.211,4.2283,4.2409,4.2587,4.2713,4.2738,4.2763,4.3001,4.4275,4.582,4.6688,4.6939,4.6789,4.6661,4.6578,4.6398,4.6265,4.6284,4.66,4.7139,4.7924,4.8731,4.9469,5.0184,5.0676,5.0816,5.0887,5.0859,5.0757,5.062,5.0453,5.0348,5.0129,4.9854,4.9545,4.9275,4.9092,4.8861,4.8549,4.8342,4.815,4.8099,4.796,4.7996,4.8539,4.85,4.8609,4.872,4.872,4.8591,4.8947,4.9008,4.8935,4.8725,4.8616,4.8395,4.8166,4.7971,4.7896,4.7915,4.8149,4.8288,4.8446,4.8604,4.8794,4.8762,4.866,4.8551,4.8326,4.8224,4.8431,4.8323,4.7913,4.7741,4.8071,4.8071,4.8245,4.8276,4.843,4.846,4.8522,4.8522,4.8532,4.8417,4.8218,4.7943,4.7602,4.7197,4.7005,4.6436,4.6109,4.5439,4.4951,4.4642,4.3974,4.3682,4.3564,4.2965,4.2551,4.2604,4.2552,4.2579,4.2657,4.2736,4.2918,4.3127,4.2971,4.2892,4.318,4.3257,4.2833,4.264,4.2807,4.2764,4.262,4.2587,4.2713,4.2838,4.2939,4.3062,4.3237,4.3341,4.2822,4.3811,4.5213,4.6248,4.6903,4.6708,4.6602,4.6554,4.6314,4.6214,4.6367,4.7139,4.7911,4.8578,4.9328,5.0149,5.0676,5.0816,5.0908,5.0908,5.0846,5.0688,5.0564,5.0425,5.0271,5.0135,4.9918,4.9752,4.9605,4.9411,4.9218,4.9039,4.8896,4.8728,4.8911,4.8868,4.88,4.9198,4.9383,4.9598,4.9645,4.9562,4.94,4.9271,4.9234,4.9143,4.896,4.8807,4.8634,4.851,4.8447,4.8453,4.8529,4.8825,4.8952,4.911,4.9363,4.9564,4.969,4.9568,4.9512,4.9447,4.9361,4.9169,4.8913,4.8769,4.8594,4.8583,4.8614,4.8614,4.8614,4.8614,4.8614,4.8706,4.8686,4.8685,4.8506,4.8356,4.8161,4.7903,4.771,4.7573,4.7259,4.6951,4.6425,4.593,4.5423,4.4695,4.419,4.4199,4.3966,4.3572,4.3441,4.3363,4.318,4.331,4.3441,4.3545,4.3676,4.3415,4.3284,4.3622,4.3695,4.3344,4.3251,4.3286,4.3268,4.3118,4.314,4.324,4.3438,4.3614,4.3614,4.3765,4.3865,4.3108,4.4478,4.5416,4.6248,4.6892,4.6708,4.6602,4.6554,4.6301,4.6202,4.66,4.7653,4.8425,4.8578,4.9328,5.0149,5.0816,5.0908,5.0908,5.0908,5.0743,5.0592,5.0439,5.0285,5.0178,5.0083,5.0001,4.9894,5.0027,4.984,4.9737,4.9911,4.9848,4.9787,4.9857,4.978,4.9715,5.0043,5.0134,5.0246,5.0506,5.0487,5.0422,5.0431,5.061,5.044,5.0249,5.0058,4.9826,4.9619,4.9445,4.9363,4.9394,4.9457,4.9552,4.9552,4.9817,4.9829,4.9872,4.9741,4.9633,4.9392,4.9189,4.9027,4.8862,4.882,4.8737,4.883,4.883,4.882,4.8789,4.8737,4.8737,4.8983,4.9086,4.9184,4.9115,4.9205,4.926,4.8893,4.8566,4.8342,4.8062,4.7562,4.6858,4.6466,4.6251,4.5545,4.4726,4.4758,4.4838,4.4492,4.4146,4.4042,4.386,4.4068,4.4225,4.4303,4.4303,4.4146,4.4066,4.4112,4.4101,4.3982,4.3732,4.3609,4.3588,4.3639,4.3815,4.3966,4.4242,4.4364,4.4263,4.4317,4.4443]}]]